Wetterdaten: Montag, 15.05.2017
Datum Zeit Temp. A. Pool Temp. Feuchte A. Luftdruck Regen Wind Richtung Richtung Sonnenschein ET UV Solar Taupunkt Windchill Windben Empfang
15.05.2017 00:00 15,3 C 20,0 C 83 % 1023,2 hPa 0,0 l/m 1,2 km/h (1 Bft) S 177 0 min 0,000 mm 0,0 UV-I 0 W/m 12,4 C 15,3 C 3,2 km/h (1 Bft) 96,00 %
15.05.2017 00:02 15,2 C 20,0 C 83 % 1023,1 hPa 0,0 l/m 1,3 km/h (1 Bft) S 177 0 min 0,000 mm 0,0 UV-I 0 W/m 12,3 C 15,2 C 3,2 km/h (1 Bft) 97,50 %
15.05.2017 00:04 15,2 C 20,0 C 84 % 1023,1 hPa 0,0 l/m 1,9 km/h (1 Bft) S 177 0 min 0,000 mm 0,0 UV-I 0 W/m 12,5 C 15,2 C 4,8 km/h (1 Bft) 96,00 %
15.05.2017 00:06 15,2 C 20,0 C 84 % 1023,2 hPa 0,0 l/m 2,1 km/h (1 Bft) S 177 0 min 0,000 mm 0,0 UV-I 0 W/m 12,5 C 15,2 C 4,8 km/h (1 Bft) 97,87 %
15.05.2017 00:08 15,1 C 20,0 C 84 % 1023,2 hPa 0,0 l/m 1,5 km/h (1 Bft) S 177 0 min 0,000 mm 0,0 UV-I 0 W/m 12,4 C 15,1 C 3,2 km/h (1 Bft) 97,22 %
15.05.2017 00:10 15,1 C 20,0 C 84 % 1023,2 hPa 0,0 l/m 0,9 km/h (0 Bft) S 177 0 min 0,000 mm 0,0 UV-I 0 W/m 12,4 C 15,1 C 3,2 km/h (1 Bft) 98,00 %
15.05.2017 00:12 15,1 C 20,0 C 84 % 1023,2 hPa 0,0 l/m 0,4 km/h (0 Bft) S 177 0 min 0,000 mm 0,0 UV-I 0 W/m 12,4 C 15,1 C 1,6 km/h (1 Bft) 98,00 %
15.05.2017 00:14 15,1 C 20,0 C 84 % 1023,3 hPa 0,0 l/m 1,0 km/h (0 Bft) S 177 0 min 0,000 mm 0,0 UV-I 0 W/m 12,4 C 15,1 C 3,2 km/h (1 Bft) 95,74 %
15.05.2017 00:16 15,1 C 20,0 C 84 % 1023,3 hPa 0,0 l/m 1,4 km/h (1 Bft) S 177 0 min 0,000 mm 0,0 UV-I 0 W/m 12,4 C 15,1 C 3,2 km/h (1 Bft) 96,00 %
15.05.2017 00:18 15,1 C 20,0 C 85 % 1023,3 hPa 0,0 l/m 0,8 km/h (0 Bft) S 177 0 min 0,000 mm 0,0 UV-I 0 W/m 12,6 C 15,1 C 1,6 km/h (1 Bft) 97,56 %
15.05.2017 00:20 15,1 C 20,0 C 85 % 1023,4 hPa 0,0 l/m 1,2 km/h (1 Bft) S 177 0 min 0,000 mm 0,0 UV-I 0 W/m 12,6 C 15,1 C 3,2 km/h (1 Bft) 97,87 %
15.05.2017 00:22 15,0 C 20,0 C 85 % 1023,4 hPa 0,0 l/m 1,6 km/h (1 Bft) S 177 0 min 0,000 mm 0,0 UV-I 0 W/m 12,5 C 15,0 C 3,2 km/h (1 Bft) 98,11 %
15.05.2017 00:24 14,9 C 20,0 C 85 % 1023,4 hPa 0,0 l/m 0,4 km/h (0 Bft) S 177 0 min 0,000 mm 0,0 UV-I 0 W/m 12,4 C 14,9 C 3,2 km/h (1 Bft) 94,74 %
15.05.2017 00:26 14,9 C 20,0 C 85 % 1023,5 hPa 0,0 l/m 1,1 km/h (1 Bft) S 177 0 min 0,000 mm 0,0 UV-I 0 W/m 12,4 C 14,9 C 3,2 km/h (1 Bft) 98,11 %
15.05.2017 00:28 14,9 C 20,0 C 85 % 1023,5 hPa 0,0 l/m 1,3 km/h (1 Bft) S 177 0 min 0,000 mm 0,0 UV-I 0 W/m 12,4 C 14,9 C 3,2 km/h (1 Bft) 96,23 %
15.05.2017 00:30 14,9 C 20,0 C 86 % 1023,4 hPa 0,0 l/m 1,3 km/h (1 Bft) S 177 0 min 0,000 mm 0,0 UV-I 0 W/m 12,6 C 14,9 C 3,2 km/h (1 Bft) 97,37 %
15.05.2017 00:32 14,9 C 20,0 C 85 % 1023,4 hPa 0,0 l/m 1,6 km/h (1 Bft) S 177 0 min 0,000 mm 0,0 UV-I 0 W/m 12,4 C 14,9 C 3,2 km/h (1 Bft) 95,74 %
15.05.2017 00:34 14,9 C 20,0 C 86 % 1023,4 hPa 0,0 l/m 2,6 km/h (1 Bft) S 177 0 min 0,000 mm 0,0 UV-I 0 W/m 12,6 C 14,9 C 4,8 km/h (1 Bft) 97,87 %
15.05.2017 00:36 14,9 C 20,0 C 86 % 1023,4 hPa 0,0 l/m 4,3 km/h (1 Bft) S 190 0 min 0,000 mm 0,0 UV-I 0 W/m 12,6 C 14,9 C 8,0 km/h (2 Bft) 98,11 %
15.05.2017 00:38 14,9 C 20,0 C 86 % 1023,4 hPa 0,0 l/m 3,8 km/h (1 Bft) S-SW 197 0 min 0,000 mm 0,0 UV-I 0 W/m 12,6 C 14,9 C 6,4 km/h (2 Bft) 97,37 %
15.05.2017 00:40 14,9 C 20,0 C 86 % 1023,4 hPa 0,0 l/m 3,0 km/h (1 Bft) SW 232 0 min 0,000 mm 0,0 UV-I 0 W/m 12,6 C 14,9 C 6,4 km/h (2 Bft) 98,11 %
15.05.2017 00:42 14,9 C 20,0 C 86 % 1023,4 hPa 0,0 l/m 5,4 km/h (1 Bft) SW 215 0 min 0,000 mm 0,0 UV-I 0 W/m 12,6 C 14,9 C 6,4 km/h (2 Bft) 98,00 %
15.05.2017 00:44 14,9 C 20,0 C 86 % 1023,4 hPa 0,0 l/m 5,0 km/h (1 Bft) SW 225 0 min 0,000 mm 0,0 UV-I 0 W/m 12,6 C 14,9 C 6,4 km/h (2 Bft) 97,87 %
15.05.2017 00:46 14,8 C 20,0 C 86 % 1023,4 hPa 0,0 l/m 4,4 km/h (1 Bft) SW 220 0 min 0,000 mm 0,0 UV-I 0 W/m 12,5 C 14,8 C 6,4 km/h (2 Bft) 97,37 %
15.05.2017 00:48 14,8 C 20,0 C 86 % 1023,4 hPa 0,0 l/m 3,8 km/h (1 Bft) SW 219 0 min 0,000 mm 0,0 UV-I 0 W/m 12,5 C 14,8 C 6,4 km/h (2 Bft) 97,92 %
15.05.2017 00:50 14,8 C 20,0 C 86 % 1023,4 hPa 0,0 l/m 4,8 km/h (1 Bft) S-SW 211 0 min 0,000 mm 0,0 UV-I 0 W/m 12,5 C 14,8 C 6,4 km/h (2 Bft) 97,87 %
15.05.2017 00:52 14,8 C 20,0 C 86 % 1023,4 hPa 0,0 l/m 3,1 km/h (1 Bft) S-SW 211 0 min 0,000 mm 0,0 UV-I 0 W/m 12,5 C 14,8 C 6,4 km/h (2 Bft) 98,00 %
15.05.2017 00:54 14,8 C 20,0 C 86 % 1023,4 hPa 0,0 l/m 3,4 km/h (1 Bft) S-SW 211 0 min 0,000 mm 0,0 UV-I 0 W/m 12,5 C 14,8 C 4,8 km/h (1 Bft) 98,00 %
15.05.2017 00:56 14,8 C 20,0 C 86 % 1023,4 hPa 0,0 l/m 2,8 km/h (1 Bft) S-SW 211 0 min 0,000 mm 0,0 UV-I 0 W/m 12,5 C 14,8 C 3,2 km/h (1 Bft) 95,12 %
15.05.2017 00:58 14,8 C 20,0 C 86 % 1023,4 hPa 0,0 l/m 2,3 km/h (1 Bft) S-SW 211 0 min 0,000 mm 0,0 UV-I 0 W/m 12,5 C 14,8 C 4,8 km/h (1 Bft) 96,23 %
15.05.2017 01:00 14,8 C 20,0 C 86 % 1023,4 hPa 0,0 l/m 3,0 km/h (1 Bft) S-SW 211 0 min 0,000 mm 0,0 UV-I 0 W/m 12,5 C 14,8 C 4,8 km/h (1 Bft) 95,74 %
15.05.2017 01:02 14,7 C 20,0 C 87 % 1023,4 hPa 0,0 l/m 2,4 km/h (1 Bft) S-SW 211 0 min 0,000 mm 0,0 UV-I 0 W/m 12,6 C 14,7 C 4,8 km/h (1 Bft) 97,37 %
15.05.2017 01:04 14,7 C 20,0 C 87 % 1023,4 hPa 0,0 l/m 2,8 km/h (1 Bft) SW 214 0 min 0,000 mm 0,0 UV-I 0 W/m 12,6 C 14,7 C 4,8 km/h (1 Bft) 98,31 %
15.05.2017 01:06 14,7 C 20,0 C 87 % 1023,4 hPa 0,0 l/m 3,4 km/h (1 Bft) SW 214 0 min 0,000 mm 0,0 UV-I 0 W/m 12,6 C 14,7 C 4,8 km/h (1 Bft) 95,65 %
15.05.2017 01:08 14,7 C 20,0 C 87 % 1023,4 hPa 0,0 l/m 2,9 km/h (1 Bft) SW 214 0 min 0,000 mm 0,0 UV-I 0 W/m 12,6 C 14,7 C 4,8 km/h (1 Bft) 97,06 %
15.05.2017 01:10 14,7 C 20,0 C 87 % 1023,4 hPa 0,0 l/m 2,8 km/h (1 Bft) SW 214 0 min 0,000 mm 0,0 UV-I 0 W/m 12,6 C 14,7 C 8,0 km/h (2 Bft) 97,73 %
15.05.2017 01:12 14,7 C 20,0 C 87 % 1023,4 hPa 0,0 l/m 3,6 km/h (1 Bft) SW 214 0 min 0,000 mm 0,0 UV-I 0 W/m 12,6 C 14,7 C 6,4 km/h (2 Bft) 95,12 %
15.05.2017 01:14 14,7 C 20,0 C 87 % 1023,5 hPa 0,0 l/m 4,6 km/h (1 Bft) SW 214 0 min 0,000 mm 0,0 UV-I 0 W/m 12,6 C 14,7 C 8,0 km/h (2 Bft) 96,43 %
15.05.2017 01:16 14,8 C 20,0 C 87 % 1023,5 hPa 0,0 l/m 6,4 km/h (2 Bft) S-SW 210 0 min 0,000 mm 0,0 UV-I 0 W/m 12,7 C 14,8 C 8,0 km/h (2 Bft) 97,56 %
15.05.2017 01:18 14,8 C 20,0 C 87 % 1023,4 hPa 0,0 l/m 5,3 km/h (1 Bft) S-SW 211 0 min 0,000 mm 0,0 UV-I 0 W/m 12,7 C 14,8 C 8,0 km/h (2 Bft) 98,00 %
15.05.2017 01:20 14,8 C 20,0 C 87 % 1023,5 hPa 0,0 l/m 5,1 km/h (1 Bft) SW 225 0 min 0,000 mm 0,0 UV-I 0 W/m 12,7 C 14,8 C 6,4 km/h (2 Bft) 98,00 %
15.05.2017 01:22 14,8 C 20,0 C 86 % 1023,5 hPa 0,0 l/m 5,3 km/h (1 Bft) W-SW 244 0 min 0,000 mm 0,0 UV-I 0 W/m 12,5 C 14,8 C 8,0 km/h (2 Bft) 97,56 %
15.05.2017 01:24 14,8 C 20,0 C 86 % 1023,5 hPa 0,0 l/m 6,1 km/h (2 Bft) W-SW 240 0 min 0,000 mm 0,0 UV-I 0 W/m 12,5 C 14,8 C 11,3 km/h (2 Bft) 97,92 %
15.05.2017 01:26 14,8 C 20,0 C 87 % 1023,6 hPa 0,0 l/m 6,7 km/h (2 Bft) S-SW 208 0 min 0,000 mm 0,0 UV-I 0 W/m 12,7 C 14,6 C 9,7 km/h (2 Bft) 95,24 %
15.05.2017 01:28 14,8 C 20,0 C 87 % 1023,5 hPa 0,0 l/m 7,5 km/h (2 Bft) W-SW 240 0 min 0,000 mm 0,0 UV-I 0 W/m 12,7 C 14,2 C 11,3 km/h (2 Bft) 100,00 %
15.05.2017 01:30 14,8 C 20,0 C 87 % 1023,6 hPa 0,0 l/m 8,0 km/h (2 Bft) W-SW 237 0 min 0,000 mm 0,0 UV-I 0 W/m 12,7 C 13,9 C 12,9 km/h (3 Bft) 100,00 %
15.05.2017 01:32 14,7 C 20,0 C 87 % 1023,6 hPa 0,0 l/m 8,4 km/h (2 Bft) W-SW 257 0 min 0,000 mm 0,0 UV-I 0 W/m 12,6 C 13,6 C 12,9 km/h (3 Bft) 100,00 %
15.05.2017 01:34 14,7 C 20,0 C 87 % 1023,6 hPa 0,0 l/m 7,3 km/h (2 Bft) SW 236 0 min 0,000 mm 0,0 UV-I 0 W/m 12,6 C 14,2 C 11,3 km/h (2 Bft) 100,00 %
15.05.2017 01:36 14,7 C 20,0 C 87 % 1023,6 hPa 0,0 l/m 6,3 km/h (2 Bft) SW 220 0 min 0,000 mm 0,0 UV-I 0 W/m 12,6 C 14,7 C 9,7 km/h (2 Bft) 100,00 %
15.05.2017 01:38 14,6 C 20,0 C 88 % 1023,6 hPa 0,0 l/m 5,7 km/h (1 Bft) SW 232 0 min 0,000 mm 0,0 UV-I 0 W/m 12,6 C 14,6 C 11,3 km/h (2 Bft) 100,00 %
15.05.2017 01:40 14,6 C 20,0 C 87 % 1023,5 hPa 0,0 l/m 5,7 km/h (1 Bft) SW 234 0 min 0,000 mm 0,0 UV-I 0 W/m 12,5 C 14,6 C 9,7 km/h (2 Bft) 100,00 %
15.05.2017 01:42 14,5 C 20,0 C 88 % 1023,5 hPa 0,0 l/m 7,6 km/h (2 Bft) SW 235 0 min 0,000 mm 0,0 UV-I 0 W/m 12,5 C 13,8 C 11,3 km/h (2 Bft) 100,00 %
15.05.2017 01:44 14,4 C 20,0 C 88 % 1023,5 hPa 0,0 l/m 4,6 km/h (1 Bft) S-SW 196 0 min 0,000 mm 0,0 UV-I 0 W/m 12,4 C 14,4 C 6,4 km/h (2 Bft) 100,00 %
15.05.2017 01:46 14,4 C 20,0 C 88 % 1023,6 hPa 0,0 l/m 4,5 km/h (1 Bft) SW 230 0 min 0,000 mm 0,0 UV-I 0 W/m 12,4 C 14,4 C 6,4 km/h (2 Bft) 100,00 %
15.05.2017 01:48 14,4 C 20,0 C 88 % 1023,6 hPa 0,0 l/m 5,0 km/h (1 Bft) SW 215 0 min 0,000 mm 0,0 UV-I 0 W/m 12,4 C 14,4 C 8,0 km/h (2 Bft) 100,00 %
15.05.2017 01:50 14,3 C 20,0 C 89 % 1023,7 hPa 0,0 l/m 6,0 km/h (2 Bft) SW 219 0 min 0,000 mm 0,0 UV-I 0 W/m 12,5 C 14,3 C 9,7 km/h (2 Bft) 100,00 %
15.05.2017 01:52 14,3 C 20,0 C 89 % 1023,6 hPa 0,0 l/m 4,1 km/h (1 Bft) W-SW 239 0 min 0,000 mm 0,0 UV-I 0 W/m 12,5 C 14,3 C 6,4 km/h (2 Bft) 100,00 %
15.05.2017 01:54 14,3 C 20,0 C 89 % 1023,7 hPa 0,0 l/m 3,9 km/h (1 Bft) SW 236 0 min 0,000 mm 0,0 UV-I 0 W/m 12,5 C 14,3 C 6,4 km/h (2 Bft) 100,00 %
15.05.2017 01:56 14,3 C 20,0 C 89 % 1023,7 hPa 0,0 l/m 1,9 km/h (1 Bft) SW 236 0 min 0,000 mm 0,0 UV-I 0 W/m 12,5 C 14,3 C 4,8 km/h (1 Bft) 100,00 %
15.05.2017 01:58 14,3 C 20,0 C 89 % 1023,7 hPa 0,0 l/m 2,8 km/h (1 Bft) SW 236 0 min 0,000 mm 0,0 UV-I 0 W/m 12,5 C 14,3 C 4,8 km/h (1 Bft) 96,30 %
15.05.2017 02:00 14,3 C 20,0 C 89 % 1023,7 hPa 0,0 l/m 1,4 km/h (1 Bft) SW 236 0 min 0,000 mm 0,0 UV-I 0 W/m 12,5 C 14,3 C 1,6 km/h (1 Bft) 100,00 %
15.05.2017 02:02 14,3 C 20,0 C 89 % 1023,7 hPa 0,0 l/m 3,4 km/h (1 Bft) SW 236 0 min 0,000 mm 0,0 UV-I 0 W/m 12,5 C 14,3 C 4,8 km/h (1 Bft) 100,00 %
15.05.2017 02:04 14,3 C 20,0 C 89 % 1023,7 hPa 0,0 l/m 3,3 km/h (1 Bft) SW 233 0 min 0,000 mm 0,0 UV-I 0 W/m 12,5 C 14,3 C 6,4 km/h (2 Bft) 100,00 %
15.05.2017 02:06 14,2 C 20,0 C 89 % 1023,7 hPa 0,0 l/m 3,6 km/h (1 Bft) SW 232 0 min 0,000 mm 0,0 UV-I 0 W/m 12,4 C 14,2 C 4,8 km/h (1 Bft) 100,00 %
15.05.2017 02:08 14,2 C 20,0 C 89 % 1023,7 hPa 0,0 l/m 3,1 km/h (1 Bft) SW 231 0 min 0,000 mm 0,0 UV-I 0 W/m 12,4 C 14,2 C 4,8 km/h (1 Bft) 98,11 %
15.05.2017 02:10 14,2 C 20,0 C 89 % 1023,7 hPa 0,0 l/m 4,3 km/h (1 Bft) SW 231 0 min 0,000 mm 0,0 UV-I 0 W/m 12,4 C 14,2 C 6,4 km/h (2 Bft) 100,00 %
15.05.2017 02:12 14,2 C 20,0 C 89 % 1023,7 hPa 0,0 l/m 3,0 km/h (1 Bft) SW 231 0 min 0,000 mm 0,0 UV-I 0 W/m 12,4 C 14,2 C 4,8 km/h (1 Bft) 100,00 %
15.05.2017 02:14 14,2 C 20,0 C 89 % 1023,7 hPa 0,0 l/m 4,1 km/h (1 Bft) SW 231 0 min 0,000 mm 0,0 UV-I 0 W/m 12,4 C 14,2 C 6,4 km/h (2 Bft) 100,00 %
15.05.2017 02:16 14,2 C 20,0 C 89 % 1023,7 hPa 0,0 l/m 4,3 km/h (1 Bft) SW 232 0 min 0,000 mm 0,0 UV-I 0 W/m 12,4 C 14,2 C 6,4 km/h (2 Bft) 100,00 %
15.05.2017 02:18 14,2 C 20,0 C 89 % 1023,7 hPa 0,0 l/m 4,9 km/h (1 Bft) SW 225 0 min 0,000 mm 0,0 UV-I 0 W/m 12,4 C 14,2 C 8,0 km/h (2 Bft) 100,00 %
15.05.2017 02:20 14,2 C 20,0 C 89 % 1023,7 hPa 0,0 l/m 3,9 km/h (1 Bft) SW 225 0 min 0,000 mm 0,0 UV-I 0 W/m 12,4 C 14,2 C 6,4 km/h (2 Bft) 98,11 %
15.05.2017 02:22 14,2 C 20,0 C 89 % 1023,7 hPa 0,0 l/m 4,7 km/h (1 Bft) W-SW 239 0 min 0,000 mm 0,0 UV-I 0 W/m 12,4 C 14,2 C 6,4 km/h (2 Bft) 100,00 %
15.05.2017 02:24 14,2 C 20,0 C 89 % 1023,7 hPa 0,0 l/m 5,3 km/h (1 Bft) SW 233 0 min 0,000 mm 0,0 UV-I 0 W/m 12,4 C 14,2 C 6,4 km/h (2 Bft) 100,00 %
15.05.2017 02:26 14,1 C 20,0 C 89 % 1023,7 hPa 0,0 l/m 4,3 km/h (1 Bft) SW 234 0 min 0,000 mm 0,0 UV-I 0 W/m 12,3 C 14,1 C 6,4 km/h (2 Bft) 100,00 %
15.05.2017 02:28 14,1 C 20,0 C 90 % 1023,6 hPa 0,0 l/m 4,2 km/h (1 Bft) SW 234 0 min 0,000 mm 0,0 UV-I 0 W/m 12,5 C 14,1 C 6,4 km/h (2 Bft) 100,00 %
15.05.2017 02:30 14,1 C 20,0 C 90 % 1023,6 hPa 0,0 l/m 4,6 km/h (1 Bft) W-SW 238 0 min 0,000 mm 0,0 UV-I 0 W/m 12,5 C 14,1 C 8,0 km/h (2 Bft) 100,00 %
15.05.2017 02:32 14,1 C 20,0 C 90 % 1023,6 hPa 0,0 l/m 7,4 km/h (2 Bft) W-SW 251 0 min 0,000 mm 0,0 UV-I 0 W/m 12,5 C 13,5 C 11,3 km/h (2 Bft) 100,00 %
15.05.2017 02:34 14,1 C 20,0 C 90 % 1023,6 hPa 0,0 l/m 7,5 km/h (2 Bft) W-SW 254 0 min 0,000 mm 0,0 UV-I 0 W/m 12,5 C 13,4 C 12,9 km/h (3 Bft) 98,00 %
15.05.2017 02:36 14,1 C 20,0 C 90 % 1023,6 hPa 0,0 l/m 8,2 km/h (2 Bft) W 268 0 min 0,000 mm 0,0 UV-I 0 W/m 12,5 C 13,0 C 11,3 km/h (2 Bft) 97,37 %
15.05.2017 02:38 14,1 C 20,0 C 90 % 1023,6 hPa 0,0 l/m 7,8 km/h (2 Bft) SW 234 0 min 0,000 mm 0,0 UV-I 0 W/m 12,5 C 13,3 C 11,3 km/h (2 Bft) 98,21 %
15.05.2017 02:40 14,2 C 20,0 C 89 % 1023,7 hPa 0,0 l/m 7,6 km/h (2 Bft) W-SW 248 0 min 0,000 mm 0,0 UV-I 0 W/m 12,4 C 13,5 C 11,3 km/h (2 Bft) 97,37 %
15.05.2017 02:42 14,2 C 20,0 C 89 % 1023,7 hPa 0,0 l/m 8,2 km/h (2 Bft) W-SW 258 0 min 0,000 mm 0,0 UV-I 0 W/m 12,4 C 13,2 C 12,9 km/h (3 Bft) 100,00 %
15.05.2017 02:44 14,2 C 20,0 C 89 % 1023,7 hPa 0,0 l/m 9,6 km/h (2 Bft) W-SW 248 0 min 0,000 mm 0,0 UV-I 0 W/m 12,4 C 12,4 C 12,9 km/h (3 Bft) 100,00 %
15.05.2017 02:46 14,2 C 20,0 C 89 % 1023,7 hPa 0,0 l/m 8,3 km/h (2 Bft) W-SW 249 0 min 0,000 mm 0,0 UV-I 0 W/m 12,4 C 13,1 C 11,3 km/h (2 Bft) 100,00 %
15.05.2017 02:48 14,2 C 20,0 C 89 % 1023,7 hPa 0,0 l/m 9,5 km/h (2 Bft) W 271 0 min 0,000 mm 0,0 UV-I 0 W/m 12,4 C 12,5 C 14,5 km/h (3 Bft) 100,00 %
15.05.2017 02:50 14,3 C 20,0 C 89 % 1023,7 hPa 0,0 l/m 9,6 km/h (2 Bft) W-SW 245 0 min 0,000 mm 0,0 UV-I 0 W/m 12,5 C 12,5 C 12,9 km/h (3 Bft) 100,00 %
15.05.2017 02:52 14,3 C 20,0 C 89 % 1023,7 hPa 0,0 l/m 8,6 km/h (2 Bft) W-SW 251 0 min 0,000 mm 0,0 UV-I 0 W/m 12,5 C 13,0 C 12,9 km/h (3 Bft) 100,00 %
15.05.2017 02:54 14,3 C 20,0 C 89 % 1023,7 hPa 0,0 l/m 8,7 km/h (2 Bft) W-SW 242 0 min 0,000 mm 0,0 UV-I 0 W/m 12,5 C 13,0 C 11,3 km/h (2 Bft) 97,14 %
15.05.2017 02:56 14,3 C 20,0 C 88 % 1023,8 hPa 0,0 l/m 10,8 km/h (2 Bft) SW 231 0 min 0,000 mm 0,0 UV-I 0 W/m 12,3 C 12,0 C 14,5 km/h (3 Bft) 97,87 %
15.05.2017 02:58 14,3 C 20,0 C 88 % 1023,7 hPa 0,0 l/m 11,2 km/h (2 Bft) W 271 0 min 0,000 mm 0,0 UV-I 0 W/m 12,3 C 11,8 C 16,1 km/h (3 Bft) 95,74 %
15.05.2017 03:00 14,3 C 20,0 C 88 % 1023,8 hPa 0,0 l/m 9,8 km/h (2 Bft) W-SW 244 0 min 0,000 mm 0,0 UV-I 0 W/m 12,3 C 12,4 C 14,5 km/h (3 Bft) 96,23 %
15.05.2017 03:02 14,3 C 20,0 C 88 % 1023,7 hPa 0,0 l/m 8,4 km/h (2 Bft) W 265 0 min 0,000 mm 0,0 UV-I 0 W/m 12,3 C 13,1 C 12,9 km/h (3 Bft) 97,73 %
15.05.2017 03:04 14,3 C 20,0 C 88 % 1023,8 hPa 0,0 l/m 8,4 km/h (2 Bft) W-SW 248 0 min 0,000 mm 0,0 UV-I 0 W/m 12,3 C 13,1 C 12,9 km/h (3 Bft) 95,74 %
15.05.2017 03:06 14,3 C 20,0 C 88 % 1023,8 hPa 0,0 l/m 9,3 km/h (2 Bft) W-SW 250 0 min 0,000 mm 0,0 UV-I 0 W/m 12,3 C 12,7 C 12,9 km/h (3 Bft) 98,11 %
15.05.2017 03:08 14,3 C 20,0 C 88 % 1023,8 hPa 0,0 l/m 10,0 km/h (2 Bft) W-SW 238 0 min 0,000 mm 0,0 UV-I 0 W/m 12,3 C 12,3 C 14,5 km/h (3 Bft) 95,74 %
15.05.2017 03:10 14,3 C 20,0 C 88 % 1023,9 hPa 0,0 l/m 8,5 km/h (2 Bft) SW 231 0 min 0,000 mm 0,0 UV-I 0 W/m 12,3 C 13,1 C 14,5 km/h (3 Bft) 97,56 %
15.05.2017 03:12 14,3 C 20,0 C 88 % 1023,9 hPa 0,0 l/m 6,5 km/h (2 Bft) W-SW 250 0 min 0,000 mm 0,0 UV-I 0 W/m 12,3 C 14,3 C 12,9 km/h (3 Bft) 95,74 %
15.05.2017 03:14 14,3 C 20,0 C 88 % 1023,8 hPa 0,0 l/m 8,2 km/h (2 Bft) W-SW 258 0 min 0,000 mm 0,0 UV-I 0 W/m 12,3 C 13,3 C 12,9 km/h (3 Bft) 96,23 %
15.05.2017 03:16 14,3 C 20,0 C 88 % 1023,8 hPa 0,0 l/m 9,5 km/h (2 Bft) W-SW 257 0 min 0,000 mm 0,0 UV-I 0 W/m 12,3 C 12,6 C 14,5 km/h (3 Bft) 97,56 %
15.05.2017 03:18 14,3 C 20,0 C 88 % 1023,8 hPa 0,0 l/m 9,6 km/h (2 Bft) W-SW 251 0 min 0,000 mm 0,0 UV-I 0 W/m 12,3 C 12,5 C 14,5 km/h (3 Bft) 98,00 %
15.05.2017 03:20 14,3 C 20,0 C 87 % 1023,8 hPa 0,0 l/m 9,2 km/h (2 Bft) W-SW 244 0 min 0,000 mm 0,0 UV-I 0 W/m 12,2 C 12,7 C 12,9 km/h (3 Bft) 95,12 %
15.05.2017 03:22 14,3 C 20,0 C 87 % 1023,8 hPa 0,0 l/m 9,1 km/h (2 Bft) SW 234 0 min 0,000 mm 0,0 UV-I 0 W/m 12,2 C 12,8 C 14,5 km/h (3 Bft) 97,73 %
15.05.2017 03:24 14,2 C 20,0 C 87 % 1023,9 hPa 0,0 l/m 8,4 km/h (2 Bft) W 262 0 min 0,000 mm 0,0 UV-I 0 W/m 12,1 C 13,0 C 14,5 km/h (3 Bft) 98,11 %
15.05.2017 03:26 14,2 C 20,0 C 87 % 1023,9 hPa 0,0 l/m 8,0 km/h (2 Bft) W-SW 244 0 min 0,000 mm 0,0 UV-I 0 W/m 12,1 C 13,3 C 12,9 km/h (3 Bft) 97,62 %
15.05.2017 03:28 14,2 C 20,0 C 87 % 1023,9 hPa 0,0 l/m 9,3 km/h (2 Bft) W-SW 254 0 min 0,000 mm 0,0 UV-I 0 W/m 12,1 C 12,6 C 14,5 km/h (3 Bft) 100,00 %
15.05.2017 03:30 14,1 C 20,0 C 87 % 1023,9 hPa 0,0 l/m 8,4 km/h (2 Bft) SW 226 0 min 0,000 mm 0,0 UV-I 0 W/m 12,0 C 12,9 C 14,5 km/h (3 Bft) 97,92 %
15.05.2017 03:32 14,1 C 20,0 C 87 % 1023,9 hPa 0,0 l/m 9,7 km/h (2 Bft) SW 235 0 min 0,000 mm 0,0 UV-I 0 W/m 12,0 C 12,3 C 16,1 km/h (3 Bft) 100,00 %
15.05.2017 03:34 14,1 C 20,0 C 87 % 1023,9 hPa 0,0 l/m 8,9 km/h (2 Bft) SW 232 0 min 0,000 mm 0,0 UV-I 0 W/m 12,0 C 12,7 C 12,9 km/h (3 Bft) 100,00 %
15.05.2017 03:36 14,1 C 20,0 C 87 % 1024,0 hPa 0,0 l/m 7,3 km/h (2 Bft) S-SW 209 0 min 0,000 mm 0,0 UV-I 0 W/m 12,0 C 13,6 C 12,9 km/h (3 Bft) 100,00 %
15.05.2017 03:38 14,0 C 20,0 C 87 % 1024,0 hPa 0,0 l/m 8,3 km/h (2 Bft) SW 236 0 min 0,000 mm 0,0 UV-I 0 W/m 11,9 C 12,9 C 12,9 km/h (3 Bft) 94,64 %
15.05.2017 03:40 14,0 C 19,4 C 88 % 1024,0 hPa 0,0 l/m 7,7 km/h (2 Bft) SW 235 0 min 0,000 mm 0,0 UV-I 0 W/m 12,0 C 13,2 C 11,3 km/h (2 Bft) 97,56 %
15.05.2017 03:42 13,9 C 20,0 C 88 % 1024,0 hPa 0,0 l/m 6,8 km/h (2 Bft) W-SW 248 0 min 0,000 mm 0,0 UV-I 0 W/m 11,9 C 13,7 C 8,0 km/h (2 Bft) 98,15 %
15.05.2017 03:44 13,9 C 20,0 C 88 % 1024,0 hPa 0,0 l/m 7,3 km/h (2 Bft) SW 217 0 min 0,000 mm 0,0 UV-I 0 W/m 11,9 C 13,4 C 12,9 km/h (3 Bft) 95,12 %
15.05.2017 03:46 13,9 C 19,4 C 88 % 1024,0 hPa 0,0 l/m 8,7 km/h (2 Bft) SW 229 0 min 0,000 mm 0,0 UV-I 0 W/m 11,9 C 12,6 C 14,5 km/h (3 Bft) 100,00 %
15.05.2017 03:48 13,9 C 19,4 C 87 % 1024,1 hPa 0,0 l/m 9,9 km/h (2 Bft) W-SW 238 0 min 0,000 mm 0,0 UV-I 0 W/m 11,8 C 12,0 C 14,5 km/h (3 Bft) 97,18 %
15.05.2017 03:50 13,9 C 20,0 C 87 % 1024,1 hPa 0,0 l/m 9,8 km/h (2 Bft) W-SW 250 0 min 0,000 mm 0,0 UV-I 0 W/m 11,8 C 12,0 C 16,1 km/h (3 Bft) 97,73 %
15.05.2017 03:52 13,8 C 19,4 C 87 % 1024,1 hPa 0,0 l/m 13,5 km/h (3 Bft) W-SW 250 0 min 0,000 mm 0,0 UV-I 0 W/m 11,7 C 10,3 C 19,3 km/h (3 Bft) 97,73 %
15.05.2017 03:54 13,8 C 19,4 C 87 % 1024,2 hPa 0,0 l/m 10,6 km/h (2 Bft) W 273 0 min 0,000 mm 0,0 UV-I 0 W/m 11,7 C 11,5 C 14,5 km/h (3 Bft) 96,23 %
15.05.2017 03:56 13,8 C 20,0 C 87 % 1024,2 hPa 0,0 l/m 11,7 km/h (2 Bft) W 263 0 min 0,000 mm 0,0 UV-I 0 W/m 11,7 C 11,0 C 14,5 km/h (3 Bft) 97,87 %
15.05.2017 03:58 13,8 C 20,0 C 87 % 1024,2 hPa 0,0 l/m 10,8 km/h (2 Bft) W-SW 239 0 min 0,000 mm 0,0 UV-I 0 W/m 11,7 C 11,4 C 16,1 km/h (3 Bft) 97,14 %
15.05.2017 04:00 13,8 C 19,4 C 87 % 1024,2 hPa 0,0 l/m 8,8 km/h (2 Bft) W-SW 246 0 min 0,025 mm 0,0 UV-I 0 W/m 11,7 C 12,4 C 11,3 km/h (2 Bft) 94,34 %
15.05.2017 04:02 13,8 C 19,4 C 87 % 1024,2 hPa 0,0 l/m 11,8 km/h (2 Bft) W-SW 252 0 min 0,000 mm 0,0 UV-I 0 W/m 11,7 C 11,0 C 16,1 km/h (3 Bft) 94,74 %
15.05.2017 04:04 13,8 C 19,4 C 87 % 1024,2 hPa 0,0 l/m 9,7 km/h (2 Bft) W-SW 240 0 min 0,000 mm 0,0 UV-I 0 W/m 11,7 C 11,9 C 17,7 km/h (3 Bft) 97,62 %
15.05.2017 04:06 13,7 C 19,4 C 86 % 1024,2 hPa 0,0 l/m 14,0 km/h (3 Bft) SW 234 0 min 0,000 mm 0,0 UV-I 0 W/m 11,4 C 10,0 C 19,3 km/h (3 Bft) 98,00 %
15.05.2017 04:08 13,7 C 19,4 C 86 % 1024,2 hPa 0,0 l/m 10,5 km/h (2 Bft) W-SW 242 0 min 0,000 mm 0,0 UV-I 0 W/m 11,4 C 11,4 C 17,7 km/h (3 Bft) 96,15 %
15.05.2017 04:10 13,7 C 19,4 C 86 % 1024,2 hPa 0,0 l/m 10,9 km/h (2 Bft) SW 231 0 min 0,000 mm 0,0 UV-I 0 W/m 11,4 C 11,3 C 17,7 km/h (3 Bft) 97,44 %
15.05.2017 04:12 13,7 C 19,4 C 86 % 1024,2 hPa 0,0 l/m 13,0 km/h (3 Bft) SW 230 0 min 0,000 mm 0,0 UV-I 0 W/m 11,4 C 10,4 C 17,7 km/h (3 Bft) 97,87 %
15.05.2017 04:14 13,7 C 19,4 C 86 % 1024,3 hPa 0,0 l/m 11,5 km/h (2 Bft) W-SW 246 0 min 0,000 mm 0,0 UV-I 0 W/m 11,4 C 11,0 C 19,3 km/h (3 Bft) 98,00 %
15.05.2017 04:16 13,7 C 19,4 C 86 % 1024,3 hPa 0,0 l/m 7,9 km/h (2 Bft) SW 224 0 min 0,000 mm 0,0 UV-I 0 W/m 11,4 C 12,8 C 14,5 km/h (3 Bft) 96,23 %
15.05.2017 04:18 13,7 C 19,4 C 86 % 1024,4 hPa 0,0 l/m 11,0 km/h (2 Bft) SW 218 0 min 0,000 mm 0,0 UV-I 0 W/m 11,4 C 11,2 C 14,5 km/h (3 Bft) 97,37 %
15.05.2017 04:20 13,6 C 19,4 C 86 % 1024,4 hPa 0,0 l/m 12,0 km/h (2 Bft) W-SW 237 0 min 0,000 mm 0,0 UV-I 0 W/m 11,3 C 10,7 C 16,1 km/h (3 Bft) 98,11 %
15.05.2017 04:22 13,6 C 19,4 C 86 % 1024,3 hPa 0,0 l/m 9,3 km/h (2 Bft) SW 229 0 min 0,000 mm 0,0 UV-I 0 W/m 11,3 C 11,9 C 16,1 km/h (3 Bft) 97,56 %
15.05.2017 04:24 13,6 C 19,4 C 86 % 1024,3 hPa 0,0 l/m 11,8 km/h (2 Bft) W-SW 242 0 min 0,000 mm 0,0 UV-I 0 W/m 11,3 C 10,7 C 17,7 km/h (3 Bft) 96,23 %
15.05.2017 04:26 13,6 C 19,4 C 86 % 1024,4 hPa 0,0 l/m 11,2 km/h (2 Bft) W-SW 256 0 min 0,000 mm 0,0 UV-I 0 W/m 11,3 C 11,0 C 16,1 km/h (3 Bft) 98,00 %
15.05.2017 04:28 13,6 C 19,4 C 86 % 1024,3 hPa 0,0 l/m 11,2 km/h (2 Bft) W 261 0 min 0,000 mm 0,0 UV-I 0 W/m 11,3 C 11,0 C 16,1 km/h (3 Bft) 100,00 %
15.05.2017 04:30 13,6 C 19,4 C 86 % 1024,3 hPa 0,0 l/m 14,6 km/h (3 Bft) W-SW 241 0 min 0,000 mm 0,0 UV-I 0 W/m 11,3 C 9,6 C 20,9 km/h (4 Bft) 96,00 %
15.05.2017 04:32 13,6 C 19,4 C 86 % 1024,4 hPa 0,0 l/m 12,1 km/h (2 Bft) W-SW 237 0 min 0,000 mm 0,0 UV-I 0 W/m 11,3 C 10,6 C 19,3 km/h (3 Bft) 97,37 %
15.05.2017 04:34 13,6 C 19,4 C 86 % 1024,4 hPa 0,0 l/m 11,8 km/h (2 Bft) SW 214 0 min 0,000 mm 0,0 UV-I 0 W/m 11,3 C 10,7 C 17,7 km/h (3 Bft) 96,23 %
15.05.2017 04:36 13,6 C 19,4 C 86 % 1024,4 hPa 0,0 l/m 11,4 km/h (2 Bft) W-SW 242 0 min 0,000 mm 0,0 UV-I 0 W/m 11,3 C 10,9 C 17,7 km/h (3 Bft) 97,73 %
15.05.2017 04:38 13,6 C 19,4 C 85 % 1024,4 hPa 0,0 l/m 12,8 km/h (3 Bft) W-SW 238 0 min 0,000 mm 0,0 UV-I 0 W/m 11,1 C 10,3 C 20,9 km/h (4 Bft) 100,00 %
15.05.2017 04:40 13,6 C 19,4 C 85 % 1024,4 hPa 0,0 l/m 11,3 km/h (2 Bft) W-SW 255 0 min 0,000 mm 0,0 UV-I 0 W/m 11,1 C 11,0 C 17,7 km/h (3 Bft) 100,00 %
15.05.2017 04:42 13,7 C 19,4 C 85 % 1024,4 hPa 0,0 l/m 12,9 km/h (3 Bft) W-SW 238 0 min 0,000 mm 0,0 UV-I 0 W/m 11,2 C 10,4 C 17,7 km/h (3 Bft) 98,28 %
15.05.2017 04:44 13,7 C 19,4 C 85 % 1024,4 hPa 0,0 l/m 10,3 km/h (2 Bft) W 262 0 min 0,000 mm 0,0 UV-I 0 W/m 11,2 C 11,5 C 14,5 km/h (3 Bft) 100,00 %
15.05.2017 04:46 13,7 C 19,4 C 85 % 1024,4 hPa 0,0 l/m 10,7 km/h (2 Bft) W-SW 254 0 min 0,000 mm 0,0 UV-I 0 W/m 11,2 C 11,3 C 19,3 km/h (3 Bft) 100,00 %
15.05.2017 04:48 13,7 C 19,4 C 85 % 1024,4 hPa 0,0 l/m 12,2 km/h (2 Bft) S-SW 209 0 min 0,000 mm 0,0 UV-I 0 W/m 11,2 C 10,7 C 17,7 km/h (3 Bft) 100,00 %
15.05.2017 04:50 13,7 C 19,4 C 85 % 1024,5 hPa 0,0 l/m 12,6 km/h (3 Bft) W-SW 240 0 min 0,000 mm 0,0 UV-I 0 W/m 11,2 C 10,5 C 14,5 km/h (3 Bft) 100,00 %
15.05.2017 04:52 13,7 C 19,4 C 85 % 1024,5 hPa 0,0 l/m 11,2 km/h (2 Bft) W-SW 246 0 min 0,000 mm 0,0 UV-I 0 W/m 11,2 C 11,1 C 19,3 km/h (3 Bft) 98,65 %
15.05.2017 04:54 13,7 C 19,4 C 85 % 1024,5 hPa 0,0 l/m 11,4 km/h (2 Bft) SW 224 0 min 0,000 mm 0,0 UV-I 0 W/m 11,2 C 11,0 C 17,7 km/h (3 Bft) 94,00 %
15.05.2017 04:56 13,7 C 19,4 C 85 % 1024,5 hPa 0,0 l/m 12,8 km/h (3 Bft) S-SW 198 0 min 0,000 mm 0,0 UV-I 0 W/m 11,2 C 10,4 C 17,7 km/h (3 Bft) 97,56 %
15.05.2017 04:58 13,7 C 19,4 C 84 % 1024,6 hPa 0,0 l/m 12,7 km/h (3 Bft) W-SW 248 0 min 0,000 mm 0,0 UV-I 0 W/m 11,0 C 10,5 C 19,3 km/h (3 Bft) 97,73 %
15.05.2017 05:00 13,7 C 19,4 C 84 % 1024,6 hPa 0,0 l/m 10,2 km/h (2 Bft) W-SW 238 0 min 0,026 mm 0,0 UV-I 0 W/m 11,0 C 11,6 C 16,1 km/h (3 Bft) 96,00 %
15.05.2017 05:02 13,7 C 19,4 C 84 % 1024,5 hPa 0,0 l/m 11,4 km/h (2 Bft) W 270 0 min 0,000 mm 0,0 UV-I 0 W/m 11,0 C 11,0 C 16,1 km/h (3 Bft) 97,56 %
15.05.2017 05:04 13,7 C 19,4 C 84 % 1024,6 hPa 0,0 l/m 12,4 km/h (3 Bft) SW 234 0 min 0,000 mm 0,0 UV-I 0 W/m 11,0 C 10,6 C 17,7 km/h (3 Bft) 98,00 %
15.05.2017 05:06 13,7 C 19,4 C 84 % 1024,6 hPa 0,0 l/m 13,7 km/h (3 Bft) W 261 0 min 0,000 mm 0,0 UV-I 0 W/m 11,0 C 10,1 C 19,3 km/h (3 Bft) 97,56 %
15.05.2017 05:08 13,7 C 19,4 C 84 % 1024,6 hPa 0,0 l/m 10,6 km/h (2 Bft) W 269 0 min 0,000 mm 0,0 UV-I 0 W/m 11,0 C 11,4 C 16,1 km/h (3 Bft) 98,11 %
15.05.2017 05:10 13,7 C 19,4 C 84 % 1024,6 hPa 0,0 l/m 9,0 km/h (2 Bft) W-SW 242 0 min 0,000 mm 0,0 UV-I 0 W/m 11,0 C 12,2 C 14,5 km/h (3 Bft) 96,00 %
15.05.2017 05:12 13,7 C 19,4 C 84 % 1024,6 hPa 0,0 l/m 9,1 km/h (2 Bft) W-SW 246 0 min 0,000 mm 0,0 UV-I 0 W/m 11,0 C 12,1 C 14,5 km/h (3 Bft) 97,37 %
15.05.2017 05:14 13,7 C 19,4 C 85 % 1024,6 hPa 0,0 l/m 12,4 km/h (3 Bft) W 259 0 min 0,000 mm 0,0 UV-I 0 W/m 11,2 C 10,6 C 17,7 km/h (3 Bft) 98,21 %
15.05.2017 05:16 13,7 C 19,4 C 85 % 1024,6 hPa 0,0 l/m 12,1 km/h (2 Bft) W-SW 243 0 min 0,000 mm 0,0 UV-I 0 W/m 11,2 C 10,7 C 19,3 km/h (3 Bft) 92,11 %
15.05.2017 05:18 13,6 C 19,4 C 85 % 1024,6 hPa 0,0 l/m 11,2 km/h (2 Bft) W-SW 256 0 min 0,000 mm 0,0 UV-I 0 W/m 11,1 C 11,0 C 16,1 km/h (3 Bft) 96,23 %
15.05.2017 05:20 13,6 C 19,4 C 85 % 1024,6 hPa 0,0 l/m 7,7 km/h (2 Bft) W-SW 244 0 min 0,000 mm 0,0 UV-I 5 W/m 11,1 C 12,8 C 12,9 km/h (3 Bft) 98,11 %
15.05.2017 05:22 13,6 C 19,4 C 85 % 1024,6 hPa 0,0 l/m 7,1 km/h (2 Bft) W-SW 253 0 min 0,000 mm 0,0 UV-I 5 W/m 11,1 C 13,2 C 11,3 km/h (2 Bft) 97,44 %
15.05.2017 05:24 13,6 C 19,4 C 85 % 1024,6 hPa 0,0 l/m 8,1 km/h (2 Bft) SW 236 0 min 0,000 mm 0,0 UV-I 5 W/m 11,1 C 12,6 C 12,9 km/h (3 Bft) 97,87 %
15.05.2017 05:26 13,6 C 19,4 C 85 % 1024,7 hPa 0,0 l/m 8,1 km/h (2 Bft) W-SW 237 0 min 0,000 mm 0,0 UV-I 5 W/m 11,1 C 12,6 C 14,5 km/h (3 Bft) 98,00 %
15.05.2017 05:28 13,6 C 19,4 C 85 % 1024,6 hPa 0,0 l/m 7,0 km/h (2 Bft) W-SW 246 0 min 0,000 mm 0,0 UV-I 5 W/m 11,1 C 13,2 C 14,5 km/h (3 Bft) 100,00 %
15.05.2017 05:30 13,6 C 19,4 C 85 % 1024,7 hPa 0,0 l/m 11,4 km/h (2 Bft) W-SW 243 0 min 0,000 mm 0,0 UV-I 5 W/m 11,1 C 10,9 C 17,7 km/h (3 Bft) 96,00 %
15.05.2017 05:32 13,6 C 19,4 C 85 % 1024,7 hPa 0,0 l/m 9,0 km/h (2 Bft) SW 236 0 min 0,000 mm 0,0 UV-I 7 W/m 11,1 C 12,1 C 12,9 km/h (3 Bft) 100,00 %
15.05.2017 05:34 13,6 C 19,4 C 85 % 1024,7 hPa 0,0 l/m 9,7 km/h (2 Bft) SW 227 0 min 0,000 mm 0,0 UV-I 7 W/m 11,1 C 11,7 C 14,5 km/h (3 Bft) 95,74 %
15.05.2017 05:36 13,6 C 19,4 C 85 % 1024,8 hPa 0,0 l/m 11,0 km/h (2 Bft) W-SW 242 0 min 0,000 mm 0,0 UV-I 7 W/m 11,1 C 11,1 C 14,5 km/h (3 Bft) 98,11 %
15.05.2017 05:38 13,6 C 19,4 C 85 % 1024,7 hPa 0,0 l/m 8,8 km/h (2 Bft) W-SW 239 0 min 0,000 mm 0,0 UV-I 9 W/m 11,1 C 12,2 C 14,5 km/h (3 Bft) 97,37 %
15.05.2017 05:40 13,6 C 19,4 C 85 % 1024,8 hPa 0,0 l/m 11,9 km/h (2 Bft) W 261 0 min 0,000 mm 0,0 UV-I 9 W/m 11,1 C 10,7 C 19,3 km/h (3 Bft) 100,00 %
15.05.2017 05:42 13,6 C 19,4 C 85 % 1024,8 hPa 0,0 l/m 10,6 km/h (2 Bft) W-SW 246 0 min 0,000 mm 0,0 UV-I 10 W/m 11,1 C 11,3 C 17,7 km/h (3 Bft) 98,21 %
15.05.2017 05:44 13,6 C 19,4 C 85 % 1024,9 hPa 0,0 l/m 7,8 km/h (2 Bft) SW 230 0 min 0,000 mm 0,0 UV-I 12 W/m 11,1 C 12,7 C 14,5 km/h (3 Bft) 100,00 %
15.05.2017 05:46 13,6 C 19,4 C 85 % 1024,9 hPa 0,0 l/m 7,6 km/h (2 Bft) SW 217 0 min 0,000 mm 0,0 UV-I 14 W/m 11,1 C 12,9 C 11,3 km/h (2 Bft) 93,18 %
15.05.2017 05:48 13,6 C 19,4 C 85 % 1024,9 hPa 0,0 l/m 8,6 km/h (2 Bft) W-SW 257 0 min 0,000 mm 0,0 UV-I 15 W/m 11,1 C 12,3 C 12,9 km/h (3 Bft) 100,00 %
15.05.2017 05:50 13,6 C 19,4 C 86 % 1025,0 hPa 0,0 l/m 9,9 km/h (2 Bft) SW 225 0 min 0,000 mm 0,0 UV-I 18 W/m 11,3 C 11,6 C 16,1 km/h (3 Bft) 100,00 %
15.05.2017 05:52 13,6 C 19,4 C 85 % 1024,9 hPa 0,0 l/m 8,6 km/h (2 Bft) S-SW 209 0 min 0,000 mm 0,0 UV-I 19 W/m 11,1 C 12,3 C 14,5 km/h (3 Bft) 100,00 %
15.05.2017 05:54 13,6 C 19,4 C 85 % 1025,0 hPa 0,0 l/m 8,3 km/h (2 Bft) W-SW 248 0 min 0,000 mm 0,0 UV-I 19 W/m 11,1 C 12,5 C 16,1 km/h (3 Bft) 100,00 %
15.05.2017 05:56 13,6 C 19,4 C 86 % 1025,0 hPa 0,0 l/m 7,2 km/h (2 Bft) W-SW 243 0 min 0,000 mm 0,0 UV-I 19 W/m 11,3 C 13,1 C 11,3 km/h (2 Bft) 100,00 %
15.05.2017 05:58 13,6 C 19,4 C 86 % 1025,1 hPa 0,0 l/m 7,9 km/h (2 Bft) S-SW 207 0 min 0,000 mm 0,0 UV-I 20 W/m 11,3 C 12,7 C 12,9 km/h (3 Bft) 100,00 %
15.05.2017 06:00 13,6 C 19,4 C 86 % 1025,1 hPa 0,0 l/m 8,6 km/h (2 Bft) S-SW 212 0 min 0,000 mm 0,0 UV-I 22 W/m 11,3 C 12,3 C 14,5 km/h (3 Bft) 100,00 %
15.05.2017 06:02 13,6 C 19,4 C 86 % 1025,2 hPa 0,0 l/m 7,6 km/h (2 Bft) S-SW 204 0 min 0,025 mm 0,0 UV-I 24 W/m 11,3 C 12,9 C 11,3 km/h (2 Bft) 100,00 %
15.05.2017 06:04 13,6 C 19,4 C 86 % 1025,2 hPa 0,0 l/m 9,8 km/h (2 Bft) SW 223 0 min 0,000 mm 0,0 UV-I 26 W/m 11,3 C 11,7 C 14,5 km/h (3 Bft) 100,00 %
15.05.2017 06:06 13,6 C 19,4 C 86 % 1025,2 hPa 0,0 l/m 7,2 km/h (2 Bft) SW 219 0 min 0,000 mm 0,0 UV-I 30 W/m 11,3 C 13,1 C 11,3 km/h (2 Bft) 100,00 %
15.05.2017 06:08 13,6 C 19,4 C 86 % 1025,3 hPa 0,0 l/m 7,5 km/h (2 Bft) SW 227 0 min 0,000 mm 0,0 UV-I 32 W/m 11,3 C 12,9 C 11,3 km/h (2 Bft) 100,00 %
15.05.2017 06:10 13,7 C 19,4 C 86 % 1025,3 hPa 0,0 l/m 6,8 km/h (2 Bft) W 279 0 min 0,000 mm 0,0 UV-I 32 W/m 11,4 C 13,5 C 12,9 km/h (3 Bft) 100,00 %
15.05.2017 06:12 13,6 C 19,4 C 86 % 1025,2 hPa 0,0 l/m 7,8 km/h (2 Bft) W-SW 249 0 min 0,000 mm 0,0 UV-I 35 W/m 11,3 C 12,7 C 12,9 km/h (3 Bft) 100,00 %
15.05.2017 06:14 13,7 C 19,4 C 85 % 1025,3 hPa 0,0 l/m 9,3 km/h (2 Bft) W 271 0 min 0,000 mm 0,0 UV-I 35 W/m 11,2 C 12,0 C 16,1 km/h (3 Bft) 100,00 %
15.05.2017 06:16 13,7 C 19,4 C 85 % 1025,3 hPa 0,0 l/m 9,6 km/h (2 Bft) W-SW 252 0 min 0,000 mm 0,0 UV-I 38 W/m 11,2 C 11,9 C 14,5 km/h (3 Bft) 100,00 %
15.05.2017 06:18 13,7 C 19,4 C 85 % 1025,3 hPa 0,0 l/m 6,4 km/h (2 Bft) W-SW 248 0 min 0,000 mm 0,0 UV-I 39 W/m 11,2 C 13,7 C 11,3 km/h (2 Bft) 100,00 %
15.05.2017 06:20 13,7 C 19,4 C 85 % 1025,4 hPa 0,0 l/m 9,1 km/h (2 Bft) W-SW 250 0 min 0,000 mm 0,0 UV-I 41 W/m 11,2 C 12,1 C 12,9 km/h (3 Bft) 98,11 %
15.05.2017 06:22 13,7 C 19,4 C 85 % 1025,4 hPa 0,0 l/m 8,8 km/h (2 Bft) SW 234 0 min 0,000 mm 0,0 UV-I 47 W/m 11,2 C 12,3 C 14,5 km/h (3 Bft) 100,00 %
15.05.2017 06:24 13,7 C 19,4 C 85 % 1025,4 hPa 0,0 l/m 6,7 km/h (2 Bft) W-SW 248 0 min 0,000 mm 0,0 UV-I 54 W/m 11,2 C 13,5 C 11,3 km/h (2 Bft) 100,00 %
15.05.2017 06:26 13,7 C 19,4 C 85 % 1025,4 hPa 0,0 l/m 7,1 km/h (2 Bft) SW 223 0 min 0,000 mm 0,0 UV-I 59 W/m 11,2 C 13,3 C 9,7 km/h (2 Bft) 100,00 %
15.05.2017 06:28 13,7 C 19,4 C 85 % 1025,5 hPa 0,0 l/m 6,9 km/h (2 Bft) SW 219 0 min 0,000 mm 0,0 UV-I 63 W/m 11,2 C 13,4 C 9,7 km/h (2 Bft) 100,00 %
15.05.2017 06:30 13,8 C 19,4 C 85 % 1025,5 hPa 0,0 l/m 7,6 km/h (2 Bft) W-SW 237 0 min 0,000 mm 0,0 UV-I 65 W/m 11,3 C 13,1 C 14,5 km/h (3 Bft) 98,11 %
15.05.2017 06:32 13,8 C 19,4 C 85 % 1025,5 hPa 0,0 l/m 5,9 km/h (2 Bft) SW 229 0 min 0,000 mm 0,0 UV-I 63 W/m 11,3 C 13,8 C 11,3 km/h (2 Bft) 97,37 %
15.05.2017 06:34 13,8 C 19,4 C 85 % 1025,5 hPa 0,0 l/m 7,3 km/h (2 Bft) SW 229 0 min 0,000 mm 0,0 UV-I 58 W/m 11,3 C 13,3 C 12,9 km/h (3 Bft) 96,43 %
15.05.2017 06:36 13,8 C 19,4 C 84 % 1025,5 hPa 0,0 l/m 8,6 km/h (2 Bft) W-SW 237 0 min 0,000 mm 0,0 UV-I 54 W/m 11,1 C 12,5 C 11,3 km/h (2 Bft) 100,00 %
15.05.2017 06:38 13,8 C 19,4 C 84 % 1025,6 hPa 0,0 l/m 7,8 km/h (2 Bft) SW 219 0 min 0,000 mm 0,0 UV-I 53 W/m 11,1 C 13,0 C 14,5 km/h (3 Bft) 100,00 %
15.05.2017 06:40 13,8 C 19,4 C 85 % 1025,5 hPa 0,0 l/m 6,4 km/h (2 Bft) SW 236 0 min 0,000 mm 0,0 UV-I 53 W/m 11,3 C 13,8 C 11,3 km/h (2 Bft) 97,22 %
15.05.2017 06:42 13,8 C 19,4 C 85 % 1025,6 hPa 0,0 l/m 5,6 km/h (1 Bft) W-SW 246 0 min 0,000 mm 0,0 UV-I 48 W/m 11,3 C 13,8 C 11,3 km/h (2 Bft) 96,30 %
15.05.2017 06:44 13,8 C 19,4 C 85 % 1025,7 hPa 0,0 l/m 6,4 km/h (2 Bft) SW 230 0 min 0,000 mm 0,0 UV-I 49 W/m 11,3 C 13,8 C 9,7 km/h (2 Bft) 94,55 %
15.05.2017 06:46 13,8 C 19,4 C 85 % 1025,6 hPa 0,0 l/m 6,1 km/h (2 Bft) SW 214 0 min 0,000 mm 0,0 UV-I 47 W/m 11,3 C 13,8 C 9,7 km/h (2 Bft) 100,00 %
15.05.2017 06:48 13,8 C 19,4 C 84 % 1025,7 hPa 0,0 l/m 5,9 km/h (2 Bft) SW 236 0 min 0,000 mm 0,0 UV-I 46 W/m 11,1 C 13,8 C 8,0 km/h (2 Bft) 97,87 %
15.05.2017 06:50 13,8 C 19,4 C 85 % 1025,7 hPa 0,0 l/m 5,1 km/h (1 Bft) W-SW 243 0 min 0,000 mm 0,0 UV-I 47 W/m 11,3 C 13,8 C 8,0 km/h (2 Bft) 97,87 %
15.05.2017 06:52 13,8 C 19,4 C 84 % 1025,8 hPa 0,0 l/m 6,5 km/h (2 Bft) W 268 0 min 0,000 mm 0,0 UV-I 51 W/m 11,1 C 13,8 C 11,3 km/h (2 Bft) 95,74 %
15.05.2017 06:54 13,8 C 19,4 C 85 % 1025,8 hPa 0,0 l/m 6,6 km/h (2 Bft) W-SW 253 0 min 0,000 mm 0,0 UV-I 55 W/m 11,3 C 13,7 C 11,3 km/h (2 Bft) 91,49 %
15.05.2017 06:56 13,8 C 19,4 C 85 % 1025,8 hPa 0,0 l/m 4,6 km/h (1 Bft) W-SW 240 0 min 0,000 mm 0,0 UV-I 56 W/m 11,3 C 13,8 C 6,4 km/h (2 Bft) 96,00 %
15.05.2017 06:58 13,8 C 19,4 C 84 % 1025,8 hPa 0,0 l/m 6,5 km/h (2 Bft) W-SW 247 0 min 0,000 mm 0,0 UV-I 61 W/m 11,1 C 13,8 C 12,9 km/h (3 Bft) 97,37 %
15.05.2017 07:00 13,8 C 19,4 C 85 % 1025,8 hPa 0,0 l/m 7,3 km/h (2 Bft) W-SW 246 0 min 0,051 mm 0,0 UV-I 65 W/m 11,3 C 13,3 C 14,5 km/h (3 Bft) 96,00 %
15.05.2017 07:02 13,8 C 19,4 C 85 % 1025,8 hPa 0,0 l/m 8,8 km/h (2 Bft) W 267 0 min 0,000 mm 0,0 UV-I 68 W/m 11,3 C 12,4 C 12,9 km/h (3 Bft) 94,34 %
15.05.2017 07:04 13,8 C 19,4 C 84 % 1025,8 hPa 0,0 l/m 7,0 km/h (2 Bft) W-SW 240 0 min 0,000 mm 0,0 UV-I 72 W/m 11,1 C 13,4 C 11,3 km/h (2 Bft) 92,11 %
15.05.2017 07:06 13,8 C 19,4 C 85 % 1025,8 hPa 0,0 l/m 9,8 km/h (2 Bft) W-SW 247 0 min 0,000 mm 0,0 UV-I 76 W/m 11,3 C 11,9 C 16,1 km/h (3 Bft) 98,00 %
15.05.2017 07:08 13,8 C 19,4 C 84 % 1025,9 hPa 0,0 l/m 10,6 km/h (2 Bft) W 269 0 min 0,000 mm 0,0 UV-I 79 W/m 11,1 C 11,5 C 16,1 km/h (3 Bft) 96,00 %
15.05.2017 07:10 13,9 C 19,4 C 84 % 1025,9 hPa 0,0 l/m 11,4 km/h (2 Bft) W-SW 255 0 min 0,000 mm 0,0 UV-I 83 W/m 11,2 C 11,3 C 14,5 km/h (3 Bft) 93,18 %
15.05.2017 07:12 13,9 C 19,4 C 84 % 1025,9 hPa 0,0 l/m 9,4 km/h (2 Bft) W-SW 242 0 min 0,000 mm 0,0 UV-I 86 W/m 11,2 C 12,2 C 14,5 km/h (3 Bft) 90,24 %
15.05.2017 07:14 13,9 C 19,4 C 84 % 1025,9 hPa 0,0 l/m 10,3 km/h (2 Bft) W 265 0 min 0,000 mm 0,0 UV-I 86 W/m 11,2 C 11,8 C 17,7 km/h (3 Bft) 94,64 %
15.05.2017 07:16 13,9 C 19,4 C 84 % 1025,9 hPa 0,0 l/m 10,8 km/h (2 Bft) W-SW 240 0 min 0,000 mm 0,0 UV-I 85 W/m 11,2 C 11,5 C 16,1 km/h (3 Bft) 93,33 %
15.05.2017 07:18 13,9 C 19,4 C 84 % 1026,0 hPa 0,0 l/m 8,3 km/h (2 Bft) W-SW 247 0 min 0,000 mm 0,0 UV-I 86 W/m 11,2 C 12,8 C 12,9 km/h (3 Bft) 90,62 %
15.05.2017 07:20 13,9 C 19,4 C 84 % 1026,0 hPa 0,0 l/m 11,9 km/h (2 Bft) W 270 0 min 0,000 mm 0,0 UV-I 81 W/m 11,2 C 11,0 C 17,7 km/h (3 Bft) 94,44 %
15.05.2017 07:22 13,9 C 19,4 C 84 % 1026,1 hPa 0,0 l/m 9,6 km/h (2 Bft) W-SW 237 0 min 0,000 mm 0,0 UV-I 74 W/m 11,2 C 12,1 C 12,9 km/h (3 Bft) 98,15 %
15.05.2017 07:24 13,9 C 19,4 C 84 % 1026,1 hPa 0,0 l/m 9,5 km/h (2 Bft) W-SW 254 0 min 0,000 mm 0,0 UV-I 74 W/m 11,2 C 12,1 C 12,9 km/h (3 Bft) 94,00 %
15.05.2017 07:26 13,9 C 19,4 C 84 % 1026,1 hPa 0,0 l/m 10,3 km/h (2 Bft) S-SW 205 0 min 0,000 mm 0,0 UV-I 75 W/m 11,2 C 11,8 C 17,7 km/h (3 Bft) 100,00 %
15.05.2017 07:28 13,9 C 19,4 C 84 % 1026,1 hPa 0,0 l/m 9,2 km/h (2 Bft) SW 234 0 min 0,000 mm 0,0 UV-I 73 W/m 11,2 C 12,3 C 14,5 km/h (3 Bft) 100,00 %
15.05.2017 07:30 13,9 C 19,4 C 85 % 1026,1 hPa 0,0 l/m 7,9 km/h (2 Bft) SW 225 0 min 0,000 mm 0,0 UV-I 72 W/m 11,4 C 13,0 C 14,5 km/h (3 Bft) 97,37 %
15.05.2017 07:32 13,9 C 19,4 C 85 % 1026,2 hPa 0,0 l/m 9,3 km/h (2 Bft) SW 236 0 min 0,000 mm 0,0 UV-I 72 W/m 11,4 C 12,2 C 16,1 km/h (3 Bft) 98,00 %
15.05.2017 07:34 13,9 C 19,4 C 85 % 1026,2 hPa 0,0 l/m 8,3 km/h (2 Bft) SW 234 0 min 0,000 mm 0,0 UV-I 74 W/m 11,4 C 12,8 C 14,5 km/h (3 Bft) 95,74 %
15.05.2017 07:36 13,9 C 19,4 C 85 % 1026,2 hPa 0,0 l/m 7,6 km/h (2 Bft) SW 236 0 min 0,000 mm 0,0 UV-I 83 W/m 11,4 C 13,2 C 12,9 km/h (3 Bft) 95,45 %
15.05.2017 07:38 13,9 C 19,4 C 85 % 1026,2 hPa 0,0 l/m 9,1 km/h (2 Bft) S-SW 207 0 min 0,000 mm 0,0 UV-I 95 W/m 11,4 C 12,4 C 14,5 km/h (3 Bft) 96,00 %
15.05.2017 07:40 13,9 C 19,4 C 84 % 1026,2 hPa 0,0 l/m 8,5 km/h (2 Bft) W-SW 255 0 min 0,000 mm 0,0 UV-I 103 W/m 11,2 C 12,7 C 14,5 km/h (3 Bft) 97,56 %
15.05.2017 07:42 13,9 C 19,4 C 85 % 1026,2 hPa 0,0 l/m 9,8 km/h (2 Bft) W-SW 246 0 min 0,000 mm 0,0 UV-I 117 W/m 11,4 C 12,0 C 14,5 km/h (3 Bft) 94,00 %
15.05.2017 07:44 14,0 C 19,4 C 85 % 1026,3 hPa 0,0 l/m 8,2 km/h (2 Bft) W-SW 257 0 min 0,000 mm 0,0 UV-I 125 W/m 11,5 C 12,9 C 12,9 km/h (3 Bft) 95,12 %
15.05.2017 07:46 14,1 C 19,4 C 84 % 1026,3 hPa 0,0 l/m 11,0 km/h (2 Bft) SW 225 0 min 0,000 mm 0,0 UV-I 128 W/m 11,4 C 11,7 C 16,1 km/h (3 Bft) 98,21 %
15.05.2017 07:48 14,1 C 19,4 C 84 % 1026,3 hPa 0,0 l/m 9,9 km/h (2 Bft) W 265 0 min 0,000 mm 0,0 UV-I 127 W/m 11,4 C 12,2 C 12,9 km/h (3 Bft) 97,73 %
15.05.2017 07:50 14,1 C 19,4 C 84 % 1026,3 hPa 0,0 l/m 7,8 km/h (2 Bft) W-SW 250 0 min 0,000 mm 0,0 UV-I 128 W/m 11,4 C 13,3 C 11,3 km/h (2 Bft) 98,00 %
15.05.2017 07:52 14,2 C 19,4 C 84 % 1026,3 hPa 0,0 l/m 9,5 km/h (2 Bft) W 262 0 min 0,000 mm 0,1 UV-I 132 W/m 11,5 C 12,5 C 14,5 km/h (3 Bft) 98,00 %
15.05.2017 07:54 14,2 C 19,4 C 84 % 1026,3 hPa 0,0 l/m 8,1 km/h (2 Bft) W-SW 256 0 min 0,000 mm 0,5 UV-I 138 W/m 11,5 C 13,2 C 12,9 km/h (3 Bft) 95,74 %
15.05.2017 07:56 14,2 C 19,4 C 84 % 1026,3 hPa 0,0 l/m 9,2 km/h (2 Bft) W-SW 238 0 min 0,000 mm 0,5 UV-I 144 W/m 11,5 C 12,6 C 16,1 km/h (3 Bft) 100,00 %
15.05.2017 07:58 14,2 C 19,4 C 84 % 1026,3 hPa 0,0 l/m 13,5 km/h (3 Bft) SW 229 0 min 0,000 mm 0,5 UV-I 152 W/m 11,5 C 10,8 C 17,7 km/h (3 Bft) 96,00 %
15.05.2017 08:00 14,2 C 19,4 C 83 % 1026,3 hPa 0,0 l/m 9,9 km/h (2 Bft) W-SW 246 0 min 0,076 mm 0,6 UV-I 164 W/m 11,4 C 12,3 C 16,1 km/h (3 Bft) 97,62 %
15.05.2017 08:02 14,2 C 19,4 C 84 % 1026,3 hPa 0,0 l/m 12,2 km/h (2 Bft) W 271 0 min 0,000 mm 0,6 UV-I 168 W/m 11,5 C 11,3 C 17,7 km/h (3 Bft) 96,23 %
15.05.2017 08:04 14,3 C 19,4 C 84 % 1026,3 hPa 0,0 l/m 11,8 km/h (2 Bft) W 264 0 min 0,000 mm 0,6 UV-I 169 W/m 11,6 C 11,5 C 16,1 km/h (3 Bft) 95,12 %
15.05.2017 08:06 14,3 C 19,4 C 83 % 1026,4 hPa 0,0 l/m 11,8 km/h (2 Bft) W 262 0 min 0,000 mm 0,7 UV-I 176 W/m 11,5 C 11,5 C 16,1 km/h (3 Bft) 95,74 %
15.05.2017 08:08 14,4 C 19,4 C 84 % 1026,4 hPa 0,0 l/m 9,6 km/h (2 Bft) W 275 0 min 0,000 mm 0,7 UV-I 194 W/m 11,7 C 12,6 C 14,5 km/h (3 Bft) 98,00 %
15.05.2017 08:10 14,4 C 19,4 C 83 % 1026,4 hPa 0,0 l/m 12,5 km/h (3 Bft) W-SW 244 0 min 0,000 mm 0,7 UV-I 233 W/m 11,5 C 11,4 C 19,3 km/h (3 Bft) 92,68 %
15.05.2017 08:12 14,5 C 19,4 C 83 % 1026,4 hPa 0,0 l/m 13,0 km/h (3 Bft) W-SW 250 2 min 0,000 mm 0,8 UV-I 285 W/m 11,6 C 11,3 C 16,1 km/h (3 Bft) 96,23 %
15.05.2017 08:14 14,7 C 19,4 C 83 % 1026,4 hPa 0,0 l/m 10,7 km/h (2 Bft) W 277 2 min 0,000 mm 0,8 UV-I 436 W/m 11,8 C 12,5 C 14,5 km/h (3 Bft) 97,73 %
15.05.2017 08:16 14,8 C 19,4 C 83 % 1026,4 hPa 0,0 l/m 8,4 km/h (2 Bft) S-SW 194 2 min 0,000 mm 0,8 UV-I 260 W/m 11,9 C 13,7 C 12,9 km/h (3 Bft) 94,64 %
15.05.2017 08:18 14,8 C 19,4 C 83 % 1026,4 hPa 0,0 l/m 9,6 km/h (2 Bft) SW 236 0 min 0,000 mm 0,8 UV-I 224 W/m 11,9 C 13,1 C 16,1 km/h (3 Bft) 100,00 %
15.05.2017 08:20 14,8 C 19,4 C 82 % 1026,5 hPa 0,0 l/m 9,7 km/h (2 Bft) W-SW 251 2 min 0,000 mm 0,8 UV-I 263 W/m 11,8 C 13,0 C 14,5 km/h (3 Bft) 94,74 %
15.05.2017 08:22 14,8 C 19,4 C 82 % 1026,5 hPa 0,0 l/m 12,7 km/h (3 Bft) SW 219 2 min 0,000 mm 0,9 UV-I 264 W/m 11,8 C 11,8 C 19,3 km/h (3 Bft) 92,86 %
15.05.2017 08:24 14,8 C 19,4 C 82 % 1026,5 hPa 0,0 l/m 13,2 km/h (3 Bft) W-SW 254 2 min 0,000 mm 0,9 UV-I 318 W/m 11,8 C 11,6 C 19,3 km/h (3 Bft) 95,45 %
15.05.2017 08:26 14,9 C 19,4 C 81 % 1026,5 hPa 0,0 l/m 13,7 km/h (3 Bft) W-SW 253 2 min 0,000 mm 1,0 UV-I 327 W/m 11,7 C 11,5 C 19,3 km/h (3 Bft) 96,43 %
15.05.2017 08:28 14,9 C 19,4 C 81 % 1026,5 hPa 0,0 l/m 9,6 km/h (2 Bft) W-SW 252 2 min 0,000 mm 1,0 UV-I 353 W/m 11,7 C 13,2 C 16,1 km/h (3 Bft) 95,12 %
15.05.2017 08:30 14,9 C 19,4 C 81 % 1026,5 hPa 0,0 l/m 12,7 km/h (3 Bft) W 271 2 min 0,000 mm 1,0 UV-I 332 W/m 11,7 C 11,9 C 19,3 km/h (3 Bft) 96,00 %
15.05.2017 08:32 14,9 C 19,4 C 81 % 1026,6 hPa 0,0 l/m 7,9 km/h (2 Bft) W-SW 250 2 min 0,000 mm 1,0 UV-I 274 W/m 11,7 C 14,1 C 12,9 km/h (3 Bft) 92,31 %
15.05.2017 08:34 14,9 C 19,4 C 81 % 1026,6 hPa 0,0 l/m 6,4 km/h (2 Bft) W 263 2 min 0,000 mm 1,0 UV-I 311 W/m 11,7 C 14,9 C 11,3 km/h (2 Bft) 96,72 %
15.05.2017 08:36 15,0 C 19,4 C 82 % 1026,6 hPa 0,0 l/m 9,1 km/h (2 Bft) W 273 0 min 0,000 mm 1,0 UV-I 269 W/m 12,0 C 13,5 C 12,9 km/h (3 Bft) 95,45 %
15.05.2017 08:38 15,0 C 19,4 C 82 % 1026,6 hPa 0,0 l/m 6,8 km/h (2 Bft) W-SW 258 0 min 0,000 mm 1,0 UV-I 259 W/m 12,0 C 14,8 C 14,5 km/h (3 Bft) 97,78 %
15.05.2017 08:40 15,0 C 19,4 C 81 % 1026,6 hPa 0,0 l/m 10,2 km/h (2 Bft) W-SW 247 0 min 0,000 mm 1,0 UV-I 239 W/m 11,8 C 13,0 C 14,5 km/h (3 Bft) 97,56 %
15.05.2017 08:42 15,0 C 19,4 C 81 % 1026,7 hPa 0,0 l/m 14,7 km/h (3 Bft) W-SW 237 0 min 0,000 mm 0,9 UV-I 222 W/m 11,8 C 11,3 C 22,5 km/h (4 Bft) 100,00 %
15.05.2017 08:44 15,0 C 19,4 C 81 % 1026,7 hPa 0,0 l/m 9,4 km/h (2 Bft) W-SW 256 0 min 0,000 mm 0,9 UV-I 214 W/m 11,8 C 13,4 C 17,7 km/h (3 Bft) 100,00 %
15.05.2017 08:46 14,9 C 19,4 C 81 % 1026,7 hPa 0,0 l/m 5,1 km/h (1 Bft) W-SW 255 0 min 0,000 mm 1,0 UV-I 239 W/m 11,7 C 14,9 C 9,7 km/h (2 Bft) 92,45 %
15.05.2017 08:48 15,0 C 19,4 C 82 % 1026,7 hPa 0,0 l/m 9,7 km/h (2 Bft) W-SW 248 0 min 0,000 mm 1,0 UV-I 238 W/m 12,0 C 13,3 C 17,7 km/h (3 Bft) 92,11 %
15.05.2017 08:50 15,0 C 19,4 C 81 % 1026,7 hPa 0,0 l/m 14,0 km/h (3 Bft) W-NW 290 0 min 0,000 mm 1,0 UV-I 252 W/m 11,8 C 11,5 C 20,9 km/h (4 Bft) 94,64 %
15.05.2017 08:52 15,1 C 19,4 C 82 % 1026,7 hPa 0,0 l/m 10,1 km/h (2 Bft) W-NW 296 2 min 0,000 mm 1,1 UV-I 293 W/m 12,0 C 13,2 C 16,1 km/h (3 Bft) 94,74 %
15.05.2017 08:54 15,1 C 19,4 C 81 % 1026,7 hPa 0,0 l/m 7,2 km/h (2 Bft) SW 234 0 min 0,000 mm 1,1 UV-I 292 W/m 11,9 C 14,6 C 12,9 km/h (3 Bft) 98,21 %
15.05.2017 08:56 15,2 C 19,4 C 81 % 1026,7 hPa 0,0 l/m 10,3 km/h (2 Bft) W 262 0 min 0,000 mm 1,1 UV-I 278 W/m 12,0 C 13,2 C 17,7 km/h (3 Bft) 97,56 %
15.05.2017 08:58 15,2 C 19,4 C 81 % 1026,7 hPa 0,0 l/m 9,1 km/h (2 Bft) W-SW 242 0 min 0,000 mm 1,1 UV-I 256 W/m 12,0 C 13,8 C 14,5 km/h (3 Bft) 98,00 %
15.05.2017 09:00 15,2 C 19,4 C 81 % 1026,7 hPa 0,0 l/m 8,1 km/h (2 Bft) W-NW 287 0 min 0,153 mm 1,1 UV-I 260 W/m 12,0 C 14,3 C 16,1 km/h (3 Bft) 95,74 %
15.05.2017 09:02 15,2 C 19,4 C 81 % 1026,7 hPa 0,0 l/m 7,8 km/h (2 Bft) W-SW 250 0 min 0,000 mm 1,0 UV-I 227 W/m 12,0 C 14,4 C 12,9 km/h (3 Bft) 96,00 %
15.05.2017 09:04 15,2 C 19,4 C 81 % 1026,8 hPa 0,0 l/m 8,6 km/h (2 Bft) W 259 0 min 0,000 mm 1,1 UV-I 241 W/m 12,0 C 14,0 C 12,9 km/h (3 Bft) 97,87 %
15.05.2017 09:06 15,2 C 19,4 C 81 % 1026,9 hPa 0,0 l/m 6,4 km/h (2 Bft) W-NW 284 0 min 0,000 mm 1,2 UV-I 279 W/m 12,0 C 15,2 C 12,9 km/h (3 Bft) 97,87 %
15.05.2017 09:08 15,3 C 19,4 C 81 % 1026,8 hPa 0,0 l/m 8,4 km/h (2 Bft) SW 227 2 min 0,000 mm 1,3 UV-I 317 W/m 12,1 C 14,2 C 16,1 km/h (3 Bft) 94,74 %
15.05.2017 09:10 15,3 C 19,4 C 80 % 1026,9 hPa 0,0 l/m 6,5 km/h (2 Bft) W-SW 242 0 min 0,000 mm 1,3 UV-I 281 W/m 11,9 C 15,3 C 11,3 km/h (2 Bft) 98,21 %
15.05.2017 09:12 15,3 C 19,4 C 80 % 1026,8 hPa 0,0 l/m 10,0 km/h (2 Bft) SW 236 2 min 0,000 mm 1,4 UV-I 352 W/m 11,9 C 13,4 C 14,5 km/h (3 Bft) 94,74 %
15.05.2017 09:14 15,3 C 19,4 C 80 % 1026,8 hPa 0,0 l/m 4,0 km/h (1 Bft) W 270 2 min 0,000 mm 1,3 UV-I 349 W/m 11,9 C 15,3 C 6,4 km/h (2 Bft) 94,34 %
15.05.2017 09:16 15,4 C 19,4 C 80 % 1026,9 hPa 0,0 l/m 9,7 km/h (2 Bft) W-NW 294 0 min 0,000 mm 1,4 UV-I 299 W/m 12,0 C 13,7 C 17,7 km/h (3 Bft) 96,00 %
15.05.2017 09:18 15,4 C 19,4 C 80 % 1026,9 hPa 0,0 l/m 8,5 km/h (2 Bft) W-NW 288 0 min 0,000 mm 1,5 UV-I 317 W/m 12,0 C 14,3 C 12,9 km/h (3 Bft) 94,87 %
15.05.2017 09:20 15,4 C 19,4 C 80 % 1026,9 hPa 0,0 l/m 7,2 km/h (2 Bft) W-NW 296 0 min 0,000 mm 1,5 UV-I 319 W/m 12,0 C 15,0 C 11,3 km/h (2 Bft) 97,87 %
15.05.2017 09:22 15,6 C 19,4 C 81 % 1026,9 hPa 0,0 l/m 5,5 km/h (1 Bft) SW 232 2 min 0,000 mm 1,9 UV-I 349 W/m 12,3 C 15,6 C 11,3 km/h (2 Bft) 95,12 %
15.05.2017 09:24 15,8 C 19,4 C 79 % 1026,9 hPa 0,0 l/m 9,3 km/h (2 Bft) W 267 2 min 0,000 mm 2,0 UV-I 636 W/m 12,2 C 14,3 C 12,9 km/h (3 Bft) 98,33 %
15.05.2017 09:26 15,9 C 19,4 C 79 % 1026,9 hPa 0,0 l/m 6,3 km/h (2 Bft) W 265 2 min 0,000 mm 1,9 UV-I 638 W/m 12,3 C 15,9 C 14,5 km/h (3 Bft) 100,00 %
15.05.2017 09:28 16,1 C 19,4 C 78 % 1026,9 hPa 0,0 l/m 8,8 km/h (2 Bft) SW 224 2 min 0,000 mm 1,9 UV-I 542 W/m 12,3 C 14,9 C 12,9 km/h (3 Bft) 100,00 %
15.05.2017 09:30 16,2 C 19,4 C 77 % 1026,9 hPa 0,0 l/m 7,8 km/h (2 Bft) W-NW 299 2 min 0,000 mm 2,1 UV-I 488 W/m 12,2 C 15,5 C 12,9 km/h (3 Bft) 100,00 %
15.05.2017 09:32 16,3 C 19,4 C 78 % 1026,9 hPa 0,0 l/m 5,1 km/h (1 Bft) W-SW 238 2 min 0,000 mm 1,7 UV-I 636 W/m 12,5 C 16,3 C 8,0 km/h (2 Bft) 97,87 %
15.05.2017 09:34 16,3 C 19,4 C 77 % 1026,9 hPa 0,0 l/m 6,9 km/h (2 Bft) W 272 0 min 0,000 mm 1,4 UV-I 312 W/m 12,3 C 16,0 C 16,1 km/h (3 Bft) 98,11 %
15.05.2017 09:36 16,3 C 19,4 C 78 % 1026,9 hPa 0,0 l/m 7,3 km/h (2 Bft) SW 217 0 min 0,000 mm 1,5 UV-I 329 W/m 12,5 C 15,8 C 11,3 km/h (2 Bft) 100,00 %
15.05.2017 09:38 16,2 C 19,4 C 79 % 1026,9 hPa 0,0 l/m 9,0 km/h (2 Bft) W-SW 244 2 min 0,000 mm 1,7 UV-I 352 W/m 12,6 C 14,9 C 12,9 km/h (3 Bft) 100,00 %
15.05.2017 09:40 16,2 C 19,4 C 78 % 1026,9 hPa 0,0 l/m 9,8 km/h (2 Bft) W-SW 250 0 min 0,000 mm 1,5 UV-I 332 W/m 12,4 C 14,5 C 14,5 km/h (3 Bft) 100,00 %
15.05.2017 09:42 16,1 C 19,4 C 79 % 1026,9 hPa 0,0 l/m 9,2 km/h (2 Bft) W 264 0 min 0,000 mm 1,5 UV-I 321 W/m 12,5 C 14,7 C 14,5 km/h (3 Bft) 100,00 %
15.05.2017 09:44 16,1 C 19,4 C 79 % 1026,9 hPa 0,0 l/m 4,5 km/h (1 Bft) SW 217 0 min 0,000 mm 1,7 UV-I 338 W/m 12,5 C 16,1 C 11,3 km/h (2 Bft) 98,00 %
15.05.2017 09:46 16,2 C 19,4 C 78 % 1026,9 hPa 0,0 l/m 6,0 km/h (2 Bft) NW 321 0 min 0,000 mm 1,6 UV-I 316 W/m 12,4 C 16,2 C 12,9 km/h (3 Bft) 97,87 %
15.05.2017 09:48 16,2 C 19,4 C 78 % 1026,9 hPa 0,0 l/m 8,7 km/h (2 Bft) W-SW 240 0 min 0,000 mm 1,7 UV-I 295 W/m 12,4 C 15,0 C 16,1 km/h (3 Bft) 96,23 %
15.05.2017 09:50 16,3 C 19,4 C 77 % 1027,0 hPa 0,0 l/m 7,4 km/h (2 Bft) W 273 2 min 0,000 mm 1,9 UV-I 401 W/m 12,3 C 15,8 C 20,9 km/h (4 Bft) 94,74 %
15.05.2017 09:52 16,2 C 19,4 C 76 % 1026,9 hPa 0,0 l/m 9,5 km/h (2 Bft) W-SW 244 2 min 0,000 mm 2,0 UV-I 427 W/m 12,0 C 14,7 C 19,3 km/h (3 Bft) 98,21 %
15.05.2017 09:54 16,2 C 19,4 C 77 % 1026,9 hPa 0,0 l/m 7,6 km/h (2 Bft) W-SW 256 2 min 0,000 mm 2,0 UV-I 425 W/m 12,2 C 15,6 C 14,5 km/h (3 Bft) 90,24 %
15.05.2017 09:56 16,3 C 19,4 C 77 % 1026,9 hPa 0,0 l/m 10,2 km/h (2 Bft) W-NW 292 2 min 0,000 mm 2,0 UV-I 384 W/m 12,3 C 14,5 C 16,1 km/h (3 Bft) 97,62 %
15.05.2017 09:58 16,3 C 19,4 C 76 % 1026,9 hPa 0,0 l/m 5,3 km/h (1 Bft) NW 325 2 min 0,000 mm 2,2 UV-I 376 W/m 12,1 C 16,3 C 11,3 km/h (2 Bft) 96,55 %
15.05.2017 10:00 16,4 C 19,4 C 77 % 1026,9 hPa 0,0 l/m 3,1 km/h (1 Bft) S-SW 200 2 min 0,000 mm 2,5 UV-I 425 W/m 12,4 C 16,4 C 6,4 km/h (2 Bft) 97,44 %
15.05.2017 10:02 16,7 C 19,4 C 77 % 1027,0 hPa 0,0 l/m 6,2 km/h (2 Bft) NW 323 2 min 0,228 mm 2,5 UV-I 425 W/m 12,6 C 16,7 C 12,9 km/h (3 Bft) 97,73 %
15.05.2017 10:04 16,8 C 19,4 C 74 % 1027,0 hPa 0,0 l/m 6,7 km/h (2 Bft) W-NW 289 2 min 0,000 mm 2,9 UV-I 602 W/m 12,1 C 16,7 C 14,5 km/h (3 Bft) 100,00 %
15.05.2017 10:06 16,8 C 19,4 C 74 % 1027,0 hPa 0,0 l/m 5,2 km/h (1 Bft) W 264 2 min 0,000 mm 3,0 UV-I 716 W/m 12,1 C 16,8 C 9,7 km/h (2 Bft) 97,87 %
15.05.2017 10:08 16,9 C 19,4 C 75 % 1026,9 hPa 0,0 l/m 7,6 km/h (2 Bft) W 260 2 min 0,000 mm 3,0 UV-I 759 W/m 12,4 C 16,3 C 12,9 km/h (3 Bft) 97,56 %
15.05.2017 10:10 16,9 C 19,4 C 74 % 1027,0 hPa 0,0 l/m 3,0 km/h (1 Bft) SW 221 2 min 0,000 mm 3,0 UV-I 588 W/m 12,2 C 16,9 C 4,8 km/h (1 Bft) 96,00 %
15.05.2017 10:12 16,9 C 19,4 C 74 % 1026,9 hPa 0,0 l/m 6,8 km/h (2 Bft) W 259 2 min 0,000 mm 2,9 UV-I 457 W/m 12,2 C 16,7 C 16,1 km/h (3 Bft) 100,00 %
15.05.2017 10:14 16,9 C 19,4 C 75 % 1026,9 hPa 0,0 l/m 3,4 km/h (1 Bft) S-SW 200 2 min 0,000 mm 3,2 UV-I 396 W/m 12,4 C 16,9 C 11,3 km/h (2 Bft) 97,87 %
15.05.2017 10:16 17,2 C 19,4 C 75 % 1026,9 hPa 0,0 l/m 4,9 km/h (1 Bft) W 261 2 min 0,000 mm 3,0 UV-I 396 W/m 12,7 C 17,2 C 11,3 km/h (2 Bft) 100,00 %
15.05.2017 10:18 17,3 C 20,0 C 73 % 1027,0 hPa 0,0 l/m 7,1 km/h (2 Bft) SW 231 2 min 0,000 mm 3,3 UV-I 515 W/m 12,4 C 17,0 C 12,9 km/h (3 Bft) 98,00 %
15.05.2017 10:20 17,3 C 20,0 C 73 % 1027,0 hPa 0,0 l/m 5,1 km/h (1 Bft) W 262 2 min 0,000 mm 3,4 UV-I 758 W/m 12,4 C 17,3 C 9,7 km/h (2 Bft) 97,37 %
15.05.2017 10:22 17,3 C 20,0 C 74 % 1027,1 hPa 0,0 l/m 11,2 km/h (2 Bft) SW 229 2 min 0,000 mm 3,3 UV-I 718 W/m 12,6 C 15,2 C 16,1 km/h (3 Bft) 96,43 %
15.05.2017 10:24 17,3 C 19,4 C 73 % 1027,1 hPa 0,0 l/m 6,5 km/h (2 Bft) W 264 2 min 0,000 mm 3,1 UV-I 725 W/m 12,4 C 17,3 C 9,7 km/h (2 Bft) 100,00 %
15.05.2017 10:26 17,3 C 19,4 C 74 % 1027,1 hPa 0,0 l/m 6,4 km/h (2 Bft) W-SW 249 2 min 0,000 mm 2,6 UV-I 556 W/m 12,6 C 17,3 C 11,3 km/h (2 Bft) 98,21 %
15.05.2017 10:28 17,3 C 19,4 C 74 % 1027,1 hPa 0,0 l/m 10,2 km/h (2 Bft) SW 230 2 min 0,000 mm 2,7 UV-I 422 W/m 12,6 C 15,6 C 17,7 km/h (3 Bft) 97,56 %
15.05.2017 10:30 17,3 C 19,4 C 73 % 1027,1 hPa 0,0 l/m 11,0 km/h (2 Bft) W-SW 246 0 min 0,000 mm 2,3 UV-I 361 W/m 12,4 C 15,3 C 16,1 km/h (3 Bft) 98,00 %
15.05.2017 10:32 17,2 C 20,0 C 73 % 1027,2 hPa 0,0 l/m 11,8 km/h (2 Bft) W-SW 257 2 min 0,000 mm 3,0 UV-I 435 W/m 12,3 C 14,9 C 20,9 km/h (4 Bft) 97,87 %
15.05.2017 10:34 17,3 C 20,0 C 74 % 1027,1 hPa 0,0 l/m 6,4 km/h (2 Bft) W 277 2 min 0,000 mm 3,5 UV-I 878 W/m 12,6 C 17,3 C 11,3 km/h (2 Bft) 100,00 %
15.05.2017 10:36 17,4 C 20,0 C 73 % 1027,1 hPa 0,0 l/m 8,3 km/h (2 Bft) W 279 2 min 0,000 mm 3,3 UV-I 757 W/m 12,5 C 16,5 C 14,5 km/h (3 Bft) 95,74 %
15.05.2017 10:38 17,4 C 19,4 C 74 % 1027,2 hPa 0,0 l/m 7,2 km/h (2 Bft) W-SW 258 2 min 0,000 mm 2,8 UV-I 498 W/m 12,7 C 17,0 C 14,5 km/h (3 Bft) 100,00 %
15.05.2017 10:40 17,4 C 19,4 C 73 % 1027,1 hPa 0,0 l/m 5,8 km/h (2 Bft) W-SW 254 0 min 0,000 mm 2,5 UV-I 332 W/m 12,5 C 17,4 C 11,3 km/h (2 Bft) 97,56 %
15.05.2017 10:42 17,2 C 19,4 C 72 % 1027,1 hPa 0,0 l/m 9,4 km/h (2 Bft) W 266 2 min 0,000 mm 2,9 UV-I 426 W/m 12,1 C 15,8 C 16,1 km/h (3 Bft) 96,23 %
15.05.2017 10:44 17,3 C 20,0 C 73 % 1027,2 hPa 0,0 l/m 8,0 km/h (2 Bft) W 272 2 min 0,000 mm 3,2 UV-I 597 W/m 12,4 C 16,5 C 14,5 km/h (3 Bft) 94,00 %
15.05.2017 10:46 17,4 C 19,4 C 72 % 1027,1 hPa 0,0 l/m 7,5 km/h (2 Bft) W-SW 252 2 min 0,000 mm 3,3 UV-I 650 W/m 12,3 C 16,9 C 14,5 km/h (3 Bft) 93,62 %
15.05.2017 10:48 17,3 C 20,0 C 73 % 1027,2 hPa 0,0 l/m 8,6 km/h (2 Bft) W-SW 249 2 min 0,000 mm 3,4 UV-I 669 W/m 12,4 C 16,2 C 14,5 km/h (3 Bft) 97,37 %
15.05.2017 10:50 17,6 C 20,0 C 72 % 1027,1 hPa 0,0 l/m 8,6 km/h (2 Bft) SW 229 2 min 0,000 mm 3,9 UV-I 894 W/m 12,5 C 16,6 C 16,1 km/h (3 Bft) 98,11 %
15.05.2017 10:52 17,8 C 20,0 C 73 % 1027,1 hPa 0,0 l/m 13,3 km/h (3 Bft) W-SW 251 2 min 0,000 mm 3,6 UV-I 911 W/m 12,9 C 15,1 C 17,7 km/h (3 Bft) 95,12 %
15.05.2017 10:54 18,1 C 20,0 C 71 % 1027,2 hPa 0,0 l/m 8,8 km/h (2 Bft) SW 235 2 min 0,000 mm 3,8 UV-I 813 W/m 12,8 C 17,0 C 16,1 km/h (3 Bft) 98,00 %
15.05.2017 10:56 18,1 C 20,0 C 70 % 1027,2 hPa 0,0 l/m 9,9 km/h (2 Bft) S-SW 212 2 min 0,000 mm 4,1 UV-I 814 W/m 12,5 C 16,6 C 17,7 km/h (3 Bft) 97,73 %
15.05.2017 10:58 18,1 C 20,0 C 70 % 1027,1 hPa 0,0 l/m 10,3 km/h (2 Bft) W-NW 296 2 min 0,000 mm 4,2 UV-I 832 W/m 12,5 C 16,4 C 17,7 km/h (3 Bft) 96,00 %
15.05.2017 11:00 18,2 C 20,0 C 69 % 1027,1 hPa 0,0 l/m 13,7 km/h (3 Bft) W 267 2 min 0,381 mm 4,3 UV-I 845 W/m 12,4 C 15,4 C 22,5 km/h (4 Bft) 96,23 %
15.05.2017 11:02 18,2 C 20,0 C 69 % 1027,1 hPa 0,0 l/m 13,6 km/h (3 Bft) W 263 2 min 0,000 mm 4,3 UV-I 830 W/m 12,4 C 15,5 C 22,5 km/h (4 Bft) 95,12 %
15.05.2017 11:04 18,2 C 20,0 C 70 % 1027,1 hPa 0,0 l/m 11,5 km/h (2 Bft) W-SW 239 2 min 0,000 mm 4,3 UV-I 844 W/m 12,6 C 16,1 C 17,7 km/h (3 Bft) 94,34 %
15.05.2017 11:06 18,3 C 20,0 C 69 % 1027,0 hPa 0,0 l/m 9,5 km/h (2 Bft) S-SW 200 2 min 0,000 mm 4,5 UV-I 891 W/m 12,5 C 17,0 C 16,1 km/h (3 Bft) 97,37 %
15.05.2017 11:08 18,4 C 20,0 C 70 % 1027,1 hPa 0,0 l/m 7,1 km/h (2 Bft) W-NW 289 2 min 0,000 mm 4,3 UV-I 911 W/m 12,8 C 18,1 C 14,5 km/h (3 Bft) 94,34 %
15.05.2017 11:10 18,4 C 20,0 C 68 % 1027,1 hPa 0,0 l/m 7,3 km/h (2 Bft) W-SW 240 2 min 0,000 mm 4,8 UV-I 949 W/m 12,4 C 18,0 C 14,5 km/h (3 Bft) 96,00 %
15.05.2017 11:12 18,4 C 20,0 C 68 % 1027,1 hPa 0,0 l/m 11,0 km/h (2 Bft) SW 227 2 min 0,000 mm 3,8 UV-I 980 W/m 12,4 C 16,5 C 19,3 km/h (3 Bft) 97,73 %
15.05.2017 11:14 18,3 C 20,0 C 68 % 1027,1 hPa 0,0 l/m 8,2 km/h (2 Bft) W 280 0 min 0,000 mm 3,0 UV-I 365 W/m 12,3 C 17,5 C 12,9 km/h (3 Bft) 97,44 %
15.05.2017 11:16 18,1 C 20,0 C 66 % 1027,2 hPa 0,0 l/m 11,8 km/h (2 Bft) SW 215 0 min 0,000 mm 4,0 UV-I 315 W/m 11,6 C 15,9 C 19,3 km/h (3 Bft) 96,23 %
15.05.2017 11:18 18,1 C 20,0 C 66 % 1027,2 hPa 0,0 l/m 17,1 km/h (3 Bft) W-SW 246 2 min 0,000 mm 4,8 UV-I 902 W/m 11,6 C 14,4 C 22,5 km/h (4 Bft) 96,15 %
15.05.2017 11:20 18,1 C 20,0 C 67 % 1027,1 hPa 0,0 l/m 13,7 km/h (3 Bft) W-SW 246 2 min 0,000 mm 4,9 UV-I 967 W/m 11,9 C 15,3 C 19,3 km/h (3 Bft) 92,86 %
15.05.2017 11:22 18,3 C 20,0 C 67 % 1027,1 hPa 0,0 l/m 12,8 km/h (3 Bft) W-SW 250 2 min 0,000 mm 5,0 UV-I 970 W/m 12,1 C 15,8 C 17,7 km/h (3 Bft) 100,00 %
15.05.2017 11:24 18,4 C 20,0 C 67 % 1027,1 hPa 0,0 l/m 9,0 km/h (2 Bft) W-SW 258 2 min 0,000 mm 5,0 UV-I 1003 W/m 12,2 C 17,3 C 14,5 km/h (3 Bft) 93,75 %
15.05.2017 11:26 18,5 C 20,0 C 68 % 1027,1 hPa 0,0 l/m 11,0 km/h (2 Bft) W-SW 244 2 min 0,000 mm 4,6 UV-I 896 W/m 12,5 C 16,6 C 22,5 km/h (4 Bft) 96,43 %
15.05.2017 11:28 18,6 C 20,0 C 66 % 1027,1 hPa 0,0 l/m 7,3 km/h (2 Bft) W 272 2 min 0,000 mm 4,6 UV-I 779 W/m 12,1 C 18,2 C 12,9 km/h (3 Bft) 98,11 %
15.05.2017 11:30 18,7 C 20,0 C 65 % 1027,1 hPa 0,0 l/m 12,0 km/h (2 Bft) W-SW 251 2 min 0,000 mm 4,5 UV-I 751 W/m 12,0 C 16,5 C 20,9 km/h (4 Bft) 88,68 %
15.05.2017 11:32 18,6 C 20,0 C 64 % 1027,2 hPa 0,0 l/m 8,3 km/h (2 Bft) W 279 2 min 0,000 mm 4,6 UV-I 765 W/m 11,7 C 17,8 C 14,5 km/h (3 Bft) 97,87 %
15.05.2017 11:34 18,7 C 20,0 C 65 % 1027,1 hPa 0,0 l/m 9,8 km/h (2 Bft) W-NW 285 2 min 0,000 mm 4,9 UV-I 991 W/m 12,0 C 17,3 C 16,1 km/h (3 Bft) 93,18 %
15.05.2017 11:36 18,6 C 20,0 C 63 % 1027,1 hPa 0,0 l/m 6,9 km/h (2 Bft) W-NW 290 2 min 0,000 mm 5,0 UV-I 924 W/m 11,4 C 18,4 C 14,5 km/h (3 Bft) 94,00 %
15.05.2017 11:38 18,7 C 20,0 C 64 % 1027,2 hPa 0,0 l/m 8,0 km/h (2 Bft) W-NW 297 2 min 0,000 mm 4,8 UV-I 886 W/m 11,7 C 18,0 C 14,5 km/h (3 Bft) 95,45 %
15.05.2017 11:40 18,6 C 20,0 C 62 % 1027,1 hPa 0,0 l/m 6,4 km/h (2 Bft) W-NW 283 2 min 0,000 mm 4,4 UV-I 770 W/m 11,2 C 18,6 C 12,9 km/h (3 Bft) 95,45 %
15.05.2017 11:42 18,5 C 20,0 C 64 % 1027,1 hPa 0,0 l/m 4,8 km/h (1 Bft) W 272 2 min 0,000 mm 4,3 UV-I 724 W/m 11,6 C 18,5 C 9,7 km/h (2 Bft) 96,00 %
15.05.2017 11:44 18,4 C 20,0 C 63 % 1027,1 hPa 0,0 l/m 7,1 km/h (2 Bft) SW 221 2 min 0,000 mm 4,1 UV-I 697 W/m 11,2 C 18,1 C 14,5 km/h (3 Bft) 92,00 %
15.05.2017 11:46 18,4 C 20,0 C 65 % 1027,1 hPa 0,0 l/m 10,9 km/h (2 Bft) W-SW 249 2 min 0,000 mm 3,9 UV-I 658 W/m 11,7 C 16,6 C 16,1 km/h (3 Bft) 97,56 %
15.05.2017 11:48 18,3 C 20,0 C 65 % 1027,0 hPa 0,0 l/m 11,9 km/h (2 Bft) W-SW 246 2 min 0,000 mm 3,3 UV-I 507 W/m 11,6 C 16,1 C 17,7 km/h (3 Bft) 96,00 %
15.05.2017 11:50 18,2 C 20,0 C 66 % 1027,1 hPa 0,0 l/m 6,0 km/h (2 Bft) W 260 0 min 0,000 mm 3,7 UV-I 403 W/m 11,7 C 18,2 C 16,1 km/h (3 Bft) 97,22 %
15.05.2017 11:52 18,2 C 20,0 C 65 % 1027,1 hPa 0,0 l/m 14,7 km/h (3 Bft) W-NW 284 2 min 0,000 mm 4,1 UV-I 728 W/m 11,5 C 15,2 C 19,3 km/h (3 Bft) 90,91 %
15.05.2017 11:54 18,1 C 20,0 C 65 % 1027,1 hPa 0,0 l/m 11,5 km/h (2 Bft) W-SW 243 2 min 0,000 mm 4,3 UV-I 748 W/m 11,4 C 16,0 C 19,3 km/h (3 Bft) 92,86 %
15.05.2017 11:56 18,2 C 20,0 C 66 % 1027,0 hPa 0,0 l/m 9,1 km/h (2 Bft) W-SW 243 2 min 0,000 mm 4,2 UV-I 721 W/m 11,7 C 17,0 C 16,1 km/h (3 Bft) 96,36 %
15.05.2017 11:58 18,3 C 20,0 C 66 % 1027,0 hPa 0,0 l/m 6,0 km/h (2 Bft) SW 236 2 min 0,000 mm 4,2 UV-I 717 W/m 11,8 C 18,3 C 11,3 km/h (2 Bft) 94,44 %
15.05.2017 12:00 18,4 C 20,0 C 65 % 1027,0 hPa 0,0 l/m 12,5 km/h (3 Bft) W-SW 249 2 min 0,483 mm 4,1 UV-I 655 W/m 11,7 C 16,0 C 19,3 km/h (3 Bft) 98,31 %
15.05.2017 12:02 18,4 C 20,0 C 67 % 1027,0 hPa 0,0 l/m 9,7 km/h (2 Bft) SW 236 2 min 0,000 mm 3,8 UV-I 589 W/m 12,2 C 17,0 C 14,5 km/h (3 Bft) 97,56 %
15.05.2017 12:04 18,4 C 20,0 C 64 % 1027,0 hPa 0,0 l/m 10,1 km/h (2 Bft) S-SW 207 2 min 0,000 mm 3,7 UV-I 557 W/m 11,5 C 16,8 C 17,7 km/h (3 Bft) 98,11 %
15.05.2017 12:06 18,4 C 20,0 C 64 % 1027,0 hPa 0,0 l/m 7,8 km/h (2 Bft) W-SW 252 2 min 0,000 mm 3,7 UV-I 542 W/m 11,5 C 17,8 C 12,9 km/h (3 Bft) 95,12 %
15.05.2017 12:08 18,4 C 20,0 C 64 % 1026,9 hPa 0,0 l/m 9,7 km/h (2 Bft) SW 232 2 min 0,000 mm 3,6 UV-I 522 W/m 11,5 C 17,0 C 16,1 km/h (3 Bft) 95,45 %
15.05.2017 12:10 18,4 C 20,0 C 65 % 1027,0 hPa 0,0 l/m 12,2 km/h (2 Bft) W 265 2 min 0,000 mm 3,7 UV-I 549 W/m 11,7 C 16,1 C 17,7 km/h (3 Bft) 94,34 %
15.05.2017 12:12 18,5 C 20,0 C 65 % 1026,9 hPa 0,0 l/m 10,9 km/h (2 Bft) W-SW 242 2 min 0,000 mm 3,8 UV-I 588 W/m 11,8 C 16,7 C 16,1 km/h (3 Bft) 92,68 %
15.05.2017 12:14 18,4 C 20,0 C 64 % 1026,9 hPa 0,0 l/m 8,2 km/h (2 Bft) W-SW 252 2 min 0,000 mm 4,0 UV-I 616 W/m 11,5 C 17,6 C 11,3 km/h (2 Bft) 96,43 %
15.05.2017 12:16 18,4 C 20,0 C 64 % 1026,9 hPa 0,0 l/m 7,0 km/h (2 Bft) S-SW 210 2 min 0,000 mm 4,0 UV-I 610 W/m 11,5 C 18,1 C 12,9 km/h (3 Bft) 97,37 %
15.05.2017 12:18 18,6 C 20,0 C 64 % 1026,8 hPa 0,0 l/m 8,5 km/h (2 Bft) W-SW 252 2 min 0,000 mm 4,2 UV-I 675 W/m 11,7 C 17,7 C 12,9 km/h (3 Bft) 88,00 %
15.05.2017 12:20 18,7 C 20,0 C 66 % 1026,9 hPa 0,0 l/m 10,1 km/h (2 Bft) SW 219 2 min 0,000 mm 4,2 UV-I 701 W/m 12,2 C 17,2 C 19,3 km/h (3 Bft) 89,47 %
15.05.2017 12:22 18,7 C 20,0 C 61 % 1026,8 hPa 0,0 l/m 14,4 km/h (3 Bft) W-SW 245 2 min 0,000 mm 4,5 UV-I 775 W/m 11,0 C 15,8 C 20,9 km/h (4 Bft) 96,23 %
15.05.2017 12:24 18,8 C 20,0 C 61 % 1026,8 hPa 0,0 l/m 13,3 km/h (3 Bft) SW 229 2 min 0,000 mm 5,1 UV-I 861 W/m 11,1 C 16,3 C 17,7 km/h (3 Bft) 94,34 %
15.05.2017 12:26 18,9 C 20,0 C 61 % 1026,7 hPa 0,0 l/m 11,2 km/h (2 Bft) W-SW 247 2 min 0,000 mm 5,1 UV-I 935 W/m 11,2 C 17,0 C 16,1 km/h (3 Bft) 95,74 %
15.05.2017 12:28 19,3 C 20,0 C 62 % 1026,7 hPa 0,0 l/m 8,0 km/h (2 Bft) W-SW 255 2 min 0,000 mm 5,3 UV-I 945 W/m 11,8 C 18,6 C 12,9 km/h (3 Bft) 97,87 %
15.05.2017 12:30 19,5 C 20,0 C 60 % 1026,7 hPa 0,0 l/m 10,7 km/h (2 Bft) W 262 2 min 0,000 mm 5,5 UV-I 959 W/m 11,5 C 17,9 C 17,7 km/h (3 Bft) 93,62 %
15.05.2017 12:32 19,4 C 20,0 C 61 % 1026,6 hPa 0,0 l/m 7,3 km/h (2 Bft) W-SW 246 2 min 0,000 mm 5,4 UV-I 952 W/m 11,7 C 19,0 C 14,5 km/h (3 Bft) 91,67 %
15.05.2017 12:34 19,6 C 20,0 C 62 % 1026,6 hPa 0,0 l/m 12,7 km/h (3 Bft) W-SW 258 2 min 0,000 mm 5,5 UV-I 981 W/m 12,1 C 17,4 C 19,3 km/h (3 Bft) 94,34 %
15.05.2017 12:36 19,7 C 20,0 C 62 % 1026,6 hPa 0,0 l/m 13,4 km/h (3 Bft) SW 215 2 min 0,000 mm 5,4 UV-I 1017 W/m 12,2 C 17,3 C 19,3 km/h (3 Bft) 94,23 %
15.05.2017 12:38 19,6 C 20,0 C 62 % 1026,6 hPa 0,0 l/m 12,0 km/h (2 Bft) W-SW 247 0 min 0,000 mm 4,2 UV-I 448 W/m 12,1 C 17,6 C 19,3 km/h (3 Bft) 95,24 %
15.05.2017 12:40 19,4 C 20,0 C 62 % 1026,6 hPa 0,0 l/m 11,1 km/h (2 Bft) S-SW 209 2 min 0,000 mm 5,1 UV-I 594 W/m 11,9 C 17,6 C 19,3 km/h (3 Bft) 98,11 %
15.05.2017 12:42 19,4 C 20,0 C 61 % 1026,5 hPa 0,0 l/m 10,6 km/h (2 Bft) W 259 2 min 0,000 mm 5,1 UV-I 814 W/m 11,7 C 17,8 C 17,7 km/h (3 Bft) 97,37 %
15.05.2017 12:44 19,4 C 20,0 C 62 % 1026,5 hPa 0,0 l/m 7,4 km/h (2 Bft) W 259 2 min 0,000 mm 5,5 UV-I 922 W/m 11,9 C 19,0 C 14,5 km/h (3 Bft) 97,87 %
15.05.2017 12:46 19,6 C 20,0 C 61 % 1026,5 hPa 0,0 l/m 9,4 km/h (2 Bft) S-SW 209 2 min 0,000 mm 5,6 UV-I 983 W/m 11,9 C 18,4 C 14,5 km/h (3 Bft) 94,64 %
15.05.2017 12:48 19,8 C 20,0 C 61 % 1026,5 hPa 0,0 l/m 11,7 km/h (2 Bft) SW 223 2 min 0,000 mm 4,6 UV-I 1007 W/m 12,1 C 17,9 C 16,1 km/h (3 Bft) 97,56 %
15.05.2017 12:50 19,7 C 20,0 C 57 % 1026,5 hPa 0,0 l/m 10,0 km/h (2 Bft) SW 227 2 min 0,000 mm 3,2 UV-I 481 W/m 10,9 C 18,3 C 12,9 km/h (3 Bft) 96,00 %
15.05.2017 12:52 19,7 C 20,0 C 59 % 1026,5 hPa 0,0 l/m 11,9 km/h (2 Bft) S-SW 212 2 min 0,000 mm 4,4 UV-I 665 W/m 11,5 C 17,7 C 19,3 km/h (3 Bft) 95,12 %
15.05.2017 12:54 19,7 C 20,0 C 58 % 1026,5 hPa 0,0 l/m 7,2 km/h (2 Bft) W 272 2 min 0,000 mm 4,4 UV-I 866 W/m 11,2 C 19,4 C 16,1 km/h (3 Bft) 95,45 %
15.05.2017 12:56 19,7 C 20,0 C 59 % 1026,4 hPa 0,0 l/m 7,8 km/h (2 Bft) W-SW 242 2 min 0,000 mm 5,2 UV-I 612 W/m 11,5 C 19,1 C 19,3 km/h (3 Bft) 97,87 %
15.05.2017 12:58 19,7 C 20,0 C 58 % 1026,4 hPa 0,0 l/m 10,8 km/h (2 Bft) W-SW 255 2 min 0,000 mm 5,6 UV-I 973 W/m 11,2 C 18,0 C 16,1 km/h (3 Bft) 97,37 %
15.05.2017 13:00 19,9 C 20,0 C 57 % 1026,4 hPa 0,0 l/m 13,5 km/h (3 Bft) SW 225 2 min 0,482 mm 5,6 UV-I 960 W/m 11,1 C 17,5 C 20,9 km/h (4 Bft) 98,21 %
15.05.2017 13:02 20,1 C 20,6 C 56 % 1026,4 hPa 0,0 l/m 9,6 km/h (2 Bft) W 267 2 min 0,000 mm 5,5 UV-I 944 W/m 11,0 C 18,9 C 16,1 km/h (3 Bft) 97,73 %
15.05.2017 13:04 20,2 C 20,6 C 58 % 1026,4 hPa 0,0 l/m 8,4 km/h (2 Bft) W 263 2 min 0,000 mm 5,4 UV-I 904 W/m 11,7 C 19,4 C 12,9 km/h (3 Bft) 100,00 %
15.05.2017 13:06 20,3 C 20,6 C 56 % 1026,4 hPa 0,0 l/m 10,7 km/h (2 Bft) W-SW 255 2 min 0,000 mm 4,8 UV-I 824 W/m 11,2 C 18,8 C 16,1 km/h (3 Bft) 97,56 %
15.05.2017 13:08 20,3 C 20,6 C 57 % 1026,3 hPa 0,0 l/m 8,1 km/h (2 Bft) W-SW 254 2 min 0,000 mm 4,1 UV-I 591 W/m 11,5 C 19,6 C 14,5 km/h (3 Bft) 98,00 %
15.05.2017 13:10 20,3 C 20,6 C 57 % 1026,4 hPa 0,0 l/m 11,9 km/h (2 Bft) W-SW 256 2 min 0,000 mm 4,5 UV-I 583 W/m 11,5 C 18,4 C 16,1 km/h (3 Bft) 100,00 %
15.05.2017 13:12 20,2 C 20,6 C 58 % 1026,4 hPa 0,0 l/m 7,4 km/h (2 Bft) W-NW 295 2 min 0,000 mm 4,9 UV-I 807 W/m 11,7 C 19,8 C 16,1 km/h (3 Bft) 98,00 %
15.05.2017 13:14 20,1 C 20,6 C 56 % 1026,4 hPa 0,0 l/m 7,4 km/h (2 Bft) SW 227 2 min 0,000 mm 4,9 UV-I 766 W/m 11,0 C 19,7 C 17,7 km/h (3 Bft) 100,00 %
15.05.2017 13:16 20,1 C 20,6 C 60 % 1026,4 hPa 0,0 l/m 4,8 km/h (1 Bft) N-NW 329 2 min 0,000 mm 4,6 UV-I 721 W/m 12,1 C 20,1 C 11,3 km/h (2 Bft) 100,00 %
15.05.2017 13:18 20,3 C 20,6 C 57 % 1026,4 hPa 0,0 l/m 10,5 km/h (2 Bft) W-SW 245 2 min 0,000 mm 4,7 UV-I 748 W/m 11,5 C 18,8 C 20,9 km/h (4 Bft) 100,00 %
15.05.2017 13:20 20,3 C 20,6 C 56 % 1026,4 hPa 0,0 l/m 12,5 km/h (3 Bft) W 279 2 min 0,000 mm 4,9 UV-I 791 W/m 11,2 C 18,2 C 17,7 km/h (3 Bft) 100,00 %
15.05.2017 13:22 20,3 C 20,6 C 56 % 1026,4 hPa 0,0 l/m 13,7 km/h (3 Bft) W-NW 291 2 min 0,000 mm 5,2 UV-I 835 W/m 11,2 C 17,9 C 22,5 km/h (4 Bft) 100,00 %
15.05.2017 13:24 20,3 C 20,6 C 55 % 1026,4 hPa 0,0 l/m 10,5 km/h (2 Bft) SW 215 2 min 0,000 mm 5,5 UV-I 968 W/m 11,0 C 18,8 C 16,1 km/h (3 Bft) 100,00 %
15.05.2017 13:26 20,3 C 20,6 C 56 % 1026,4 hPa 0,0 l/m 6,5 km/h (2 Bft) W 259 2 min 0,000 mm 4,7 UV-I 1006 W/m 11,2 C 20,3 C 11,3 km/h (2 Bft) 97,73 %
15.05.2017 13:28 20,1 C 20,6 C 55 % 1026,4 hPa 0,0 l/m 8,2 km/h (2 Bft) S-SW 209 0 min 0,000 mm 5,0 UV-I 366 W/m 10,8 C 19,4 C 12,9 km/h (3 Bft) 97,73 %
15.05.2017 13:30 20,2 C 20,6 C 54 % 1026,4 hPa 0,0 l/m 9,8 km/h (2 Bft) W-NW 284 2 min 0,000 mm 5,4 UV-I 945 W/m 10,6 C 18,9 C 16,1 km/h (3 Bft) 98,31 %
15.05.2017 13:32 20,2 C 20,6 C 54 % 1026,4 hPa 0,0 l/m 10,7 km/h (2 Bft) W-NW 287 2 min 0,000 mm 5,4 UV-I 908 W/m 10,6 C 18,6 C 16,1 km/h (3 Bft) 88,46 %
15.05.2017 13:34 20,3 C 20,6 C 55 % 1026,3 hPa 0,0 l/m 6,8 km/h (2 Bft) W-SW 256 2 min 0,000 mm 5,4 UV-I 933 W/m 11,0 C 20,1 C 14,5 km/h (3 Bft) 100,00 %
15.05.2017 13:36 20,4 C 20,6 C 55 % 1026,4 hPa 0,0 l/m 4,4 km/h (1 Bft) W-NW 289 2 min 0,000 mm 5,3 UV-I 930 W/m 11,1 C 20,4 C 12,9 km/h (3 Bft) 97,56 %
15.05.2017 13:38 20,4 C 20,6 C 57 % 1026,3 hPa 0,0 l/m 4,0 km/h (1 Bft) W-NW 286 2 min 0,000 mm 5,0 UV-I 835 W/m 11,6 C 20,4 C 6,4 km/h (2 Bft) 97,56 %
15.05.2017 13:40 20,3 C 20,6 C 54 % 1026,3 hPa 0,0 l/m 5,8 km/h (2 Bft) W-SW 246 2 min 0,000 mm 3,8 UV-I 680 W/m 10,7 C 20,3 C 11,3 km/h (2 Bft) 98,11 %
15.05.2017 13:42 20,2 C 20,6 C 55 % 1026,3 hPa 0,0 l/m 6,5 km/h (2 Bft) W-SW 250 0 min 0,000 mm 3,2 UV-I 277 W/m 10,9 C 20,2 C 11,3 km/h (2 Bft) 98,00 %
15.05.2017 13:44 20,0 C 20,6 C 55 % 1026,3 hPa 0,0 l/m 6,9 km/h (2 Bft) W 273 0 min 0,000 mm 4,4 UV-I 343 W/m 10,7 C 19,8 C 16,1 km/h (3 Bft) 92,68 %
15.05.2017 13:46 20,1 C 20,6 C 58 % 1026,3 hPa 0,0 l/m 4,7 km/h (1 Bft) W-NW 284 0 min 0,000 mm 4,4 UV-I 343 W/m 11,6 C 20,1 C 11,3 km/h (2 Bft) 96,43 %
15.05.2017 13:48 20,1 C 20,6 C 55 % 1026,2 hPa 0,0 l/m 11,2 km/h (2 Bft) W-SW 244 0 min 0,000 mm 2,9 UV-I 322 W/m 10,8 C 18,4 C 19,3 km/h (3 Bft) 97,56 %
15.05.2017 13:50 20,1 C 20,6 C 55 % 1026,2 hPa 0,0 l/m 10,8 km/h (2 Bft) S-SW 205 0 min 0,000 mm 3,9 UV-I 350 W/m 10,8 C 18,5 C 16,1 km/h (3 Bft) 100,00 %
15.05.2017 13:53 20,2 C 20,6 C 56 % 1026,3 hPa 0,0 l/m 9,7 km/h (2 Bft) W-SW 252 0 min 0,000 mm 4,1 UV-I 329 W/m 11,1 C 19,0 C 17,7 km/h (3 Bft) 94,94 %
15.05.2017 13:54 20,3 C 20,6 C 57 % 1026,2 hPa 0,0 l/m 9,1 km/h (2 Bft) NW 308 1 min 0,000 mm 5,4 UV-I 863 W/m 11,5 C 19,3 C 14,5 km/h (3 Bft) 100,00 %
15.05.2017 13:56 20,5 C 20,6 C 56 % 1026,3 hPa 0,0 l/m 10,3 km/h (2 Bft) S-SW 208 2 min 0,000 mm 5,4 UV-I 1038 W/m 11,4 C 19,1 C 16,1 km/h (3 Bft) 100,00 %
15.05.2017 13:58 20,7 C 20,6 C 54 % 1026,2 hPa 0,0 l/m 9,0 km/h (2 Bft) W-SW 244 2 min 0,000 mm 5,4 UV-I 1011 W/m 11,1 C 19,7 C 14,5 km/h (3 Bft) 100,00 %
15.05.2017 14:00 20,6 C 20,6 C 55 % 1026,2 hPa 0,0 l/m 2,8 km/h (1 Bft) N-NW 343 2 min 0,483 mm 5,4 UV-I 977 W/m 11,2 C 20,6 C 6,4 km/h (2 Bft) 100,00 %
15.05.2017 14:02 20,7 C 20,6 C 57 % 1026,1 hPa 0,0 l/m 2,6 km/h (1 Bft) W-NW 284 2 min 0,000 mm 4,6 UV-I 1019 W/m 11,9 C 20,7 C 6,4 km/h (2 Bft) 97,37 %
15.05.2017 14:04 20,8 C 20,6 C 56 % 1026,1 hPa 0,0 l/m 5,6 km/h (1 Bft) W 261 2 min 0,000 mm 4,8 UV-I 1020 W/m 11,7 C 20,8 C 14,5 km/h (3 Bft) 98,21 %
15.05.2017 14:06 20,9 C 20,6 C 55 % 1026,1 hPa 0,0 l/m 9,5 km/h (2 Bft) W-SW 238 2 min 0,000 mm 5,0 UV-I 1003 W/m 11,5 C 19,8 C 17,7 km/h (3 Bft) 95,74 %
15.05.2017 14:08 21,1 C 20,6 C 53 % 1026,1 hPa 0,0 l/m 7,4 km/h (2 Bft) W 264 2 min 0,000 mm 4,9 UV-I 1005 W/m 11,1 C 20,7 C 14,5 km/h (3 Bft) 100,00 %
15.05.2017 14:10 20,9 C 20,6 C 53 % 1026,0 hPa 0,0 l/m 7,0 km/h (2 Bft) W 276 2 min 0,000 mm 5,3 UV-I 1023 W/m 11,0 C 20,7 C 12,9 km/h (3 Bft) 100,00 %
15.05.2017 14:12 21,0 C 20,6 C 56 % 1026,0 hPa 0,0 l/m 7,2 km/h (2 Bft) W-NW 299 2 min 0,000 mm 5,2 UV-I 972 W/m 11,9 C 20,7 C 16,1 km/h (3 Bft) 100,00 %
15.05.2017 14:14 21,2 C 20,6 C 57 % 1026,0 hPa 0,0 l/m 11,6 km/h (2 Bft) W-SW 257 2 min 0,000 mm 5,0 UV-I 939 W/m 12,3 C 19,5 C 19,3 km/h (3 Bft) 100,00 %
15.05.2017 14:16 21,3 C 20,6 C 52 % 1026,0 hPa 0,0 l/m 14,2 km/h (3 Bft) SW 223 2 min 0,000 mm 5,1 UV-I 970 W/m 11,0 C 19,0 C 20,9 km/h (4 Bft) 100,00 %
15.05.2017 14:18 21,3 C 20,6 C 53 % 1026,0 hPa 0,0 l/m 14,9 km/h (3 Bft) W-SW 244 2 min 0,000 mm 5,1 UV-I 971 W/m 11,3 C 18,8 C 20,9 km/h (4 Bft) 97,37 %
15.05.2017 14:20 21,4 C 20,6 C 52 % 1026,0 hPa 0,0 l/m 11,1 km/h (2 Bft) W-SW 240 2 min 0,000 mm 5,1 UV-I 964 W/m 11,1 C 19,9 C 16,1 km/h (3 Bft) 98,21 %
15.05.2017 14:22 21,4 C 20,6 C 51 % 1026,0 hPa 0,0 l/m 10,8 km/h (2 Bft) SW 230 2 min 0,000 mm 5,1 UV-I 982 W/m 10,8 C 20,0 C 17,7 km/h (3 Bft) 94,74 %
15.05.2017 14:24 21,4 C 20,6 C 53 % 1026,0 hPa 0,0 l/m 13,7 km/h (3 Bft) S-SW 200 2 min 0,000 mm 5,1 UV-I 998 W/m 11,4 C 19,2 C 20,9 km/h (4 Bft) 96,30 %
15.05.2017 14:26 21,4 C 20,6 C 51 % 1026,0 hPa 0,0 l/m 15,5 km/h (3 Bft) W-SW 243 2 min 0,000 mm 5,0 UV-I 1002 W/m 10,8 C 18,8 C 20,9 km/h (4 Bft) 98,59 %
15.05.2017 14:28 21,3 C 20,6 C 52 % 1026,0 hPa 0,0 l/m 7,6 km/h (2 Bft) W 264 2 min 0,000 mm 4,9 UV-I 1012 W/m 11,0 C 20,9 C 16,1 km/h (3 Bft) 95,56 %
15.05.2017 14:30 21,4 C 20,6 C 51 % 1026,0 hPa 0,0 l/m 5,7 km/h (1 Bft) S-SW 199 2 min 0,000 mm 5,0 UV-I 1022 W/m 10,8 C 21,4 C 11,3 km/h (2 Bft) 94,00 %
15.05.2017 14:32 21,2 C 20,6 C 50 % 1026,0 hPa 0,0 l/m 2,7 km/h (1 Bft) W-SW 244 2 min 0,000 mm 5,0 UV-I 1026 W/m 10,4 C 21,2 C 4,8 km/h (1 Bft) 96,15 %
15.05.2017 14:34 21,2 C 20,6 C 51 % 1026,0 hPa 0,0 l/m 5,0 km/h (1 Bft) W-SW 252 2 min 0,000 mm 4,9 UV-I 1014 W/m 10,7 C 21,2 C 16,1 km/h (3 Bft) 97,22 %
15.05.2017 14:36 21,4 C 20,6 C 51 % 1026,0 hPa 0,0 l/m 12,8 km/h (3 Bft) SW 224 2 min 0,000 mm 4,1 UV-I 1026 W/m 10,8 C 19,4 C 19,3 km/h (3 Bft) 98,11 %
15.05.2017 14:38 21,5 C 21,1 C 51 % 1026,0 hPa 0,0 l/m 10,7 km/h (2 Bft) W-SW 256 2 min 0,000 mm 4,1 UV-I 1027 W/m 10,9 C 20,1 C 16,1 km/h (3 Bft) 97,56 %
15.05.2017 14:40 21,5 C 20,6 C 53 % 1026,0 hPa 0,0 l/m 10,8 km/h (2 Bft) S-SW 197 2 min 0,000 mm 3,2 UV-I 821 W/m 11,5 C 20,1 C 17,7 km/h (3 Bft) 97,87 %
15.05.2017 14:42 21,4 C 20,6 C 51 % 1026,0 hPa 0,0 l/m 11,4 km/h (2 Bft) SW 226 0 min 0,000 mm 2,2 UV-I 267 W/m 10,8 C 19,8 C 17,7 km/h (3 Bft) 93,62 %
15.05.2017 14:44 21,2 C 20,6 C 51 % 1026,1 hPa 0,0 l/m 14,5 km/h (3 Bft) W 279 0 min 0,000 mm 1,9 UV-I 245 W/m 10,7 C 18,8 C 20,9 km/h (4 Bft) 96,23 %
15.05.2017 14:46 20,9 C 21,1 C 53 % 1026,1 hPa 0,0 l/m 4,8 km/h (1 Bft) W-SW 257 0 min 0,000 mm 1,6 UV-I 236 W/m 11,0 C 20,9 C 11,3 km/h (2 Bft) 96,00 %
15.05.2017 14:48 20,7 C 20,6 C 52 % 1026,2 hPa 0,0 l/m 7,6 km/h (2 Bft) W 261 0 min 0,000 mm 1,6 UV-I 232 W/m 10,5 C 20,2 C 12,9 km/h (3 Bft) 95,12 %
15.05.2017 14:50 20,4 C 21,1 C 52 % 1026,2 hPa 0,0 l/m 6,9 km/h (2 Bft) W 266 2 min 0,000 mm 2,7 UV-I 660 W/m 10,2 C 20,2 C 11,3 km/h (2 Bft) 96,00 %
15.05.2017 14:52 20,4 C 21,1 C 52 % 1026,3 hPa 0,0 l/m 8,1 km/h (2 Bft) W-SW 238 2 min 0,000 mm 2,5 UV-I 708 W/m 10,2 C 19,7 C 14,5 km/h (3 Bft) 98,00 %
15.05.2017 14:54 20,4 C 21,1 C 58 % 1026,4 hPa 0,0 l/m 3,7 km/h (1 Bft) N 11 0 min 0,000 mm 1,9 UV-I 253 W/m 11,9 C 20,4 C 8,0 km/h (2 Bft) 100,00 %
15.05.2017 14:56 20,2 C 21,1 C 60 % 1026,5 hPa 0,0 l/m 7,5 km/h (2 Bft) NO 36 0 min 0,000 mm 1,8 UV-I 270 W/m 12,2 C 19,8 C 14,5 km/h (3 Bft) 100,00 %
15.05.2017 14:58 19,4 C 21,1 C 61 % 1026,6 hPa 0,0 l/m 14,4 km/h (3 Bft) O-NO 58 0 min 0,000 mm 1,7 UV-I 299 W/m 11,7 C 16,7 C 22,5 km/h (4 Bft) 100,00 %
15.05.2017 15:00 18,8 C 21,1 C 62 % 1026,5 hPa 0,0 l/m 8,1 km/h (2 Bft) NO 34 0 min 0,483 mm 1,6 UV-I 282 W/m 11,4 C 18,0 C 14,5 km/h (3 Bft) 92,68 %
15.05.2017 15:02 18,4 C 21,1 C 64 % 1026,5 hPa 0,0 l/m 9,7 km/h (2 Bft) O-NO 73 0 min 0,000 mm 1,4 UV-I 248 W/m 11,5 C 17,0 C 17,7 km/h (3 Bft) 90,91 %
15.05.2017 15:04 18,2 C 21,1 C 66 % 1026,4 hPa 0,0 l/m 8,8 km/h (2 Bft) N-NO 24 0 min 0,000 mm 1,8 UV-I 227 W/m 11,7 C 17,1 C 16,1 km/h (3 Bft) 98,21 %
15.05.2017 15:06 18,3 C 21,1 C 66 % 1026,4 hPa 0,0 l/m 9,8 km/h (2 Bft) N-NO 15 0 min 0,000 mm 2,3 UV-I 227 W/m 11,8 C 16,8 C 17,7 km/h (3 Bft) 100,00 %
15.05.2017 15:08 18,4 C 21,1 C 68 % 1026,3 hPa 0,0 l/m 6,1 km/h (2 Bft) O 90 0 min 0,000 mm 1,9 UV-I 230 W/m 12,4 C 18,4 C 12,9 km/h (3 Bft) 97,87 %
15.05.2017 15:10 18,4 C 21,1 C 63 % 1026,3 hPa 0,0 l/m 8,6 km/h (2 Bft) NO 44 0 min 0,000 mm 1,4 UV-I 256 W/m 11,2 C 17,4 C 17,7 km/h (3 Bft) 97,73 %
15.05.2017 15:12 18,2 C 21,1 C 63 % 1026,4 hPa 0,0 l/m 11,4 km/h (2 Bft) O-NO 57 0 min 0,000 mm 1,4 UV-I 261 W/m 11,0 C 16,2 C 16,1 km/h (3 Bft) 98,28 %
15.05.2017 15:14 18,3 C 21,1 C 64 % 1026,4 hPa 0,0 l/m 8,0 km/h (2 Bft) NO 41 2 min 0,000 mm 2,7 UV-I 707 W/m 11,4 C 17,6 C 17,7 km/h (3 Bft) 95,24 %
15.05.2017 15:16 18,7 C 21,1 C 65 % 1026,3 hPa 0,0 l/m 13,2 km/h (3 Bft) NO 42 2 min 0,000 mm 1,8 UV-I 528 W/m 12,0 C 16,2 C 20,9 km/h (4 Bft) 96,23 %
15.05.2017 15:18 18,6 C 21,1 C 62 % 1026,3 hPa 0,0 l/m 12,9 km/h (3 Bft) O-NO 59 0 min 0,000 mm 1,4 UV-I 315 W/m 11,2 C 16,1 C 17,7 km/h (3 Bft) 95,12 %
15.05.2017 15:20 18,4 C 21,1 C 62 % 1026,3 hPa 0,0 l/m 13,2 km/h (3 Bft) NO 44 0 min 0,000 mm 1,2 UV-I 198 W/m 11,0 C 15,8 C 19,3 km/h (3 Bft) 98,00 %
15.05.2017 15:22 18,3 C 21,1 C 64 % 1026,3 hPa 0,0 l/m 13,2 km/h (3 Bft) O-NO 67 0 min 0,000 mm 1,2 UV-I 183 W/m 11,4 C 15,7 C 20,9 km/h (4 Bft) 94,87 %
15.05.2017 15:24 18,2 C 21,1 C 63 % 1026,3 hPa 0,0 l/m 9,3 km/h (2 Bft) NO 40 0 min 0,000 mm 1,3 UV-I 172 W/m 11,0 C 16,9 C 14,5 km/h (3 Bft) 100,00 %
15.05.2017 15:26 18,1 C 21,1 C 64 % 1026,2 hPa 0,0 l/m 13,0 km/h (3 Bft) O-NO 77 0 min 0,000 mm 1,3 UV-I 160 W/m 11,2 C 15,5 C 19,3 km/h (3 Bft) 100,00 %
15.05.2017 15:28 17,9 C 21,1 C 65 % 1026,2 hPa 0,0 l/m 11,9 km/h (2 Bft) O 80 0 min 0,000 mm 1,3 UV-I 140 W/m 11,2 C 15,6 C 16,1 km/h (3 Bft) 100,00 %
15.05.2017 15:30 17,8 C 21,1 C 64 % 1026,2 hPa 0,0 l/m 10,4 km/h (2 Bft) O-NO 73 0 min 0,000 mm 1,3 UV-I 134 W/m 10,9 C 16,1 C 14,5 km/h (3 Bft) 100,00 %
15.05.2017 15:32 17,8 C 21,1 C 64 % 1026,3 hPa 0,0 l/m 7,6 km/h (2 Bft) O-NO 68 0 min 0,000 mm 1,2 UV-I 135 W/m 10,9 C 17,2 C 11,3 km/h (2 Bft) 98,11 %
15.05.2017 15:34 17,8 C 21,1 C 66 % 1026,2 hPa 0,0 l/m 6,8 km/h (2 Bft) O-NO 61 0 min 0,000 mm 1,3 UV-I 158 W/m 11,4 C 17,6 C 11,3 km/h (2 Bft) 100,00 %
15.05.2017 15:36 17,8 C 21,1 C 67 % 1026,2 hPa 0,0 l/m 6,6 km/h (2 Bft) O-NO 67 0 min 0,000 mm 1,7 UV-I 216 W/m 11,6 C 17,7 C 9,7 km/h (2 Bft) 100,00 %
15.05.2017 15:38 17,9 C 21,1 C 67 % 1026,2 hPa 0,0 l/m 9,6 km/h (2 Bft) NO 49 0 min 0,000 mm 1,5 UV-I 204 W/m 11,7 C 16,5 C 16,1 km/h (3 Bft) 100,00 %
15.05.2017 15:40 17,9 C 21,1 C 64 % 1026,2 hPa 0,0 l/m 12,3 km/h (3 Bft) O-NO 74 0 min 0,000 mm 1,5 UV-I 180 W/m 11,0 C 15,5 C 17,7 km/h (3 Bft) 100,00 %
15.05.2017 15:42 17,8 C 21,1 C 64 % 1026,2 hPa 0,0 l/m 12,4 km/h (3 Bft) O-NO 76 0 min 0,000 mm 1,4 UV-I 164 W/m 10,9 C 15,4 C 17,7 km/h (3 Bft) 98,11 %
15.05.2017 15:44 17,7 C 21,1 C 66 % 1026,2 hPa 0,0 l/m 8,9 km/h (2 Bft) NO 43 0 min 0,000 mm 1,3 UV-I 161 W/m 11,3 C 16,5 C 14,5 km/h (3 Bft) 100,00 %
15.05.2017 15:46 17,6 C 21,1 C 66 % 1026,3 hPa 0,0 l/m 9,9 km/h (2 Bft) O 79 0 min 0,000 mm 1,3 UV-I 160 W/m 11,2 C 16,0 C 14,5 km/h (3 Bft) 97,56 %
15.05.2017 15:48 17,6 C 21,1 C 66 % 1026,2 hPa 0,0 l/m 9,0 km/h (2 Bft) O-SO 118 0 min 0,000 mm 1,3 UV-I 153 W/m 11,2 C 16,4 C 14,5 km/h (3 Bft) 100,00 %
15.05.2017 15:50 17,5 C 21,1 C 66 % 1026,2 hPa 0,0 l/m 7,7 km/h (2 Bft) O-NO 71 0 min 0,000 mm 1,2 UV-I 151 W/m 11,1 C 16,9 C 12,9 km/h (3 Bft) 97,22 %
15.05.2017 15:52 17,4 C 21,1 C 66 % 1026,2 hPa 0,0 l/m 7,4 km/h (2 Bft) O 88 0 min 0,000 mm 1,3 UV-I 161 W/m 11,0 C 16,9 C 12,9 km/h (3 Bft) 100,00 %
15.05.2017 15:54 17,4 C 21,1 C 67 % 1026,2 hPa 0,0 l/m 5,1 km/h (1 Bft) O-NO 76 0 min 0,000 mm 1,3 UV-I 188 W/m 11,2 C 17,4 C 8,0 km/h (2 Bft) 95,74 %
15.05.2017 15:56 17,5 C 21,1 C 65 % 1026,1 hPa 0,0 l/m 8,6 km/h (2 Bft) O-NO 65 0 min 0,000 mm 1,6 UV-I 200 W/m 10,8 C 16,5 C 12,9 km/h (3 Bft) 94,00 %
15.05.2017 15:58 17,6 C 21,1 C 65 % 1026,2 hPa 0,0 l/m 6,8 km/h (2 Bft) O-NO 76 0 min 0,000 mm 1,6 UV-I 207 W/m 10,9 C 17,4 C 12,9 km/h (3 Bft) 94,34 %
15.05.2017 16:00 17,6 C 21,1 C 66 % 1026,2 hPa 0,0 l/m 7,3 km/h (2 Bft) O-NO 65 0 min 0,203 mm 1,4 UV-I 192 W/m 11,2 C 17,2 C 12,9 km/h (3 Bft) 97,37 %
15.05.2017 16:02 17,7 C 21,1 C 67 % 1026,2 hPa 0,0 l/m 7,4 km/h (2 Bft) SO 136 0 min 0,000 mm 1,3 UV-I 170 W/m 11,5 C 17,2 C 9,7 km/h (2 Bft) 95,45 %
15.05.2017 16:04 17,6 C 21,1 C 66 % 1026,2 hPa 0,0 l/m 6,7 km/h (2 Bft) O 97 0 min 0,000 mm 1,2 UV-I 159 W/m 11,2 C 17,5 C 11,3 km/h (2 Bft) 98,11 %
15.05.2017 16:06 17,6 C 21,1 C 68 % 1026,2 hPa 0,0 l/m 8,0 km/h (2 Bft) O-NO 78 0 min 0,000 mm 1,2 UV-I 176 W/m 11,6 C 16,8 C 12,9 km/h (3 Bft) 97,87 %
15.05.2017 16:08 17,6 C 21,1 C 68 % 1026,1 hPa 0,0 l/m 10,9 km/h (2 Bft) O-NO 74 0 min 0,000 mm 1,4 UV-I 200 W/m 11,6 C 15,7 C 14,5 km/h (3 Bft) 97,37 %
15.05.2017 16:10 17,8 C 21,1 C 66 % 1026,1 hPa 0,0 l/m 10,1 km/h (2 Bft) O-SO 113 2 min 0,000 mm 1,7 UV-I 606 W/m 11,4 C 16,2 C 16,1 km/h (3 Bft) 96,61 %
15.05.2017 16:12 17,8 C 21,1 C 66 % 1026,2 hPa 0,0 l/m 10,1 km/h (2 Bft) NO 55 0 min 0,000 mm 1,1 UV-I 149 W/m 11,4 C 16,2 C 14,5 km/h (3 Bft) 97,56 %
15.05.2017 16:14 17,7 C 21,1 C 67 % 1026,2 hPa 0,0 l/m 11,4 km/h (2 Bft) O 88 0 min 0,000 mm 1,0 UV-I 140 W/m 11,5 C 15,6 C 17,7 km/h (3 Bft) 98,11 %
15.05.2017 16:16 17,6 C 21,1 C 66 % 1026,2 hPa 0,0 l/m 9,1 km/h (2 Bft) O 84 0 min 0,000 mm 0,9 UV-I 139 W/m 11,2 C 16,4 C 16,1 km/h (3 Bft) 90,91 %
15.05.2017 16:18 17,4 C 21,1 C 67 % 1026,2 hPa 0,0 l/m 6,7 km/h (2 Bft) O 101 0 min 0,000 mm 0,8 UV-I 113 W/m 11,2 C 17,3 C 11,3 km/h (2 Bft) 96,00 %
15.05.2017 16:20 17,4 C 21,1 C 68 % 1026,1 hPa 0,0 l/m 8,1 km/h (2 Bft) O 96 0 min 0,000 mm 0,6 UV-I 88 W/m 11,4 C 16,6 C 12,9 km/h (3 Bft) 95,74 %
15.05.2017 16:22 17,3 C 21,1 C 68 % 1026,1 hPa 0,0 l/m 11,4 km/h (2 Bft) O-SO 103 0 min 0,000 mm 0,4 UV-I 74 W/m 11,3 C 15,1 C 14,5 km/h (3 Bft) 95,45 %
15.05.2017 16:24 17,2 C 21,1 C 70 % 1026,1 hPa 0,0 l/m 11,1 km/h (2 Bft) O 86 0 min 0,000 mm 0,0 UV-I 57 W/m 11,7 C 15,1 C 16,1 km/h (3 Bft) 96,00 %
15.05.2017 16:26 17,1 C 21,1 C 72 % 1026,1 hPa 0,0 l/m 6,9 km/h (2 Bft) O-SO 123 0 min 0,000 mm 0,0 UV-I 43 W/m 12,0 C 16,9 C 11,3 km/h (2 Bft) 92,68 %
15.05.2017 16:28 17,0 C 21,1 C 73 % 1026,2 hPa 0,0 l/m 6,1 km/h (2 Bft) O-SO 115 0 min 0,000 mm 0,0 UV-I 34 W/m 12,1 C 17,0 C 11,3 km/h (2 Bft) 97,62 %
15.05.2017 16:30 16,9 C 20,6 C 74 % 1026,4 hPa 0,0 l/m 2,6 km/h (1 Bft) S-SW 210 0 min 0,000 mm 0,0 UV-I 26 W/m 12,2 C 16,9 C 4,8 km/h (1 Bft) 92,86 %
15.05.2017 16:32 16,9 C 20,6 C 74 % 1026,5 hPa 0,4 l/m 6,9 km/h (2 Bft) SW 232 0 min 0,000 mm 0,0 UV-I 22 W/m 12,2 C 16,7 C 11,3 km/h (2 Bft) 93,62 %
15.05.2017 16:34 16,7 C 20,6 C 77 % 1026,8 hPa 0,2 l/m 8,6 km/h (2 Bft) W-SW 252 0 min 0,000 mm 0,0 UV-I 21 W/m 12,6 C 15,6 C 14,5 km/h (3 Bft) 93,62 %
15.05.2017 16:36 16,4 C 20,6 C 79 % 1026,9 hPa 1,0 l/m 9,0 km/h (2 Bft) W 277 0 min 0,000 mm 0,0 UV-I 22 W/m 12,7 C 15,1 C 12,9 km/h (3 Bft) 95,74 %
15.05.2017 16:38 16,0 C 20,6 C 82 % 1027,0 hPa 1,2 l/m 5,2 km/h (1 Bft) W 259 0 min 0,000 mm 0,0 UV-I 25 W/m 12,9 C 16,0 C 9,7 km/h (2 Bft) 95,12 %
15.05.2017 16:40 15,4 C 20,6 C 82 % 1027,1 hPa 1,4 l/m 1,1 km/h (1 Bft) W-NW 303 0 min 0,000 mm 0,0 UV-I 27 W/m 12,3 C 15,4 C 4,8 km/h (1 Bft) 95,45 %
15.05.2017 16:42 15,1 C 20,6 C 83 % 1027,0 hPa 0,6 l/m 4,0 km/h (1 Bft) NO 34 0 min 0,000 mm 0,0 UV-I 30 W/m 12,2 C 15,1 C 6,4 km/h (2 Bft) 96,43 %
15.05.2017 16:44 14,8 C 20,6 C 83 % 1027,0 hPa 0,6 l/m 2,4 km/h (1 Bft) N-NW 338 0 min 0,000 mm 0,0 UV-I 28 W/m 11,9 C 14,8 C 4,8 km/h (1 Bft) 92,68 %
15.05.2017 16:46 14,6 C 20,6 C 85 % 1026,9 hPa 0,2 l/m 3,2 km/h (1 Bft) N 5 0 min 0,000 mm 0,0 UV-I 28 W/m 12,1 C 14,6 C 4,8 km/h (1 Bft) 94,74 %
15.05.2017 16:48 14,4 C 20,6 C 87 % 1026,9 hPa 0,0 l/m 3,1 km/h (1 Bft) N-NO 18 0 min 0,000 mm 0,0 UV-I 32 W/m 12,3 C 14,4 C 4,8 km/h (1 Bft) 95,16 %
15.05.2017 16:50 14,4 C 20,6 C 88 % 1026,9 hPa 0,0 l/m 1,9 km/h (1 Bft) N-NO 18 0 min 0,000 mm 0,0 UV-I 37 W/m 12,4 C 14,4 C 3,2 km/h (1 Bft) 92,11 %
15.05.2017 16:52 14,4 C 20,6 C 88 % 1026,9 hPa 0,4 l/m 3,1 km/h (1 Bft) N-NO 18 0 min 0,000 mm 0,0 UV-I 38 W/m 12,4 C 14,4 C 6,4 km/h (2 Bft) 97,87 %
15.05.2017 16:54 14,3 C 20,6 C 89 % 1027,1 hPa 0,4 l/m 0,8 km/h (0 Bft) N-NW 342 0 min 0,000 mm 0,0 UV-I 36 W/m 12,5 C 14,3 C 3,2 km/h (1 Bft) 96,23 %
15.05.2017 16:56 14,2 C 20,6 C 89 % 1027,1 hPa 0,6 l/m 3,6 km/h (1 Bft) N-NO 15 0 min 0,000 mm 0,0 UV-I 33 W/m 12,4 C 14,2 C 12,9 km/h (3 Bft) 100,00 %
15.05.2017 16:58 14,1 C 20,6 C 89 % 1027,1 hPa 0,2 l/m 4,3 km/h (1 Bft) N-NO 24 0 min 0,000 mm 0,0 UV-I 33 W/m 12,3 C 14,1 C 12,9 km/h (3 Bft) 97,56 %
15.05.2017 17:00 13,9 C 20,6 C 89 % 1027,1 hPa 0,0 l/m 6,4 km/h (2 Bft) N-NO 27 0 min 0,076 mm 0,0 UV-I 33 W/m 12,1 C 13,9 C 12,9 km/h (3 Bft) 96,43 %
15.05.2017 17:02 13,9 C 20,6 C 89 % 1027,1 hPa 0,4 l/m 4,2 km/h (1 Bft) N-NO 19 0 min 0,000 mm 0,0 UV-I 36 W/m 12,1 C 13,9 C 8,0 km/h (2 Bft) 93,62 %
15.05.2017 17:04 13,9 C 20,6 C 89 % 1027,1 hPa 0,2 l/m 4,2 km/h (1 Bft) NO 51 0 min 0,000 mm 0,0 UV-I 42 W/m 12,1 C 13,9 C 6,4 km/h (2 Bft) 96,00 %
15.05.2017 17:06 14,1 C 20,6 C 88 % 1027,1 hPa 0,2 l/m 6,8 km/h (2 Bft) NO 51 0 min 0,000 mm 0,0 UV-I 50 W/m 12,1 C 13,9 C 8,0 km/h (2 Bft) 100,00 %
15.05.2017 17:08 14,1 C 20,6 C 87 % 1027,2 hPa 0,0 l/m 3,9 km/h (1 Bft) O-NO 68 0 min 0,000 mm 0,0 UV-I 59 W/m 12,0 C 14,1 C 6,4 km/h (2 Bft) 100,00 %
15.05.2017 17:10 14,1 C 20,6 C 88 % 1027,2 hPa 0,0 l/m 3,4 km/h (1 Bft) N-NO 16 0 min 0,000 mm 0,0 UV-I 70 W/m 12,1 C 14,1 C 12,9 km/h (3 Bft) 100,00 %
15.05.2017 17:12 14,0 C 20,6 C 87 % 1027,1 hPa 0,0 l/m 4,7 km/h (1 Bft) N-NO 30 0 min 0,000 mm 0,0 UV-I 76 W/m 11,9 C 14,0 C 8,0 km/h (2 Bft) 100,00 %
15.05.2017 17:14 14,1 C 20,6 C 88 % 1027,0 hPa 0,0 l/m 5,8 km/h (2 Bft) O-NO 57 0 min 0,000 mm 0,0 UV-I 84 W/m 12,1 C 14,1 C 8,0 km/h (2 Bft) 100,00 %
15.05.2017 17:16 14,2 C 20,6 C 89 % 1027,0 hPa 0,2 l/m 4,9 km/h (1 Bft) O-NO 66 0 min 0,000 mm 0,0 UV-I 94 W/m 12,4 C 14,2 C 6,4 km/h (2 Bft) 97,73 %
15.05.2017 17:18 14,2 C 20,6 C 91 % 1026,8 hPa 0,0 l/m 9,7 km/h (2 Bft) O-NO 70 0 min 0,000 mm 0,0 UV-I 117 W/m 12,8 C 12,4 C 12,9 km/h (3 Bft) 100,00 %
15.05.2017 17:20 14,2 C 20,6 C 91 % 1026,7 hPa 0,0 l/m 8,5 km/h (2 Bft) O 84 0 min 0,000 mm 0,0 UV-I 130 W/m 12,8 C 13,0 C 12,9 km/h (3 Bft) 97,37 %
15.05.2017 17:22 14,1 C 20,6 C 91 % 1026,7 hPa 0,0 l/m 8,1 km/h (2 Bft) O 81 0 min 0,000 mm 0,0 UV-I 146 W/m 12,7 C 13,1 C 11,3 km/h (2 Bft) 100,00 %
15.05.2017 17:24 14,1 C 20,6 C 92 % 1026,6 hPa 0,0 l/m 6,3 km/h (2 Bft) O-NO 61 0 min 0,000 mm 0,3 UV-I 162 W/m 12,8 C 14,1 C 9,7 km/h (2 Bft) 95,12 %
15.05.2017 17:26 14,1 C 20,6 C 92 % 1026,7 hPa 0,0 l/m 8,5 km/h (2 Bft) O-NO 72 0 min 0,000 mm 0,5 UV-I 177 W/m 12,8 C 12,9 C 12,9 km/h (3 Bft) 97,56 %
15.05.2017 17:28 14,1 C 20,6 C 92 % 1026,7 hPa 0,0 l/m 6,5 km/h (2 Bft) O-NO 74 0 min 0,000 mm 0,5 UV-I 190 W/m 12,8 C 14,1 C 8,0 km/h (2 Bft) 100,00 %
15.05.2017 17:30 14,2 C 20,6 C 90 % 1026,7 hPa 0,0 l/m 3,3 km/h (1 Bft) O-NO 74 0 min 0,000 mm 0,5 UV-I 179 W/m 12,6 C 14,2 C 6,4 km/h (2 Bft) 97,87 %
15.05.2017 17:32 14,3 C 20,6 C 90 % 1026,7 hPa 0,0 l/m 3,4 km/h (1 Bft) O-SO 109 0 min 0,000 mm 0,5 UV-I 165 W/m 12,7 C 14,3 C 4,8 km/h (1 Bft) 100,00 %
15.05.2017 17:34 14,4 C 20,6 C 91 % 1026,8 hPa 0,0 l/m 3,7 km/h (1 Bft) O 90 0 min 0,000 mm 0,0 UV-I 152 W/m 12,9 C 14,4 C 6,4 km/h (2 Bft) 100,00 %
15.05.2017 17:36 14,5 C 20,6 C 90 % 1026,8 hPa 0,0 l/m 3,9 km/h (1 Bft) O 89 0 min 0,000 mm 0,0 UV-I 140 W/m 12,9 C 14,5 C 6,4 km/h (2 Bft) 100,00 %
15.05.2017 17:38 14,6 C 20,6 C 89 % 1026,8 hPa 0,0 l/m 3,2 km/h (1 Bft) O 96 0 min 0,000 mm 0,0 UV-I 116 W/m 12,8 C 14,6 C 4,8 km/h (1 Bft) 92,68 %
15.05.2017 17:40 14,7 C 20,6 C 90 % 1026,8 hPa 0,0 l/m 3,3 km/h (1 Bft) O 90 0 min 0,000 mm 0,0 UV-I 91 W/m 13,1 C 14,7 C 6,4 km/h (2 Bft) 100,00 %
15.05.2017 17:42 14,7 C 20,6 C 89 % 1026,9 hPa 0,0 l/m 1,2 km/h (1 Bft) O 90 0 min 0,000 mm 0,0 UV-I 70 W/m 12,9 C 14,7 C 4,8 km/h (1 Bft) 98,00 %
15.05.2017 17:44 14,8 C 20,6 C 90 % 1026,9 hPa 0,0 l/m 3,9 km/h (1 Bft) S 183 0 min 0,000 mm 0,0 UV-I 53 W/m 13,2 C 14,8 C 6,4 km/h (2 Bft) 95,74 %
15.05.2017 17:46 14,8 C 20,6 C 89 % 1026,9 hPa 0,0 l/m 2,6 km/h (1 Bft) S-SO 147 0 min 0,000 mm 0,0 UV-I 42 W/m 13,0 C 14,8 C 4,8 km/h (1 Bft) 97,87 %
15.05.2017 17:48 14,8 C 20,6 C 90 % 1027,0 hPa 0,0 l/m 3,3 km/h (1 Bft) W 278 0 min 0,000 mm 0,0 UV-I 33 W/m 13,2 C 14,8 C 8,0 km/h (2 Bft) 100,00 %
15.05.2017 17:50 14,7 C 20,6 C 90 % 1027,2 hPa 0,0 l/m 2,7 km/h (1 Bft) W-NW 300 0 min 0,000 mm 0,0 UV-I 27 W/m 13,1 C 14,7 C 4,8 km/h (1 Bft) 98,00 %
15.05.2017 17:52 14,7 C 20,6 C 90 % 1027,3 hPa 0,0 l/m 3,1 km/h (1 Bft) W-NW 300 0 min 0,000 mm 0,0 UV-I 25 W/m 13,1 C 14,7 C 4,8 km/h (1 Bft) 100,00 %
15.05.2017 17:54 14,6 C 20,6 C 91 % 1027,4 hPa 0,2 l/m 1,9 km/h (1 Bft) N-NW 333 0 min 0,000 mm 0,0 UV-I 25 W/m 13,1 C 14,6 C 4,8 km/h (1 Bft) 100,00 %
15.05.2017 17:56 14,5 C 20,6 C 91 % 1027,4 hPa 0,4 l/m 1,9 km/h (1 Bft) SW 215 0 min 0,000 mm 0,0 UV-I 23 W/m 13,0 C 14,5 C 6,4 km/h (2 Bft) 97,56 %
15.05.2017 17:58 14,4 C 20,6 C 91 % 1027,4 hPa 0,4 l/m 2,9 km/h (1 Bft) SW 225 0 min 0,000 mm 0,0 UV-I 24 W/m 12,9 C 14,4 C 6,4 km/h (2 Bft) 100,00 %
15.05.2017 18:00 14,3 C 20,6 C 91 % 1027,4 hPa 0,0 l/m 2,4 km/h (1 Bft) W-SW 237 0 min 0,000 mm 0,0 UV-I 25 W/m 12,8 C 14,3 C 4,8 km/h (1 Bft) 100,00 %
15.05.2017 18:02 14,2 C 20,6 C 91 % 1027,3 hPa 0,4 l/m 5,2 km/h (1 Bft) S-SW 194 0 min 0,051 mm 0,0 UV-I 26 W/m 12,8 C 14,2 C 8,0 km/h (2 Bft) 100,00 %
15.05.2017 18:05 14,0 C 20,6 C 91 % 1027,3 hPa 0,0 l/m 2,6 km/h (1 Bft) S-SO 168 0 min 0,000 mm 0,0 UV-I 30 W/m 12,6 C 14,0 C 6,4 km/h (2 Bft) 100,00 %
15.05.2017 18:06 14,0 C 20,6 C 91 % 1027,2 hPa 0,2 l/m 0,4 km/h (0 Bft) S-SO 168 0 min 0,000 mm 0,0 UV-I 33 W/m 12,6 C 14,0 C 1,6 km/h (1 Bft) 100,00 %
15.05.2017 18:08 14,0 C 20,6 C 92 % 1027,2 hPa 0,0 l/m 0,0 km/h (0 Bft) S-SO 168 0 min 0,000 mm 0,0 UV-I 37 W/m 12,7 C 14,0 C 0,0 km/h (0 Bft) 100,00 %
15.05.2017 18:10 14,1 C 20,6 C 92 % 1027,1 hPa 0,2 l/m 1,8 km/h (1 Bft) S-SO 168 0 min 0,000 mm 0,0 UV-I 43 W/m 12,8 C 14,1 C 3,2 km/h (1 Bft) 98,21 %
15.05.2017 18:12 14,0 C 20,6 C 92 % 1027,1 hPa 0,0 l/m 4,4 km/h (1 Bft) SO 140 0 min 0,000 mm 0,0 UV-I 53 W/m 12,7 C 14,0 C 6,4 km/h (2 Bft) 100,00 %
15.05.2017 18:14 14,0 C 20,6 C 92 % 1027,0 hPa 0,2 l/m 3,8 km/h (1 Bft) O-SO 120 0 min 0,000 mm 0,0 UV-I 64 W/m 12,7 C 14,0 C 8,0 km/h (2 Bft) 100,00 %
15.05.2017 18:16 13,9 C 20,6 C 92 % 1026,9 hPa 0,2 l/m 6,8 km/h (2 Bft) SO 125 0 min 0,000 mm 0,0 UV-I 81 W/m 12,6 C 13,7 C 8,0 km/h (2 Bft) 100,00 %
15.05.2017 18:18 13,9 C 20,6 C 93 % 1026,9 hPa 0,0 l/m 3,2 km/h (1 Bft) SO 143 0 min 0,000 mm 0,0 UV-I 99 W/m 12,8 C 13,9 C 6,4 km/h (2 Bft) 97,87 %
15.05.2017 18:20 14,0 C 20,6 C 93 % 1026,8 hPa 0,0 l/m 4,6 km/h (1 Bft) SO 140 0 min 0,000 mm 0,0 UV-I 117 W/m 12,9 C 14,0 C 8,0 km/h (2 Bft) 97,44 %
15.05.2017 18:22 14,0 C 20,6 C 93 % 1026,8 hPa 0,0 l/m 6,3 km/h (2 Bft) O-SO 121 0 min 0,000 mm 0,0 UV-I 127 W/m 12,9 C 14,0 C 8,0 km/h (2 Bft) 98,28 %
15.05.2017 18:24 14,0 C 20,6 C 93 % 1026,8 hPa 0,0 l/m 3,5 km/h (1 Bft) O-SO 121 0 min 0,000 mm 0,0 UV-I 137 W/m 12,9 C 14,0 C 6,4 km/h (2 Bft) 97,73 %
15.05.2017 18:26 14,1 C 20,6 C 93 % 1026,8 hPa 0,0 l/m 2,9 km/h (1 Bft) O-SO 121 0 min 0,000 mm 0,0 UV-I 143 W/m 13,0 C 14,1 C 4,8 km/h (1 Bft) 94,87 %
15.05.2017 18:28 14,3 C 20,6 C 92 % 1026,8 hPa 0,0 l/m 0,1 km/h (0 Bft) O-SO 121 2 min 0,000 mm 0,0 UV-I 214 W/m 13,0 C 14,3 C 1,6 km/h (1 Bft) 98,11 %
15.05.2017 18:30 14,7 C 20,6 C 91 % 1026,8 hPa 0,0 l/m 0,1 km/h (0 Bft) O-SO 121 0 min 0,000 mm 0,0 UV-I 161 W/m 13,2 C 14,7 C 1,6 km/h (1 Bft) 98,00 %
15.05.2017 18:32 14,8 C 20,6 C 90 % 1026,8 hPa 0,0 l/m 0,6 km/h (0 Bft) O-SO 121 0 min 0,000 mm 0,0 UV-I 163 W/m 13,2 C 14,8 C 1,6 km/h (1 Bft) 95,83 %
15.05.2017 18:34 14,9 C 20,6 C 90 % 1026,8 hPa 0,0 l/m 2,6 km/h (1 Bft) SO 128 2 min 0,000 mm 0,0 UV-I 175 W/m 13,3 C 14,9 C 4,8 km/h (1 Bft) 100,00 %
15.05.2017 18:36 15,1 C 20,6 C 90 % 1026,8 hPa 0,0 l/m 2,7 km/h (1 Bft) SO 135 2 min 0,000 mm 0,0 UV-I 190 W/m 13,5 C 15,1 C 4,8 km/h (1 Bft) 96,36 %
15.05.2017 18:38 15,1 C 20,6 C 91 % 1026,8 hPa 0,0 l/m 3,8 km/h (1 Bft) S-SO 151 2 min 0,000 mm 0,0 UV-I 221 W/m 13,6 C 15,1 C 4,8 km/h (1 Bft) 98,00 %
15.05.2017 18:40 15,2 C 20,6 C 92 % 1026,7 hPa 0,0 l/m 4,4 km/h (1 Bft) S 181 2 min 0,000 mm 0,0 UV-I 303 W/m 13,9 C 15,2 C 4,8 km/h (1 Bft) 92,31 %
15.05.2017 18:42 15,3 C 20,6 C 91 % 1026,7 hPa 0,0 l/m 1,6 km/h (1 Bft) S 180 2 min 0,000 mm 0,0 UV-I 290 W/m 13,8 C 15,3 C 3,2 km/h (1 Bft) 96,49 %
15.05.2017 18:44 15,3 C 20,6 C 91 % 1026,6 hPa 0,0 l/m 2,8 km/h (1 Bft) S 179 2 min 0,000 mm 0,0 UV-I 239 W/m 13,8 C 15,3 C 4,8 km/h (1 Bft) 96,23 %
15.05.2017 18:46 15,5 C 20,6 C 89 % 1026,7 hPa 0,0 l/m 4,6 km/h (1 Bft) S-SW 194 2 min 0,000 mm 0,0 UV-I 242 W/m 13,7 C 15,5 C 6,4 km/h (2 Bft) 96,00 %
15.05.2017 18:48 15,6 C 20,6 C 89 % 1026,7 hPa 0,0 l/m 5,3 km/h (1 Bft) S-SO 166 2 min 0,000 mm 0,0 UV-I 193 W/m 13,8 C 15,6 C 9,7 km/h (2 Bft) 97,87 %
15.05.2017 18:50 15,7 C 20,6 C 89 % 1026,6 hPa 0,0 l/m 5,0 km/h (1 Bft) S-SW 200 2 min 0,000 mm 0,0 UV-I 189 W/m 13,9 C 15,7 C 8,0 km/h (2 Bft) 94,00 %
15.05.2017 18:52 15,8 C 20,6 C 89 % 1026,5 hPa 0,0 l/m 3,2 km/h (1 Bft) S 177 2 min 0,000 mm 0,0 UV-I 205 W/m 14,0 C 15,8 C 6,4 km/h (2 Bft) 100,00 %
15.05.2017 18:54 15,9 C 20,6 C 89 % 1026,6 hPa 0,0 l/m 5,0 km/h (1 Bft) S 173 2 min 0,000 mm 0,0 UV-I 239 W/m 14,1 C 15,9 C 8,0 km/h (2 Bft) 100,00 %
15.05.2017 18:56 16,1 C 20,6 C 89 % 1026,6 hPa 0,0 l/m 5,1 km/h (1 Bft) S-SW 211 2 min 0,000 mm 0,0 UV-I 271 W/m 14,3 C 16,1 C 8,0 km/h (2 Bft) 98,00 %
15.05.2017 18:58 16,2 C 20,6 C 89 % 1026,6 hPa 0,0 l/m 7,0 km/h (2 Bft) S-SW 205 2 min 0,000 mm 0,0 UV-I 198 W/m 14,4 C 15,9 C 9,7 km/h (2 Bft) 100,00 %
15.05.2017 19:00 16,2 C 20,6 C 87 % 1026,6 hPa 0,0 l/m 7,0 km/h (2 Bft) S-SW 209 2 min 0,076 mm 0,0 UV-I 169 W/m 14,0 C 15,9 C 9,7 km/h (2 Bft) 97,87 %
15.05.2017 19:02 16,2 C 20,6 C 88 % 1026,6 hPa 0,0 l/m 6,5 km/h (2 Bft) SW 216 2 min 0,000 mm 0,0 UV-I 156 W/m 14,2 C 16,2 C 12,9 km/h (3 Bft) 97,92 %
15.05.2017 19:04 16,1 C 20,6 C 88 % 1026,7 hPa 0,0 l/m 4,9 km/h (1 Bft) S-SW 198 2 min 0,000 mm 0,0 UV-I 153 W/m 14,1 C 16,1 C 8,0 km/h (2 Bft) 96,15 %
15.05.2017 19:06 16,1 C 20,6 C 88 % 1026,7 hPa 0,0 l/m 6,7 km/h (2 Bft) S 169 2 min 0,000 mm 0,0 UV-I 141 W/m 14,1 C 16,0 C 9,7 km/h (2 Bft) 100,00 %
15.05.2017 19:08 15,9 C 20,6 C 88 % 1026,7 hPa 0,0 l/m 4,5 km/h (1 Bft) S 187 2 min 0,000 mm 0,0 UV-I 134 W/m 13,9 C 15,9 C 8,0 km/h (2 Bft) 97,56 %
15.05.2017 19:10 15,8 C 20,6 C 88 % 1026,8 hPa 0,0 l/m 6,9 km/h (2 Bft) S-SW 194 2 min 0,000 mm 0,0 UV-I 131 W/m 13,8 C 15,5 C 9,7 km/h (2 Bft) 98,21 %
15.05.2017 19:12 15,8 C 20,6 C 87 % 1026,8 hPa 0,0 l/m 4,7 km/h (1 Bft) S-SO 167 2 min 0,000 mm 0,0 UV-I 129 W/m 13,6 C 15,8 C 9,7 km/h (2 Bft) 100,00 %
15.05.2017 19:14 15,7 C 20,6 C 87 % 1026,8 hPa 0,0 l/m 3,6 km/h (1 Bft) S 177 2 min 0,000 mm 0,0 UV-I 163 W/m 13,5 C 15,7 C 9,7 km/h (2 Bft) 94,74 %
15.05.2017 19:16 15,7 C 20,6 C 87 % 1026,8 hPa 0,0 l/m 3,3 km/h (1 Bft) S 173 2 min 0,000 mm 0,0 UV-I 182 W/m 13,5 C 15,7 C 6,4 km/h (2 Bft) 98,00 %
15.05.2017 19:18 15,8 C 20,6 C 88 % 1026,8 hPa 0,0 l/m 4,0 km/h (1 Bft) S-SW 211 2 min 0,000 mm 0,0 UV-I 131 W/m 13,8 C 15,8 C 6,4 km/h (2 Bft) 98,00 %
15.05.2017 19:20 15,8 C 20,6 C 88 % 1026,9 hPa 0,0 l/m 5,8 km/h (2 Bft) SW 218 2 min 0,000 mm 0,0 UV-I 102 W/m 13,8 C 15,8 C 9,7 km/h (2 Bft) 95,12 %
15.05.2017 19:22 15,8 C 20,6 C 87 % 1026,8 hPa 0,0 l/m 5,9 km/h (2 Bft) SW 220 0 min 0,000 mm 0,0 UV-I 94 W/m 13,6 C 15,8 C 9,7 km/h (2 Bft) 100,00 %
15.05.2017 19:24 15,8 C 20,6 C 87 % 1026,9 hPa 0,0 l/m 2,8 km/h (1 Bft) S-SO 154 0 min 0,000 mm 0,0 UV-I 84 W/m 13,6 C 15,8 C 6,4 km/h (2 Bft) 100,00 %
15.05.2017 19:26 15,7 C 20,6 C 87 % 1026,9 hPa 0,0 l/m 5,0 km/h (1 Bft) S-SO 163 2 min 0,000 mm 0,0 UV-I 98 W/m 13,5 C 15,7 C 9,7 km/h (2 Bft) 100,00 %
15.05.2017 19:29 15,7 C 20,6 C 88 % 1027,0 hPa 0,0 l/m 4,7 km/h (1 Bft) S-SW 203 0 min 0,000 mm 0,0 UV-I 84 W/m 13,7 C 15,7 C 8,0 km/h (2 Bft) 98,59 %
15.05.2017 19:30 15,7 C 20,6 C 88 % 1027,0 hPa 0,0 l/m 5,0 km/h (1 Bft) S-SW 202 0 min 0,000 mm 0,0 UV-I 71 W/m 13,7 C 15,7 C 6,4 km/h (2 Bft) 86,96 %
15.05.2017 19:32 15,6 C 20,6 C 88 % 1027,0 hPa 0,0 l/m 2,4 km/h (1 Bft) S-SW 211 0 min 0,000 mm 0,0 UV-I 67 W/m 13,6 C 15,6 C 4,8 km/h (1 Bft) 95,74 %
15.05.2017 19:34 15,6 C 20,6 C 88 % 1027,0 hPa 0,0 l/m 2,4 km/h (1 Bft) S-SW 211 0 min 0,000 mm 0,0 UV-I 58 W/m 13,6 C 15,6 C 4,8 km/h (1 Bft) 100,00 %
15.05.2017 19:36 15,5 C 20,6 C 88 % 1027,0 hPa 0,0 l/m 2,4 km/h (1 Bft) S-SW 211 0 min 0,000 mm 0,0 UV-I 54 W/m 13,5 C 15,5 C 6,4 km/h (2 Bft) 97,87 %
15.05.2017 19:38 15,4 C 20,6 C 88 % 1027,0 hPa 0,0 l/m 2,7 km/h (1 Bft) S-SW 211 0 min 0,000 mm 0,0 UV-I 53 W/m 13,4 C 15,4 C 4,8 km/h (1 Bft) 100,00 %
15.05.2017 19:40 15,4 C 20,6 C 88 % 1027,0 hPa 0,0 l/m 4,0 km/h (1 Bft) S-SW 211 0 min 0,000 mm 0,0 UV-I 54 W/m 13,4 C 15,4 C 6,4 km/h (2 Bft) 94,83 %
15.05.2017 19:42 15,4 C 20,6 C 89 % 1027,1 hPa 0,0 l/m 4,6 km/h (1 Bft) S-SW 211 0 min 0,000 mm 0,0 UV-I 54 W/m 13,6 C 15,4 C 8,0 km/h (2 Bft) 100,00 %
15.05.2017 19:44 15,5 C 20,6 C 90 % 1027,1 hPa 0,0 l/m 5,3 km/h (1 Bft) S-SW 202 0 min 0,000 mm 0,0 UV-I 59 W/m 13,9 C 15,5 C 8,0 km/h (2 Bft) 98,00 %
15.05.2017 19:46 15,5 C 20,6 C 89 % 1027,1 hPa 0,0 l/m 6,1 km/h (2 Bft) S-SW 201 2 min 0,000 mm 0,0 UV-I 70 W/m 13,7 C 15,5 C 8,0 km/h (2 Bft) 97,87 %
15.05.2017 19:49 15,7 C 20,6 C 89 % 1027,1 hPa 0,0 l/m 5,2 km/h (1 Bft) S-SW 209 3 min 0,000 mm 0,0 UV-I 72 W/m 13,9 C 15,7 C 8,0 km/h (2 Bft) 97,37 %
15.05.2017 19:50 15,7 C 20,6 C 89 % 1027,1 hPa 0,0 l/m 5,4 km/h (1 Bft) S-SW 209 1 min 0,000 mm 0,0 UV-I 69 W/m 13,9 C 15,7 C 6,4 km/h (2 Bft) 100,00 %
15.05.2017 19:52 15,7 C 20,6 C 89 % 1027,2 hPa 0,0 l/m 5,7 km/h (1 Bft) S-SW 209 2 min 0,000 mm 0,0 UV-I 66 W/m 13,9 C 15,7 C 8,0 km/h (2 Bft) 97,87 %
15.05.2017 19:54 15,7 C 20,6 C 89 % 1027,2 hPa 0,0 l/m 5,0 km/h (1 Bft) SW 216 0 min 0,000 mm 0,0 UV-I 39 W/m 13,9 C 15,7 C 6,4 km/h (2 Bft) 95,74 %
15.05.2017 19:56 15,8 C 20,6 C 89 % 1027,2 hPa 0,0 l/m 4,6 km/h (1 Bft) S-SW 207 0 min 0,000 mm 0,0 UV-I 33 W/m 14,0 C 15,8 C 6,4 km/h (2 Bft) 92,00 %
15.05.2017 19:58 15,7 C 20,6 C 89 % 1027,2 hPa 0,0 l/m 3,8 km/h (1 Bft) S-SW 207 0 min 0,000 mm 0,0 UV-I 31 W/m 13,9 C 15,7 C 6,4 km/h (2 Bft) 94,34 %
15.05.2017 20:00 15,7 C 20,6 C 89 % 1027,2 hPa 0,0 l/m 3,8 km/h (1 Bft) S-SW 207 0 min 0,000 mm 0,0 UV-I 29 W/m 13,9 C 15,7 C 6,4 km/h (2 Bft) 97,87 %
15.05.2017 20:02 15,7 C 20,6 C 89 % 1027,2 hPa 0,0 l/m 4,0 km/h (1 Bft) S-SW 207 0 min 0,051 mm 0,0 UV-I 27 W/m 13,9 C 15,7 C 6,4 km/h (2 Bft) 95,45 %
15.05.2017 20:04 15,6 C 20,6 C 89 % 1027,3 hPa 0,0 l/m 3,3 km/h (1 Bft) S-SW 207 0 min 0,000 mm 0,0 UV-I 26 W/m 13,8 C 15,6 C 4,8 km/h (1 Bft) 96,00 %
15.05.2017 20:06 15,6 C 20,6 C 89 % 1027,3 hPa 0,0 l/m 3,2 km/h (1 Bft) S-SW 207 0 min 0,000 mm 0,0 UV-I 26 W/m 13,8 C 15,6 C 4,8 km/h (1 Bft) 93,62 %
15.05.2017 20:08 15,6 C 20,6 C 89 % 1027,3 hPa 0,0 l/m 2,4 km/h (1 Bft) S-SW 207 0 min 0,000 mm 0,0 UV-I 28 W/m 13,8 C 15,6 C 4,8 km/h (1 Bft) 100,00 %
15.05.2017 20:10 15,5 C 20,6 C 90 % 1027,4 hPa 0,0 l/m 1,3 km/h (1 Bft) S-SW 207 0 min 0,000 mm 0,0 UV-I 28 W/m 13,9 C 15,5 C 3,2 km/h (1 Bft) 96,00 %
15.05.2017 20:12 15,5 C 20,6 C 90 % 1027,4 hPa 0,0 l/m 1,5 km/h (1 Bft) S-SW 207 0 min 0,000 mm 0,0 UV-I 24 W/m 13,9 C 15,5 C 3,2 km/h (1 Bft) 95,74 %
15.05.2017 20:14 15,5 C 20,6 C 90 % 1027,4 hPa 0,0 l/m 0,1 km/h (0 Bft) S-SW 207 0 min 0,000 mm 0,0 UV-I 22 W/m 13,9 C 15,5 C 1,6 km/h (1 Bft) 98,11 %
15.05.2017 20:16 15,5 C 20,6 C 90 % 1027,5 hPa 0,0 l/m 0,8 km/h (0 Bft) S-SW 207 0 min 0,000 mm 0,0 UV-I 19 W/m 13,9 C 15,5 C 1,6 km/h (1 Bft) 93,62 %
15.05.2017 20:18 15,4 C 20,6 C 90 % 1027,5 hPa 0,0 l/m 0,1 km/h (0 Bft) S-SW 207 0 min 0,000 mm 0,0 UV-I 15 W/m 13,8 C 15,4 C 1,6 km/h (1 Bft) 94,44 %
15.05.2017 20:20 15,4 C 20,6 C 91 % 1027,5 hPa 0,0 l/m 0,3 km/h (0 Bft) S-SW 207 0 min 0,000 mm 0,0 UV-I 12 W/m 13,9 C 15,4 C 1,6 km/h (1 Bft) 97,37 %
15.05.2017 20:22 15,3 C 20,6 C 91 % 1027,5 hPa 0,0 l/m 0,6 km/h (0 Bft) S-SW 207 0 min 0,000 mm 0,0 UV-I 11 W/m 13,8 C 15,3 C 1,6 km/h (1 Bft) 92,45 %
15.05.2017 20:24 15,3 C 20,6 C 91 % 1027,6 hPa 0,0 l/m 0,3 km/h (0 Bft) S-SW 207 2 min 0,000 mm 0,0 UV-I 11 W/m 13,8 C 15,3 C 1,6 km/h (1 Bft) 96,00 %
15.05.2017 20:26 15,3 C 20,6 C 91 % 1027,6 hPa 0,0 l/m 1,2 km/h (1 Bft) S-SW 206 0 min 0,000 mm 0,0 UV-I 9 W/m 13,8 C 15,3 C 3,2 km/h (1 Bft) 94,00 %
15.05.2017 20:28 15,2 C 20,6 C 91 % 1027,7 hPa 0,0 l/m 2,0 km/h (1 Bft) S-SW 203 0 min 0,000 mm 0,0 UV-I 9 W/m 13,7 C 15,2 C 3,2 km/h (1 Bft) 94,00 %
15.05.2017 20:30 15,2 C 20,6 C 91 % 1027,6 hPa 0,0 l/m 2,2 km/h (1 Bft) S 178 0 min 0,000 mm 0,0 UV-I 9 W/m 13,7 C 15,2 C 4,8 km/h (1 Bft) 94,00 %
15.05.2017 20:32 15,1 C 20,6 C 91 % 1027,7 hPa 0,0 l/m 4,4 km/h (1 Bft) S 186 0 min 0,000 mm 0,0 UV-I 7 W/m 13,6 C 15,1 C 6,4 km/h (2 Bft) 89,47 %
15.05.2017 20:34 15,1 C 20,6 C 91 % 1027,6 hPa 0,0 l/m 3,1 km/h (1 Bft) S 186 0 min 0,000 mm 0,0 UV-I 7 W/m 13,6 C 15,1 C 4,8 km/h (1 Bft) 92,00 %
15.05.2017 20:36 15,0 C 20,6 C 91 % 1027,7 hPa 0,0 l/m 2,1 km/h (1 Bft) S 186 0 min 0,000 mm 0,0 UV-I 7 W/m 13,5 C 15,0 C 3,2 km/h (1 Bft) 94,34 %
15.05.2017 20:38 15,0 C 20,6 C 92 % 1027,7 hPa 0,0 l/m 2,3 km/h (1 Bft) S 186 0 min 0,000 mm 0,0 UV-I 5 W/m 13,7 C 15,0 C 4,8 km/h (1 Bft) 88,57 %
15.05.2017 20:40 15,0 C 20,6 C 92 % 1027,7 hPa 0,0 l/m 2,5 km/h (1 Bft) S 186 0 min 0,000 mm 0,0 UV-I 5 W/m 13,7 C 15,0 C 4,8 km/h (1 Bft) 94,64 %
15.05.2017 20:42 14,9 C 20,6 C 92 % 1027,7 hPa 0,0 l/m 0,8 km/h (0 Bft) S 186 0 min 0,000 mm 0,0 UV-I 5 W/m 13,6 C 14,9 C 3,2 km/h (1 Bft) 90,00 %
15.05.2017 20:45 14,9 C 20,6 C 92 % 1027,8 hPa 0,0 l/m 2,6 km/h (1 Bft) S 186 0 min 0,000 mm 0,0 UV-I 5 W/m 13,6 C 14,9 C 4,8 km/h (1 Bft) 88,71 %
15.05.2017 20:46 14,9 C 20,6 C 92 % 1027,8 hPa 0,0 l/m 2,9 km/h (1 Bft) S 186 0 min 0,000 mm 0,0 UV-I 5 W/m 13,6 C 14,9 C 4,8 km/h (1 Bft) 96,15 %
15.05.2017 20:50 14,8 C 20,6 C 92 % 1027,8 hPa 0,0 l/m 2,3 km/h (1 Bft) S 186 0 min 0,000 mm 0,0 UV-I 1 W/m 13,5 C 14,8 C 3,2 km/h (1 Bft) 93,00 %
15.05.2017 20:52 14,8 C 20,6 C 92 % 1027,8 hPa 0,0 l/m 1,5 km/h (1 Bft) S 186 0 min 0,000 mm 0,0 UV-I 0 W/m 13,5 C 14,8 C 4,8 km/h (1 Bft) 100,00 %
15.05.2017 20:54 14,8 C 20,6 C 92 % 1027,8 hPa 0,0 l/m 1,8 km/h (1 Bft) S 186 0 min 0,000 mm 0,0 UV-I 0 W/m 13,5 C 14,8 C 4,8 km/h (1 Bft) 94,34 %
15.05.2017 20:56 14,7 C 20,6 C 92 % 1027,8 hPa 0,0 l/m 2,8 km/h (1 Bft) S 186 0 min 0,000 mm 0,0 UV-I 0 W/m 13,4 C 14,7 C 4,8 km/h (1 Bft) 97,87 %
15.05.2017 20:59 14,6 C 20,6 C 92 % 1027,8 hPa 0,0 l/m 1,9 km/h (1 Bft) S 186 0 min 0,000 mm 0,0 UV-I 0 W/m 13,3 C 14,6 C 4,8 km/h (1 Bft) 98,59 %
15.05.2017 21:00 14,6 C 20,6 C 92 % 1027,8 hPa 0,0 l/m 2,5 km/h (1 Bft) S 186 0 min 0,000 mm 0,0 UV-I 0 W/m 13,3 C 14,6 C 4,8 km/h (1 Bft) 93,33 %
15.05.2017 21:02 14,6 C 20,6 C 92 % 1027,9 hPa 0,0 l/m 1,4 km/h (1 Bft) S 185 0 min 0,000 mm 0,0 UV-I 0 W/m 13,3 C 14,6 C 4,8 km/h (1 Bft) 94,00 %
15.05.2017 21:04 14,6 C 20,6 C 92 % 1027,8 hPa 0,0 l/m 3,1 km/h (1 Bft) S 185 0 min 0,000 mm 0,0 UV-I 0 W/m 13,3 C 14,6 C 6,4 km/h (2 Bft) 100,00 %
15.05.2017 21:06 14,5 C 20,6 C 92 % 1027,9 hPa 0,0 l/m 2,7 km/h (1 Bft) S 184 0 min 0,000 mm 0,0 UV-I 0 W/m 13,2 C 14,5 C 4,8 km/h (1 Bft) 100,00 %
15.05.2017 21:08 14,4 C 20,6 C 92 % 1027,9 hPa 0,0 l/m 3,0 km/h (1 Bft) S 185 0 min 0,000 mm 0,0 UV-I 0 W/m 13,1 C 14,4 C 6,4 km/h (2 Bft) 100,00 %
15.05.2017 21:10 14,4 C 20,6 C 92 % 1027,9 hPa 0,0 l/m 2,2 km/h (1 Bft) S 173 0 min 0,000 mm 0,0 UV-I 0 W/m 13,1 C 14,4 C 4,8 km/h (1 Bft) 98,00 %
15.05.2017 21:12 14,3 C 20,6 C 92 % 1028,0 hPa 0,0 l/m 2,7 km/h (1 Bft) S 173 0 min 0,000 mm 0,0 UV-I 0 W/m 13,0 C 14,3 C 8,0 km/h (2 Bft) 100,00 %
15.05.2017 21:14 14,3 C 20,6 C 92 % 1028,0 hPa 0,0 l/m 3,2 km/h (1 Bft) S 181 0 min 0,000 mm 0,0 UV-I 0 W/m 13,0 C 14,3 C 4,8 km/h (1 Bft) 100,00 %
15.05.2017 21:16 14,3 C 20,6 C 92 % 1028,0 hPa 0,0 l/m 2,5 km/h (1 Bft) S 175 0 min 0,000 mm 0,0 UV-I 0 W/m 13,0 C 14,3 C 4,8 km/h (1 Bft) 97,87 %
15.05.2017 21:18 14,3 C 20,6 C 92 % 1028,0 hPa 0,0 l/m 2,9 km/h (1 Bft) S 169 0 min 0,000 mm 0,0 UV-I 0 W/m 13,0 C 14,3 C 6,4 km/h (2 Bft) 100,00 %
15.05.2017 21:20 14,2 C 20,6 C 92 % 1028,1 hPa 0,0 l/m 3,3 km/h (1 Bft) S 190 0 min 0,000 mm 0,0 UV-I 0 W/m 12,9 C 14,2 C 6,4 km/h (2 Bft) 100,00 %
15.05.2017 21:22 14,2 C 20,6 C 92 % 1028,1 hPa 0,0 l/m 2,7 km/h (1 Bft) S 182 0 min 0,000 mm 0,0 UV-I 0 W/m 12,9 C 14,2 C 4,8 km/h (1 Bft) 100,00 %
15.05.2017 21:24 14,2 C 20,6 C 92 % 1028,2 hPa 0,0 l/m 3,6 km/h (1 Bft) S-SO 167 0 min 0,000 mm 0,0 UV-I 0 W/m 12,9 C 14,2 C 4,8 km/h (1 Bft) 100,00 %
15.05.2017 21:26 14,1 C 20,6 C 92 % 1028,2 hPa 0,0 l/m 3,5 km/h (1 Bft) S-SW 207 0 min 0,000 mm 0,0 UV-I 0 W/m 12,8 C 14,1 C 6,4 km/h (2 Bft) 100,00 %
15.05.2017 21:28 14,1 C 20,6 C 92 % 1028,3 hPa 0,0 l/m 3,5 km/h (1 Bft) S-SW 192 0 min 0,000 mm 0,0 UV-I 0 W/m 12,8 C 14,1 C 6,4 km/h (2 Bft) 100,00 %
15.05.2017 21:30 14,1 C 20,6 C 92 % 1028,2 hPa 0,0 l/m 2,7 km/h (1 Bft) S-SW 192 0 min 0,000 mm 0,0 UV-I 0 W/m 12,8 C 14,1 C 4,8 km/h (1 Bft) 97,87 %
15.05.2017 21:32 14,1 C 20,6 C 92 % 1028,2 hPa 0,0 l/m 3,3 km/h (1 Bft) S-SW 192 0 min 0,000 mm 0,0 UV-I 0 W/m 12,8 C 14,1 C 6,4 km/h (2 Bft) 97,56 %
15.05.2017 21:34 14,1 C 20,6 C 93 % 1028,3 hPa 0,0 l/m 3,8 km/h (1 Bft) S-SW 192 0 min 0,000 mm 0,0 UV-I 0 W/m 13,0 C 14,1 C 6,4 km/h (2 Bft) 98,00 %
15.05.2017 21:36 14,0 C 20,6 C 93 % 1028,3 hPa 0,0 l/m 3,6 km/h (1 Bft) S-SW 196 0 min 0,000 mm 0,0 UV-I 0 W/m 12,9 C 14,0 C 6,4 km/h (2 Bft) 93,33 %
15.05.2017 21:38 14,0 C 20,6 C 93 % 1028,3 hPa 0,0 l/m 3,6 km/h (1 Bft) S-SW 192 0 min 0,000 mm 0,0 UV-I 0 W/m 12,9 C 14,0 C 6,4 km/h (2 Bft) 98,39 %
15.05.2017 21:40 13,9 C 20,6 C 93 % 1028,3 hPa 0,0 l/m 3,1 km/h (1 Bft) S-SW 200 0 min 0,000 mm 0,0 UV-I 0 W/m 12,8 C 13,9 C 4,8 km/h (1 Bft) 100,00 %
15.05.2017 21:42 13,9 C 20,6 C 93 % 1028,3 hPa 0,0 l/m 2,9 km/h (1 Bft) S-SW 193 0 min 0,000 mm 0,0 UV-I 0 W/m 12,8 C 13,9 C 6,4 km/h (2 Bft) 100,00 %
15.05.2017 21:44 13,9 C 20,6 C 93 % 1028,3 hPa 0,0 l/m 3,8 km/h (1 Bft) S-SW 193 0 min 0,000 mm 0,0 UV-I 0 W/m 12,8 C 13,9 C 4,8 km/h (1 Bft) 98,00 %
15.05.2017 21:46 13,9 C 20,6 C 93 % 1028,3 hPa 0,0 l/m 4,8 km/h (1 Bft) S-SW 193 0 min 0,000 mm 0,0 UV-I 0 W/m 12,8 C 13,9 C 9,7 km/h (2 Bft) 98,11 %
15.05.2017 21:48 13,8 C 20,6 C 93 % 1028,3 hPa 0,0 l/m 4,2 km/h (1 Bft) S 190 0 min 0,000 mm 0,0 UV-I 0 W/m 12,7 C 13,8 C 6,4 km/h (2 Bft) 100,00 %
15.05.2017 21:50 13,8 C 20,6 C 93 % 1028,3 hPa 0,0 l/m 5,2 km/h (1 Bft) S 187 0 min 0,000 mm 0,0 UV-I 0 W/m 12,7 C 13,8 C 8,0 km/h (2 Bft) 96,43 %
15.05.2017 21:52 13,8 C 20,6 C 93 % 1028,3 hPa 0,0 l/m 4,2 km/h (1 Bft) S-SW 194 0 min 0,000 mm 0,0 UV-I 0 W/m 12,7 C 13,8 C 6,4 km/h (2 Bft) 100,00 %
15.05.2017 21:54 13,8 C 20,6 C 93 % 1028,3 hPa 0,0 l/m 3,2 km/h (1 Bft) S 187 0 min 0,000 mm 0,0 UV-I 0 W/m 12,7 C 13,8 C 9,7 km/h (2 Bft) 100,00 %
15.05.2017 21:56 13,8 C 20,6 C 93 % 1028,4 hPa 0,0 l/m 4,9 km/h (1 Bft) S-SW 207 0 min 0,000 mm 0,0 UV-I 0 W/m 12,7 C 13,8 C 6,4 km/h (2 Bft) 98,11 %
15.05.2017 21:58 13,8 C 20,6 C 93 % 1028,4 hPa 0,0 l/m 4,4 km/h (1 Bft) S-SW 200 0 min 0,000 mm 0,0 UV-I 0 W/m 12,7 C 13,8 C 6,4 km/h (2 Bft) 98,00 %
15.05.2017 22:00 13,8 C 20,6 C 92 % 1028,4 hPa 0,0 l/m 5,0 km/h (1 Bft) S-SW 210 0 min 0,000 mm 0,0 UV-I 0 W/m 12,5 C 13,8 C 8,0 km/h (2 Bft) 97,56 %
15.05.2017 22:02 13,8 C 20,6 C 92 % 1028,4 hPa 0,0 l/m 5,6 km/h (1 Bft) S-SW 211 0 min 0,000 mm 0,0 UV-I 0 W/m 12,5 C 13,8 C 8,0 km/h (2 Bft) 93,18 %
15.05.2017 22:04 13,8 C 20,6 C 92 % 1028,4 hPa 0,0 l/m 6,9 km/h (2 Bft) SW 220 0 min 0,000 mm 0,0 UV-I 0 W/m 12,5 C 13,5 C 9,7 km/h (2 Bft) 100,00 %
15.05.2017 22:06 13,8 C 20,6 C 92 % 1028,4 hPa 0,0 l/m 6,0 km/h (2 Bft) SW 219 0 min 0,000 mm 0,0 UV-I 0 W/m 12,5 C 13,8 C 9,7 km/h (2 Bft) 97,87 %
15.05.2017 22:08 13,8 C 20,6 C 92 % 1028,3 hPa 0,0 l/m 6,5 km/h (2 Bft) S-SW 207 0 min 0,000 mm 0,0 UV-I 0 W/m 12,5 C 13,8 C 9,7 km/h (2 Bft) 90,00 %
15.05.2017 22:10 13,8 C 20,6 C 92 % 1028,3 hPa 0,0 l/m 5,9 km/h (2 Bft) SW 222 0 min 0,000 mm 0,0 UV-I 0 W/m 12,5 C 13,8 C 8,0 km/h (2 Bft) 100,00 %
15.05.2017 22:12 13,9 C 20,6 C 91 % 1028,3 hPa 0,0 l/m 5,3 km/h (1 Bft) S-SW 207 0 min 0,000 mm 0,0 UV-I 0 W/m 12,5 C 13,9 C 8,0 km/h (2 Bft) 97,37 %
15.05.2017 22:14 13,8 C 20,6 C 91 % 1028,3 hPa 0,0 l/m 5,2 km/h (1 Bft) S-SW 210 0 min 0,000 mm 0,0 UV-I 0 W/m 12,4 C 13,8 C 8,0 km/h (2 Bft) 100,00 %
15.05.2017 22:16 13,8 C 20,6 C 91 % 1028,3 hPa 0,0 l/m 6,3 km/h (2 Bft) S-SW 211 0 min 0,000 mm 0,0 UV-I 0 W/m 12,4 C 13,8 C 8,0 km/h (2 Bft) 97,92 %
15.05.2017 22:18 13,8 C 20,6 C 91 % 1028,3 hPa 0,0 l/m 6,7 km/h (2 Bft) S-SW 209 0 min 0,000 mm 0,0 UV-I 0 W/m 12,4 C 13,6 C 8,0 km/h (2 Bft) 97,96 %
15.05.2017 22:20 13,8 C 20,6 C 91 % 1028,3 hPa 0,0 l/m 6,4 km/h (2 Bft) S-SW 209 0 min 0,000 mm 0,0 UV-I 0 W/m 12,4 C 13,8 C 9,7 km/h (2 Bft) 98,11 %
15.05.2017 22:22 13,7 C 20,6 C 91 % 1028,3 hPa 0,0 l/m 5,8 km/h (2 Bft) S-SW 210 0 min 0,000 mm 0,0 UV-I 0 W/m 12,3 C 13,7 C 9,7 km/h (2 Bft) 92,86 %
15.05.2017 22:24 13,7 C 20,6 C 91 % 1028,3 hPa 0,0 l/m 6,1 km/h (2 Bft) S-SW 209 0 min 0,000 mm 0,0 UV-I 0 W/m 12,3 C 13,7 C 8,0 km/h (2 Bft) 97,56 %
15.05.2017 22:26 13,7 C 20,6 C 91 % 1028,3 hPa 0,0 l/m 5,5 km/h (1 Bft) S-SW 209 0 min 0,000 mm 0,0 UV-I 0 W/m 12,3 C 13,7 C 8,0 km/h (2 Bft) 96,00 %
15.05.2017 22:28 13,7 C 20,6 C 90 % 1028,4 hPa 0,0 l/m 6,4 km/h (2 Bft) S-SW 207 0 min 0,000 mm 0,0 UV-I 0 W/m 12,1 C 13,7 C 9,7 km/h (2 Bft) 92,31 %
15.05.2017 22:30 13,7 C 20,6 C 90 % 1028,4 hPa 0,0 l/m 5,2 km/h (1 Bft) S-SW 207 0 min 0,000 mm 0,0 UV-I 0 W/m 12,1 C 13,7 C 8,0 km/h (2 Bft) 96,92 %
15.05.2017 22:32 13,6 C 20,6 C 90 % 1028,4 hPa 0,0 l/m 7,4 km/h (2 Bft) S-SW 211 0 min 0,000 mm 0,0 UV-I 0 W/m 12,0 C 13,0 C 9,7 km/h (2 Bft) 98,11 %
15.05.2017 22:34 13,6 C 20,6 C 91 % 1028,4 hPa 0,0 l/m 7,2 km/h (2 Bft) S-SW 207 0 min 0,000 mm 0,0 UV-I 0 W/m 12,2 C 13,1 C 9,7 km/h (2 Bft) 95,45 %
15.05.2017 22:36 13,6 C 20,6 C 91 % 1028,4 hPa 0,0 l/m 6,7 km/h (2 Bft) S-SW 209 0 min 0,000 mm 0,0 UV-I 0 W/m 12,2 C 13,4 C 8,0 km/h (2 Bft) 95,12 %
15.05.2017 22:38 13,6 C 20,6 C 91 % 1028,4 hPa 0,0 l/m 5,5 km/h (1 Bft) SW 223 0 min 0,000 mm 0,0 UV-I 0 W/m 12,2 C 13,6 C 9,7 km/h (2 Bft) 94,64 %
15.05.2017 22:40 13,6 C 20,6 C 91 % 1028,4 hPa 0,0 l/m 7,3 km/h (2 Bft) S-SW 207 0 min 0,000 mm 0,0 UV-I 0 W/m 12,2 C 13,0 C 11,3 km/h (2 Bft) 95,12 %
15.05.2017 22:42 13,6 C 20,6 C 90 % 1028,4 hPa 0,0 l/m 7,1 km/h (2 Bft) S-SW 211 0 min 0,000 mm 0,0 UV-I 0 W/m 12,0 C 13,2 C 8,0 km/h (2 Bft) 95,74 %
15.05.2017 22:44 13,6 C 20,6 C 90 % 1028,4 hPa 0,0 l/m 6,1 km/h (2 Bft) S-SW 211 0 min 0,000 mm 0,0 UV-I 0 W/m 12,0 C 13,6 C 8,0 km/h (2 Bft) 98,00 %
15.05.2017 22:46 13,6 C 20,6 C 90 % 1028,5 hPa 0,0 l/m 5,0 km/h (1 Bft) S-SW 211 0 min 0,000 mm 0,0 UV-I 0 W/m 12,0 C 13,6 C 8,0 km/h (2 Bft) 95,74 %
15.05.2017 22:49 13,6 C 20,6 C 91 % 1028,5 hPa 0,0 l/m 3,6 km/h (1 Bft) S-SW 195 0 min 0,000 mm 0,0 UV-I 0 W/m 12,2 C 13,6 C 6,4 km/h (2 Bft) 94,81 %
15.05.2017 22:50 13,5 C 20,6 C 91 % 1028,5 hPa 0,0 l/m 4,4 km/h (1 Bft) S-SW 195 0 min 0,000 mm 0,0 UV-I 0 W/m 12,1 C 13,5 C 6,4 km/h (2 Bft) 100,00 %
15.05.2017 22:54 13,4 C 20,6 C 91 % 1028,5 hPa 0,0 l/m 4,0 km/h (1 Bft) S-SW 195 0 min 0,000 mm 0,0 UV-I 0 W/m 12,0 C 13,4 C 6,4 km/h (2 Bft) 93,81 %
15.05.2017 22:56 13,4 C 20,6 C 91 % 1028,5 hPa 0,0 l/m 3,0 km/h (1 Bft) S-SW 195 0 min 0,000 mm 0,0 UV-I 0 W/m 12,0 C 13,4 C 4,8 km/h (1 Bft) 100,00 %
15.05.2017 22:58 13,4 C 20,6 C 91 % 1028,5 hPa 0,0 l/m 2,6 km/h (1 Bft) S-SW 195 0 min 0,000 mm 0,0 UV-I 0 W/m 12,0 C 13,4 C 3,2 km/h (1 Bft) 97,44 %
15.05.2017 23:00 13,4 C 20,6 C 91 % 1028,5 hPa 0,0 l/m 2,1 km/h (1 Bft) S-SW 195 0 min 0,000 mm 0,0 UV-I 0 W/m 12,0 C 13,4 C 4,8 km/h (1 Bft) 100,00 %
15.05.2017 23:02 13,4 C 20,6 C 91 % 1028,5 hPa 0,0 l/m 3,5 km/h (1 Bft) S-SW 195 0 min 0,000 mm 0,0 UV-I 0 W/m 12,0 C 13,4 C 4,8 km/h (1 Bft) 90,00 %
15.05.2017 23:04 13,4 C 20,6 C 91 % 1028,5 hPa 0,0 l/m 2,4 km/h (1 Bft) S-SW 195 0 min 0,000 mm 0,0 UV-I 0 W/m 12,0 C 13,4 C 4,8 km/h (1 Bft) 97,56 %
15.05.2017 23:06 13,3 C 20,6 C 91 % 1028,6 hPa 0,0 l/m 2,9 km/h (1 Bft) S-SW 195 0 min 0,000 mm 0,0 UV-I 0 W/m 11,9 C 13,3 C 3,2 km/h (1 Bft) 100,00 %
15.05.2017 23:08 13,3 C 20,6 C 91 % 1028,6 hPa 0,0 l/m 2,3 km/h (1 Bft) S-SW 195 0 min 0,000 mm 0,0 UV-I 0 W/m 11,9 C 13,3 C 3,2 km/h (1 Bft) 100,00 %
15.05.2017 23:10 13,3 C 20,6 C 91 % 1028,6 hPa 0,0 l/m 2,9 km/h (1 Bft) S-SW 195 0 min 0,000 mm 0,0 UV-I 0 W/m 11,9 C 13,3 C 3,2 km/h (1 Bft) 100,00 %
15.05.2017 23:12 13,3 C 20,6 C 91 % 1028,6 hPa 0,0 l/m 1,9 km/h (1 Bft) S-SW 195 0 min 0,000 mm 0,0 UV-I 0 W/m 11,9 C 13,3 C 3,2 km/h (1 Bft) 98,00 %
15.05.2017 23:14 13,3 C 20,6 C 91 % 1028,6 hPa 0,0 l/m 2,5 km/h (1 Bft) S-SW 195 0 min 0,000 mm 0,0 UV-I 0 W/m 11,9 C 13,3 C 3,2 km/h (1 Bft) 98,00 %
15.05.2017 23:16 13,3 C 20,6 C 91 % 1028,6 hPa 0,0 l/m 2,6 km/h (1 Bft) S-SW 195 0 min 0,000 mm 0,0 UV-I 0 W/m 11,9 C 13,3 C 3,2 km/h (1 Bft) 100,00 %
15.05.2017 23:18 13,3 C 20,6 C 91 % 1028,7 hPa 0,0 l/m 4,5 km/h (1 Bft) S-SW 203 0 min 0,000 mm 0,0 UV-I 0 W/m 11,9 C 13,3 C 6,4 km/h (2 Bft) 97,87 %
15.05.2017 23:20 13,2 C 20,6 C 92 % 1028,7 hPa 0,0 l/m 4,5 km/h (1 Bft) SW 220 0 min 0,000 mm 0,0 UV-I 0 W/m 11,9 C 13,2 C 6,4 km/h (2 Bft) 100,00 %
15.05.2017 23:22 13,2 C 20,6 C 92 % 1028,7 hPa 0,0 l/m 3,6 km/h (1 Bft) SW 220 0 min 0,000 mm 0,0 UV-I 0 W/m 11,9 C 13,2 C 6,4 km/h (2 Bft) 95,74 %
15.05.2017 23:24 13,1 C 20,6 C 92 % 1028,6 hPa 0,0 l/m 3,2 km/h (1 Bft) SW 221 0 min 0,000 mm 0,0 UV-I 0 W/m 11,8 C 13,1 C 4,8 km/h (1 Bft) 100,00 %
15.05.2017 23:26 13,0 C 20,0 C 92 % 1028,7 hPa 0,0 l/m 6,3 km/h (2 Bft) SW 234 0 min 0,000 mm 0,0 UV-I 0 W/m 11,7 C 13,0 C 9,7 km/h (2 Bft) 98,00 %
15.05.2017 23:28 13,0 C 20,6 C 92 % 1028,6 hPa 0,0 l/m 5,6 km/h (1 Bft) SW 228 0 min 0,000 mm 0,0 UV-I 0 W/m 11,7 C 13,0 C 8,0 km/h (2 Bft) 98,00 %
15.05.2017 23:30 12,9 C 20,6 C 92 % 1028,7 hPa 0,0 l/m 5,9 km/h (2 Bft) SW 230 0 min 0,000 mm 0,0 UV-I 0 W/m 11,6 C 12,9 C 8,0 km/h (2 Bft) 100,00 %
15.05.2017 23:32 12,9 C 20,6 C 92 % 1028,7 hPa 0,0 l/m 6,1 km/h (2 Bft) SW 227 0 min 0,000 mm 0,0 UV-I 0 W/m 11,6 C 12,9 C 9,7 km/h (2 Bft) 98,00 %
15.05.2017 23:34 12,9 C 20,0 C 91 % 1028,7 hPa 0,0 l/m 5,0 km/h (1 Bft) SW 230 0 min 0,000 mm 0,0 UV-I 0 W/m 11,5 C 12,9 C 6,4 km/h (2 Bft) 100,00 %
15.05.2017 23:36 12,9 C 20,0 C 91 % 1028,7 hPa 0,0 l/m 5,6 km/h (1 Bft) SW 227 0 min 0,000 mm 0,0 UV-I 0 W/m 11,5 C 12,9 C 8,0 km/h (2 Bft) 97,87 %
15.05.2017 23:38 12,9 C 20,0 C 91 % 1028,7 hPa 0,0 l/m 6,4 km/h (2 Bft) W-SW 238 0 min 0,000 mm 0,0 UV-I 0 W/m 11,5 C 12,9 C 8,0 km/h (2 Bft) 100,00 %
15.05.2017 23:40 12,9 C 20,0 C 91 % 1028,7 hPa 0,0 l/m 5,2 km/h (1 Bft) SW 225 0 min 0,000 mm 0,0 UV-I 0 W/m 11,5 C 12,9 C 8,0 km/h (2 Bft) 97,44 %
15.05.2017 23:42 12,9 C 20,0 C 91 % 1028,8 hPa 0,0 l/m 4,1 km/h (1 Bft) SW 225 0 min 0,000 mm 0,0 UV-I 0 W/m 11,5 C 12,9 C 6,4 km/h (2 Bft) 97,87 %
15.05.2017 23:44 12,9 C 20,0 C 92 % 1028,8 hPa 0,0 l/m 5,2 km/h (1 Bft) S-SW 207 0 min 0,000 mm 0,0 UV-I 0 W/m 11,6 C 12,9 C 8,0 km/h (2 Bft) 96,00 %
15.05.2017 23:46 12,9 C 20,0 C 92 % 1028,8 hPa 0,0 l/m 5,1 km/h (1 Bft) SW 221 0 min 0,000 mm 0,0 UV-I 0 W/m 11,6 C 12,9 C 8,0 km/h (2 Bft) 97,37 %
15.05.2017 23:48 12,9 C 20,0 C 92 % 1028,9 hPa 0,0 l/m 5,0 km/h (1 Bft) S-SW 209 0 min 0,000 mm 0,0 UV-I 0 W/m 11,6 C 12,9 C 8,0 km/h (2 Bft) 96,00 %
15.05.2017 23:50 12,8 C 20,0 C 92 % 1028,8 hPa 0,0 l/m 4,3 km/h (1 Bft) S-SW 209 0 min 0,000 mm 0,0 UV-I 0 W/m 11,5 C 12,8 C 6,4 km/h (2 Bft) 94,64 %
15.05.2017 23:52 12,8 C 20,0 C 92 % 1028,8 hPa 0,0 l/m 3,9 km/h (1 Bft) S-SW 209 0 min 0,000 mm 0,0 UV-I 0 W/m 11,5 C 12,8 C 4,8 km/h (1 Bft) 95,12 %
15.05.2017 23:54 12,8 C 20,0 C 92 % 1028,8 hPa 0,0 l/m 4,3 km/h (1 Bft) S-SW 209 0 min 0,000 mm 0,0 UV-I 0 W/m 11,5 C 12,8 C 6,4 km/h (2 Bft) 97,87 %
15.05.2017 23:56 12,7 C 20,0 C 92 % 1028,8 hPa 0,0 l/m 4,6 km/h (1 Bft) S-SW 209 0 min 0,000 mm 0,0 UV-I 0 W/m 11,4 C 12,7 C 8,0 km/h (2 Bft) 97,37 %
15.05.2017 23:58 12,7 C 20,0 C 92 % 1028,8 hPa 0,0 l/m 5,3 km/h (1 Bft) S-SW 209 0 min 0,000 mm 0,0 UV-I 0 W/m 11,4 C 12,7 C 6,4 km/h (2 Bft) 98,21 %
_ Min-Zeit 23:56 03:40 14:32 00:02 - 18:08 - - - - - - 14:50 04:30 18:08 19:30
Minimum _ 12,7 C 19,4 C 50 % 1023,1 hPa - 0,0 km/h (0 Bft) - - - - - - 10,2 C 9,6 C 0,0 km/h (0 Bft) 86,96 %
_ Max-Zeit 14:26 14:38 18:18 23:48 16:40 11:18 - - 19:49 12:00 12:46 13:56 18:58 14:30 08:42 01:28
Maximum _ 21,5 C 21,1 C 93 % 1028,9 hPa 1,4 l/m 17,1 km/h
W-SW (3 Bft)
- - 3 min 0,483 mm 5,6 UV-I 1038 W/m 14,4 C 21,4 C 22,5 km/h
W-SW (4 Bft)
100,00 %
Durchschnitt _ 15,6 C 20,1 C 81 % 1026,2 hPa #10,4 l/m 7,0 km/h (2 Bft) W-SW - #6:21 h #3,353 mm 2,9 UV-I 328 W/m 12,1 C 14,8 C 11,4 km/h (2 Bft) 97,27 %